<?xml version="1.0" encoding="UTF-8" standalone="no" ?>
<gpx xmlns="http://www.topografix.com/GPX/1/1" xmlns:xsi="http://www.w3.org/2001/XMLSchema-instance" xsi:schemaLocation="http://www.topografix.com/GPX/1/1 http://www.topografix.com/GPX/1/1/gpx.xsd" version="1.1" creator="VisuGPX - https://www.visugpx.com">
  <metadata>
    <name>CCFM 162</name>
    <desc><![CDATA[⛳️/CS.Mons, Verlaine, Moha, Velaine, Landenne/s Meuse, 
Franc Waret, Wartet, Nameche, Maizeret, Mozet, [b]FAUX LES TOMBES[/b], Gesves, Haut Bois, Ohey, Perwez, Marchin, Huy, Vallée]]></desc>
  </metadata>
  <trk>
    <name><![CDATA[CCFM 162]]></name>
    <extensions>
      <line xmlns="http://www.topografix.com/GPX/gpx_style/0/2">
        <color>0000ff</color>
        <width>4</width>
          <extensions>
            <sens>1</sens>
          </extensions>
      </line>
    </extensions>
    <trkseg>
      <trkpt lat="50.62336" lon="5.44763">
        <ele>191</ele>
        <time>2022-03-29T23:55:13Z</time>
        <extensions>
          <visugpx:TrkExtension xmlns:visugpx="https://www.visugpx.com/editgpx/">
            <visugpx:node>15</visugpx:node>
            </visugpx:TrkExtension>
        </extensions>
      </trkpt>
      <trkpt lat="50.62332" lon="5.44763">
        <ele>191</ele>
        <time>2022-03-29T18:06:43Z</time>
      </trkpt>
      <trkpt lat="50.6235" lon="5.44606">
        <ele>189</ele>
        <time>2022-03-29T18:07:02Z</time>
      </trkpt>
      <trkpt lat="50.62352" lon="5.44522">
        <ele>187</ele>
        <time>2022-03-29T18:07:11Z</time>
      </trkpt>
      <trkpt lat="50.62349" lon="5.4445">
        <ele>185</ele>
        <time>2022-03-29T18:07:19Z</time>
      </trkpt>
      <trkpt lat="50.62346" lon="5.44414">
        <ele>185</ele>
        <time>2022-03-29T18:07:23Z</time>
      </trkpt>
      <trkpt lat="50.62335" lon="5.44334">
        <ele>186</ele>
        <time>2022-03-29T18:07:33Z</time>
      </trkpt>
      <trkpt lat="50.62324" lon="5.44274">
        <ele>187</ele>
        <time>2022-03-29T18:07:40Z</time>
      </trkpt>
      <trkpt lat="50.62302" lon="5.44188">
        <ele>186</ele>
        <time>2022-03-29T18:07:50Z</time>
      </trkpt>
      <trkpt lat="50.62303" lon="5.44148">
        <ele>185</ele>
        <time>2022-03-29T18:07:55Z</time>
      </trkpt>
      <trkpt lat="50.6231" lon="5.44117">
        <ele>185</ele>
        <time>2022-03-29T18:07:58Z</time>
      </trkpt>
      <trkpt lat="50.62367" lon="5.44011">
        <ele>186</ele>
        <time>2022-03-29T18:08:14Z</time>
      </trkpt>
      <trkpt lat="50.62371" lon="5.43982">
        <ele>186</ele>
        <time>2022-03-29T18:08:17Z</time>
      </trkpt>
      <trkpt lat="50.62329" lon="5.4378">
        <ele>183</ele>
        <time>2022-03-29T18:08:41Z</time>
      </trkpt>
      <trkpt lat="50.62272" lon="5.43624">
        <ele>186</ele>
        <time>2022-03-29T18:09:02Z</time>
      </trkpt>
      <trkpt lat="50.62248" lon="5.43568">
        <ele>188</ele>
        <time>2022-03-29T18:09:09Z</time>
      </trkpt>
      <trkpt lat="50.62229" lon="5.4351">
        <ele>190.7</ele>
      </trkpt>
      <trkpt lat="50.62232" lon="5.43498">
        <ele>190</ele>
        <time>2022-03-29T18:09:19Z</time>
      </trkpt>
      <trkpt lat="50.62232" lon="5.43483">
        <ele>190</ele>
        <time>2022-03-29T18:09:20Z</time>
      </trkpt>
      <trkpt lat="50.62228" lon="5.43473">
        <ele>190</ele>
        <time>2022-03-29T18:09:22Z</time>
      </trkpt>
      <trkpt lat="50.6222" lon="5.43468">
        <ele>190</ele>
        <time>2022-03-29T18:09:23Z</time>
      </trkpt>
      <trkpt lat="50.6221" lon="5.43471">
        <ele>189</ele>
        <time>2022-03-29T18:09:25Z</time>
      </trkpt>
      <trkpt lat="50.62149" lon="5.43305">
        <ele>193</ele>
        <time>2022-03-29T18:09:47Z</time>
      </trkpt>
      <trkpt lat="50.62063" lon="5.43209">
        <ele>191</ele>
        <time>2022-03-29T18:10:05Z</time>
      </trkpt>
      <trkpt lat="50.62029" lon="5.43179">
        <ele>191</ele>
        <time>2022-03-29T18:10:12Z</time>
      </trkpt>
      <trkpt lat="50.61987" lon="5.43155">
        <ele>191</ele>
        <time>2022-03-29T18:10:20Z</time>
      </trkpt>
      <trkpt lat="50.61955" lon="5.43128">
        <ele>190</ele>
        <time>2022-03-29T18:10:27Z</time>
      </trkpt>
      <trkpt lat="50.61897" lon="5.43038">
        <ele>190</ele>
        <time>2022-03-29T18:10:41Z</time>
      </trkpt>
      <trkpt lat="50.61862" lon="5.4299">
        <ele>193.2</ele>
      </trkpt>
      <trkpt lat="50.61837" lon="5.42956">
        <ele>191</ele>
        <time>2022-03-29T18:10:55Z</time>
      </trkpt>
      <trkpt lat="50.61812" lon="5.42935">
        <ele>190</ele>
        <time>2022-03-29T18:11:00Z</time>
      </trkpt>
      <trkpt lat="50.61788" lon="5.42912">
        <ele>188</ele>
        <time>2022-03-29T18:11:05Z</time>
      </trkpt>
      <trkpt lat="50.61772" lon="5.42889">
        <ele>186</ele>
        <time>2022-03-29T18:11:09Z</time>
      </trkpt>
      <trkpt lat="50.61766" lon="5.42872">
        <ele>186</ele>
        <time>2022-03-29T18:11:11Z</time>
      </trkpt>
      <trkpt lat="50.61767" lon="5.42855">
        <ele>186</ele>
        <time>2022-03-29T18:11:13Z</time>
      </trkpt>
      <trkpt lat="50.61772" lon="5.42833">
        <ele>186</ele>
        <time>2022-03-29T18:11:16Z</time>
      </trkpt>
      <trkpt lat="50.61793" lon="5.4278">
        <ele>185</ele>
        <time>2022-03-29T18:11:23Z</time>
      </trkpt>
      <trkpt lat="50.618" lon="5.42753">
        <ele>184</ele>
        <time>2022-03-29T18:11:26Z</time>
      </trkpt>
      <trkpt lat="50.61808" lon="5.42719">
        <ele>185</ele>
        <time>2022-03-29T18:11:30Z</time>
      </trkpt>
      <trkpt lat="50.61817" lon="5.42669">
        <ele>188</ele>
        <time>2022-03-29T18:11:36Z</time>
      </trkpt>
      <trkpt lat="50.61817" lon="5.4263">
        <ele>189</ele>
        <time>2022-03-29T18:11:41Z</time>
      </trkpt>
      <trkpt lat="50.61807" lon="5.42567">
        <ele>190</ele>
        <time>2022-03-29T18:11:48Z</time>
      </trkpt>
      <trkpt lat="50.61806" lon="5.42541">
        <ele>190</ele>
        <time>2022-03-29T18:11:51Z</time>
      </trkpt>
      <trkpt lat="50.6181" lon="5.42505">
        <ele>191</ele>
        <time>2022-03-29T18:11:55Z</time>
      </trkpt>
      <trkpt lat="50.61814" lon="5.42486">
        <ele>191</ele>
        <time>2022-03-29T18:11:57Z</time>
      </trkpt>
      <trkpt lat="50.61826" lon="5.42449">
        <ele>191</ele>
        <time>2022-03-29T18:12:02Z</time>
      </trkpt>
      <trkpt lat="50.619" lon="5.42279">
        <ele>188</ele>
        <time>2022-03-29T18:12:25Z</time>
      </trkpt>
      <trkpt lat="50.61904" lon="5.42248">
        <ele>189</ele>
        <time>2022-03-29T18:12:29Z</time>
      </trkpt>
      <trkpt lat="50.61901" lon="5.42134">
        <ele>186</ele>
        <time>2022-03-29T18:12:42Z</time>
      </trkpt>
      <trkpt lat="50.61893" lon="5.4203">
        <ele>186</ele>
        <time>2022-03-29T18:12:54Z</time>
      </trkpt>
      <trkpt lat="50.61889" lon="5.4196">
        <ele>186</ele>
        <time>2022-03-29T18:13:02Z</time>
      </trkpt>
      <trkpt lat="50.6189" lon="5.41902">
        <ele>187</ele>
        <time>2022-03-29T18:13:08Z</time>
      </trkpt>
      <trkpt lat="50.61898" lon="5.41811">
        <ele>187</ele>
        <time>2022-03-29T18:13:18Z</time>
      </trkpt>
      <trkpt lat="50.619" lon="5.41765">
        <ele>187</ele>
        <time>2022-03-29T18:13:24Z</time>
      </trkpt>
      <trkpt lat="50.61906" lon="5.41725">
        <ele>187</ele>
        <time>2022-03-29T18:13:28Z</time>
      </trkpt>
      <trkpt lat="50.61921" lon="5.41687">
        <ele>187</ele>
        <time>2022-03-29T18:13:33Z</time>
      </trkpt>
      <trkpt lat="50.62023" lon="5.41551">
        <ele>186</ele>
      </trkpt>
      <trkpt lat="50.61916" lon="5.4123">
        <ele>183</ele>
      </trkpt>
      <trkpt lat="50.62061" lon="5.41142">
        <ele>181.8</ele>
      </trkpt>
      <trkpt lat="50.62219" lon="5.41087">
        <ele>178.1</ele>
      </trkpt>
      <trkpt lat="50.62304" lon="5.41186">
        <ele>177</ele>
      </trkpt>
      <trkpt lat="50.62828" lon="5.40516">
        <ele>156</ele>
      </trkpt>
      <trkpt lat="50.63494" lon="5.39601">
        <ele>165</ele>
        <time>2022-03-29T18:23:10Z</time>
      </trkpt>
      <trkpt lat="50.63505" lon="5.3961">
        <ele>166</ele>
        <time>2022-03-29T18:23:12Z</time>
      </trkpt>
      <trkpt lat="50.63504" lon="5.39619">
        <ele>166</ele>
        <time>2022-03-29T18:23:13Z</time>
      </trkpt>
      <trkpt lat="50.63506" lon="5.39626">
        <ele>166</ele>
        <time>2022-03-29T18:23:14Z</time>
      </trkpt>
      <trkpt lat="50.63518" lon="5.39631">
        <ele>166</ele>
        <time>2022-03-29T18:23:16Z</time>
      </trkpt>
      <trkpt lat="50.63524" lon="5.39621">
        <ele>166</ele>
        <time>2022-03-29T18:23:18Z</time>
      </trkpt>
      <trkpt lat="50.63523" lon="5.39606">
        <ele>165</ele>
        <time>2022-03-29T18:23:19Z</time>
      </trkpt>
      <trkpt lat="50.63519" lon="5.39602">
        <ele>165</ele>
        <time>2022-03-29T18:23:20Z</time>
      </trkpt>
      <trkpt lat="50.63514" lon="5.39601">
        <ele>165</ele>
        <time>2022-03-29T18:23:21Z</time>
      </trkpt>
      <trkpt lat="50.63514" lon="5.39576">
        <ele>165</ele>
        <time>2022-03-29T18:23:24Z</time>
      </trkpt>
      <trkpt lat="50.63484" lon="5.39224">
        <ele>161</ele>
        <time>2022-03-29T18:24:04Z</time>
      </trkpt>
      <trkpt lat="50.63417" lon="5.38371">
        <ele>165</ele>
        <time>2022-03-29T18:25:41Z</time>
      </trkpt>
      <trkpt lat="50.63414" lon="5.38313">
        <ele>165</ele>
        <time>2022-03-29T18:25:48Z</time>
      </trkpt>
      <trkpt lat="50.63399" lon="5.38138">
        <ele>167</ele>
        <time>2022-03-29T18:26:07Z</time>
      </trkpt>
      <trkpt lat="50.63354" lon="5.37528">
        <ele>175</ele>
        <time>2022-03-29T18:27:17Z</time>
      </trkpt>
      <trkpt lat="50.63294" lon="5.36781">
        <ele>176</ele>
        <time>2022-03-29T18:28:42Z</time>
      </trkpt>
      <trkpt lat="50.63293" lon="5.36337">
        <ele>179</ele>
        <time>2022-03-29T18:29:32Z</time>
      </trkpt>
      <trkpt lat="50.63262" lon="5.36073">
        <ele>178</ele>
        <time>2022-03-29T18:30:02Z</time>
      </trkpt>
      <trkpt lat="50.63262" lon="5.36037">
        <ele>178</ele>
        <time>2022-03-29T18:30:06Z</time>
      </trkpt>
      <trkpt lat="50.63315" lon="5.35519">
        <ele>172</ele>
        <time>2022-03-29T18:31:05Z</time>
      </trkpt>
      <trkpt lat="50.63322" lon="5.35415">
        <ele>170</ele>
        <time>2022-03-29T18:31:17Z</time>
      </trkpt>
      <trkpt lat="50.6333" lon="5.3515">
        <ele>173</ele>
        <time>2022-03-29T18:31:47Z</time>
      </trkpt>
      <trkpt lat="50.63344" lon="5.34947">
        <ele>175</ele>
        <time>2022-03-29T18:32:10Z</time>
      </trkpt>
      <trkpt lat="50.63355" lon="5.34836">
        <ele>177</ele>
        <time>2022-03-29T18:32:23Z</time>
      </trkpt>
      <trkpt lat="50.63422" lon="5.34459">
        <ele>172</ele>
        <time>2022-03-29T18:33:07Z</time>
      </trkpt>
      <trkpt lat="50.63479" lon="5.34128">
        <ele>175</ele>
        <time>2022-03-29T18:33:46Z</time>
      </trkpt>
      <trkpt lat="50.63484" lon="5.3372">
        <ele>172</ele>
        <time>2022-03-29T18:34:32Z</time>
      </trkpt>
      <trkpt lat="50.6349" lon="5.33625">
        <ele>171</ele>
        <time>2022-03-29T18:34:43Z</time>
      </trkpt>
      <trkpt lat="50.63493" lon="5.33602">
        <ele>171</ele>
        <time>2022-03-29T18:34:45Z</time>
      </trkpt>
      <trkpt lat="50.63315" lon="5.33561">
        <ele>171</ele>
        <time>2022-03-29T18:35:17Z</time>
      </trkpt>
      <trkpt lat="50.63236" lon="5.33539">
        <ele>171</ele>
        <time>2022-03-29T18:35:32Z</time>
      </trkpt>
      <trkpt lat="50.63155" lon="5.33514">
        <ele>171</ele>
        <time>2022-03-29T18:35:46Z</time>
      </trkpt>
      <trkpt lat="50.63141" lon="5.33507">
        <ele>171</ele>
        <time>2022-03-29T18:35:49Z</time>
      </trkpt>
      <trkpt lat="50.63125" lon="5.33493">
        <ele>171</ele>
        <time>2022-03-29T18:35:52Z</time>
      </trkpt>
      <trkpt lat="50.63111" lon="5.33475">
        <ele>170</ele>
        <time>2022-03-29T18:35:55Z</time>
      </trkpt>
      <trkpt lat="50.63088" lon="5.33429">
        <ele>169</ele>
        <time>2022-03-29T18:36:02Z</time>
      </trkpt>
      <trkpt lat="50.63079" lon="5.33378">
        <ele>169</ele>
        <time>2022-03-29T18:36:08Z</time>
      </trkpt>
      <trkpt lat="50.63062" lon="5.33308">
        <ele>168</ele>
        <time>2022-03-29T18:36:16Z</time>
      </trkpt>
      <trkpt lat="50.63056" lon="5.33269">
        <ele>168</ele>
        <time>2022-03-29T18:36:21Z</time>
      </trkpt>
      <trkpt lat="50.63036" lon="5.33117">
        <ele>164</ele>
        <time>2022-03-29T18:36:38Z</time>
      </trkpt>
      <trkpt lat="50.63029" lon="5.32994">
        <ele>159</ele>
        <time>2022-03-29T18:36:52Z</time>
      </trkpt>
      <trkpt lat="50.63022" lon="5.3297">
        <ele>158</ele>
        <time>2022-03-29T18:36:55Z</time>
      </trkpt>
      <trkpt lat="50.63014" lon="5.32954">
        <ele>157</ele>
        <time>2022-03-29T18:36:58Z</time>
      </trkpt>
      <trkpt lat="50.62989" lon="5.32915">
        <ele>154</ele>
        <time>2022-03-29T18:37:04Z</time>
      </trkpt>
      <trkpt lat="50.6298" lon="5.32901">
        <ele>154</ele>
        <time>2022-03-29T18:37:06Z</time>
      </trkpt>
      <trkpt lat="50.62913" lon="5.32744">
        <ele>150</ele>
        <time>2022-03-29T18:37:27Z</time>
      </trkpt>
      <trkpt lat="50.62906" lon="5.32695">
        <ele>149</ele>
        <time>2022-03-29T18:37:33Z</time>
      </trkpt>
      <trkpt lat="50.629" lon="5.32611">
        <ele>149</ele>
        <time>2022-03-29T18:37:43Z</time>
      </trkpt>
      <trkpt lat="50.62894" lon="5.32579">
        <ele>150</ele>
        <time>2022-03-29T18:37:46Z</time>
      </trkpt>
      <trkpt lat="50.62879" lon="5.32546">
        <ele>150</ele>
        <time>2022-03-29T18:37:51Z</time>
      </trkpt>
      <trkpt lat="50.62831" lon="5.32455">
        <ele>150</ele>
        <time>2022-03-29T18:38:04Z</time>
      </trkpt>
      <trkpt lat="50.62808" lon="5.3242">
        <ele>150</ele>
        <time>2022-03-29T18:38:10Z</time>
      </trkpt>
      <trkpt lat="50.62773" lon="5.3238">
        <ele>151</ele>
        <time>2022-03-29T18:38:18Z</time>
      </trkpt>
      <trkpt lat="50.62762" lon="5.32366">
        <ele>152</ele>
        <time>2022-03-29T18:38:20Z</time>
      </trkpt>
      <trkpt lat="50.62756" lon="5.32349">
        <ele>152</ele>
        <time>2022-03-29T18:38:22Z</time>
      </trkpt>
      <trkpt lat="50.62754" lon="5.3233">
        <ele>152</ele>
        <time>2022-03-29T18:38:25Z</time>
      </trkpt>
      <trkpt lat="50.62754" lon="5.32217">
        <ele>150</ele>
        <time>2022-03-29T18:38:37Z</time>
      </trkpt>
      <trkpt lat="50.62756" lon="5.3221">
        <ele>150</ele>
        <time>2022-03-29T18:38:38Z</time>
      </trkpt>
      <trkpt lat="50.62771" lon="5.32184">
        <ele>150</ele>
        <time>2022-03-29T18:38:42Z</time>
      </trkpt>
      <trkpt lat="50.62773" lon="5.32175">
        <ele>150</ele>
        <time>2022-03-29T18:38:43Z</time>
      </trkpt>
      <trkpt lat="50.62773" lon="5.32163">
        <ele>151</ele>
        <time>2022-03-29T18:38:45Z</time>
      </trkpt>
      <trkpt lat="50.62768" lon="5.32149">
        <ele>151</ele>
        <time>2022-03-29T18:38:47Z</time>
      </trkpt>
      <trkpt lat="50.6275" lon="5.3211">
        <ele>151</ele>
        <time>2022-03-29T18:38:52Z</time>
      </trkpt>
      <trkpt lat="50.62748" lon="5.32097">
        <ele>151</ele>
        <time>2022-03-29T18:38:53Z</time>
      </trkpt>
      <trkpt lat="50.6275" lon="5.32082">
        <ele>151</ele>
        <time>2022-03-29T18:38:55Z</time>
      </trkpt>
      <trkpt lat="50.6276" lon="5.32061">
        <ele>152</ele>
        <time>2022-03-29T18:38:58Z</time>
      </trkpt>
      <trkpt lat="50.62774" lon="5.32045">
        <ele>152</ele>
        <time>2022-03-29T18:39:01Z</time>
      </trkpt>
      <trkpt lat="50.62737" lon="5.31962">
        <ele>153</ele>
        <time>2022-03-29T18:39:13Z</time>
      </trkpt>
      <trkpt lat="50.62618" lon="5.31662">
        <ele>154</ele>
        <time>2022-03-29T18:39:53Z</time>
      </trkpt>
      <trkpt lat="50.62597" lon="5.31595">
        <ele>153</ele>
        <time>2022-03-29T18:40:01Z</time>
      </trkpt>
      <trkpt lat="50.62594" lon="5.31545">
        <ele>153</ele>
        <time>2022-03-29T18:40:07Z</time>
      </trkpt>
      <trkpt lat="50.62603" lon="5.31455">
        <ele>153</ele>
        <time>2022-03-29T18:40:17Z</time>
      </trkpt>
      <trkpt lat="50.62598" lon="5.31453">
        <ele>153</ele>
        <time>2022-03-29T18:40:18Z</time>
      </trkpt>
      <trkpt lat="50.62592" lon="5.31451">
        <ele>153</ele>
        <time>2022-03-29T18:40:19Z</time>
      </trkpt>
      <trkpt lat="50.6253" lon="5.31421">
        <ele>153</ele>
        <time>2022-03-29T18:40:31Z</time>
      </trkpt>
      <trkpt lat="50.62519" lon="5.31412">
        <ele>153</ele>
        <time>2022-03-29T18:40:33Z</time>
      </trkpt>
      <trkpt lat="50.61893" lon="5.30458">
        <ele>167</ele>
        <time>2022-03-29T18:43:08Z</time>
      </trkpt>
      <trkpt lat="50.61831" lon="5.30386">
        <ele>168</ele>
        <time>2022-03-29T18:43:21Z</time>
      </trkpt>
      <trkpt lat="50.61809" lon="5.30333">
        <ele>167</ele>
        <time>2022-03-29T18:43:29Z</time>
      </trkpt>
      <trkpt lat="50.61681" lon="5.30433">
        <ele>171</ele>
        <time>2022-03-29T18:43:54Z</time>
      </trkpt>
      <trkpt lat="50.61651" lon="5.30363">
        <ele>170</ele>
        <time>2022-03-29T18:44:03Z</time>
      </trkpt>
      <trkpt lat="50.6163" lon="5.30318">
        <ele>169</ele>
        <time>2022-03-29T18:44:10Z</time>
      </trkpt>
      <trkpt lat="50.61606" lon="5.30272">
        <ele>169</ele>
        <time>2022-03-29T18:44:17Z</time>
      </trkpt>
      <trkpt lat="50.61586" lon="5.30248">
        <ele>169</ele>
        <time>2022-03-29T18:44:21Z</time>
      </trkpt>
      <trkpt lat="50.61569" lon="5.30238">
        <ele>169</ele>
        <time>2022-03-29T18:44:24Z</time>
      </trkpt>
      <trkpt lat="50.61551" lon="5.30237">
        <ele>169</ele>
        <time>2022-03-29T18:44:27Z</time>
      </trkpt>
      <trkpt lat="50.61458" lon="5.30267">
        <ele>170</ele>
        <time>2022-03-29T18:44:44Z</time>
      </trkpt>
      <trkpt lat="50.61431" lon="5.30266">
        <ele>170</ele>
        <time>2022-03-29T18:44:49Z</time>
      </trkpt>
      <trkpt lat="50.61409" lon="5.30257">
        <ele>170</ele>
        <time>2022-03-29T18:44:53Z</time>
      </trkpt>
      <trkpt lat="50.61334" lon="5.30236">
        <ele>170</ele>
        <time>2022-03-29T18:45:07Z</time>
      </trkpt>
      <trkpt lat="50.61294" lon="5.30239">
        <ele>171</ele>
        <time>2022-03-29T18:45:14Z</time>
      </trkpt>
      <trkpt lat="50.61237" lon="5.30265">
        <ele>171</ele>
        <time>2022-03-29T18:45:24Z</time>
      </trkpt>
      <trkpt lat="50.61153" lon="5.30308">
        <ele>172</ele>
        <time>2022-03-29T18:45:40Z</time>
      </trkpt>
      <trkpt lat="50.61073" lon="5.30361">
        <ele>174</ele>
        <time>2022-03-29T18:45:56Z</time>
      </trkpt>
      <trkpt lat="50.61063" lon="5.30365">
        <ele>174</ele>
        <time>2022-03-29T18:45:57Z</time>
      </trkpt>
      <trkpt lat="50.60868" lon="5.3038">
        <ele>177</ele>
        <time>2022-03-29T18:46:32Z</time>
      </trkpt>
      <trkpt lat="50.60793" lon="5.30392">
        <ele>178</ele>
        <time>2022-03-29T18:46:46Z</time>
      </trkpt>
      <trkpt lat="50.60734" lon="5.30398">
        <ele>179</ele>
        <time>2022-03-29T18:46:56Z</time>
      </trkpt>
      <trkpt lat="50.60713" lon="5.30406">
        <ele>179</ele>
        <time>2022-03-29T18:47:00Z</time>
      </trkpt>
      <trkpt lat="50.60694" lon="5.30421">
        <ele>179</ele>
        <time>2022-03-29T18:47:04Z</time>
      </trkpt>
      <trkpt lat="50.60663" lon="5.30453">
        <ele>180</ele>
        <time>2022-03-29T18:47:10Z</time>
      </trkpt>
      <trkpt lat="50.6065" lon="5.30473">
        <ele>181</ele>
        <time>2022-03-29T18:47:14Z</time>
      </trkpt>
      <trkpt lat="50.60625" lon="5.30532">
        <ele>181</ele>
        <time>2022-03-29T18:47:22Z</time>
      </trkpt>
      <trkpt lat="50.60506" lon="5.30771">
        <ele>182</ele>
        <time>2022-03-29T18:47:56Z</time>
      </trkpt>
      <trkpt lat="50.60462" lon="5.30885">
        <ele>181</ele>
        <time>2022-03-29T18:48:11Z</time>
      </trkpt>
      <trkpt lat="50.60399" lon="5.31054">
        <ele>178</ele>
        <time>2022-03-29T18:48:33Z</time>
      </trkpt>
      <trkpt lat="50.60387" lon="5.3108">
        <ele>177</ele>
        <time>2022-03-29T18:48:37Z</time>
      </trkpt>
      <trkpt lat="50.60353" lon="5.31129">
        <ele>176</ele>
        <time>2022-03-29T18:48:45Z</time>
      </trkpt>
      <trkpt lat="50.6032" lon="5.31186">
        <ele>176</ele>
        <time>2022-03-29T18:48:54Z</time>
      </trkpt>
      <trkpt lat="50.60302" lon="5.31222">
        <ele>175</ele>
        <time>2022-03-29T18:48:59Z</time>
      </trkpt>
      <trkpt lat="50.60291" lon="5.31261">
        <ele>175</ele>
        <time>2022-03-29T18:49:04Z</time>
      </trkpt>
      <trkpt lat="50.60277" lon="5.31334">
        <ele>174</ele>
        <time>2022-03-29T18:49:12Z</time>
      </trkpt>
      <trkpt lat="50.60269" lon="5.31411">
        <ele>174</ele>
        <time>2022-03-29T18:49:21Z</time>
      </trkpt>
      <trkpt lat="50.60263" lon="5.31451">
        <ele>175</ele>
        <time>2022-03-29T18:49:26Z</time>
      </trkpt>
      <trkpt lat="50.60174" lon="5.31701">
        <ele>175</ele>
        <time>2022-03-29T18:49:58Z</time>
      </trkpt>
      <trkpt lat="50.6016" lon="5.31677">
        <ele>176</ele>
        <time>2022-03-29T18:50:02Z</time>
      </trkpt>
      <trkpt lat="50.60092" lon="5.31544">
        <ele>178</ele>
        <time>2022-03-29T18:50:21Z</time>
      </trkpt>
      <trkpt lat="50.5983" lon="5.30964">
        <ele>183</ele>
        <time>2022-03-29T18:51:41Z</time>
      </trkpt>
      <trkpt lat="50.59813" lon="5.30925">
        <ele>184</ele>
        <time>2022-03-29T18:51:47Z</time>
      </trkpt>
      <trkpt lat="50.59797" lon="5.30882">
        <ele>184</ele>
        <time>2022-03-29T18:51:52Z</time>
      </trkpt>
      <trkpt lat="50.59769" lon="5.30725">
        <ele>183</ele>
        <time>2022-03-29T18:52:11Z</time>
      </trkpt>
      <trkpt lat="50.59758" lon="5.30685">
        <ele>183</ele>
        <time>2022-03-29T18:52:16Z</time>
      </trkpt>
      <trkpt lat="50.59667" lon="5.3044">
        <ele>188</ele>
        <time>2022-03-29T18:52:48Z</time>
      </trkpt>
      <trkpt lat="50.59633" lon="5.30377">
        <ele>187</ele>
        <time>2022-03-29T18:52:57Z</time>
      </trkpt>
      <trkpt lat="50.59507" lon="5.30154">
        <ele>185</ele>
        <time>2022-03-29T18:53:31Z</time>
      </trkpt>
      <trkpt lat="50.59468" lon="5.30078">
        <ele>185</ele>
        <time>2022-03-29T18:53:42Z</time>
      </trkpt>
      <trkpt lat="50.59433" lon="5.30001">
        <ele>186</ele>
        <time>2022-03-29T18:53:53Z</time>
      </trkpt>
      <trkpt lat="50.59405" lon="5.29949">
        <ele>185</ele>
        <time>2022-03-29T18:54:00Z</time>
      </trkpt>
      <trkpt lat="50.59376" lon="5.29906">
        <ele>185</ele>
        <time>2022-03-29T18:54:07Z</time>
      </trkpt>
      <trkpt lat="50.59363" lon="5.2989">
        <ele>185</ele>
        <time>2022-03-29T18:54:10Z</time>
      </trkpt>
      <trkpt lat="50.59337" lon="5.29869">
        <ele>185</ele>
        <time>2022-03-29T18:54:15Z</time>
      </trkpt>
      <trkpt lat="50.59321" lon="5.29864">
        <ele>185</ele>
        <time>2022-03-29T18:54:18Z</time>
      </trkpt>
      <trkpt lat="50.59299" lon="5.2986">
        <ele>185</ele>
        <time>2022-03-29T18:54:22Z</time>
      </trkpt>
      <trkpt lat="50.59269" lon="5.29867">
        <ele>186</ele>
        <time>2022-03-29T18:54:28Z</time>
      </trkpt>
      <trkpt lat="50.59194" lon="5.2988">
        <ele>189</ele>
        <time>2022-03-29T18:54:41Z</time>
      </trkpt>
      <trkpt lat="50.59181" lon="5.2988">
        <ele>190</ele>
        <time>2022-03-29T18:54:43Z</time>
      </trkpt>
      <trkpt lat="50.59168" lon="5.29876">
        <ele>190</ele>
        <time>2022-03-29T18:54:46Z</time>
      </trkpt>
      <trkpt lat="50.59157" lon="5.29865">
        <ele>190</ele>
        <time>2022-03-29T18:54:48Z</time>
      </trkpt>
      <trkpt lat="50.59148" lon="5.29849">
        <ele>189</ele>
        <time>2022-03-29T18:54:51Z</time>
      </trkpt>
      <trkpt lat="50.59143" lon="5.29822">
        <ele>189</ele>
        <time>2022-03-29T18:54:54Z</time>
      </trkpt>
      <trkpt lat="50.59126" lon="5.2955">
        <ele>183</ele>
        <time>2022-03-29T18:55:25Z</time>
      </trkpt>
      <trkpt lat="50.5912" lon="5.29502">
        <ele>182</ele>
        <time>2022-03-29T18:55:30Z</time>
      </trkpt>
      <trkpt lat="50.59113" lon="5.29466">
        <ele>182</ele>
        <time>2022-03-29T18:55:34Z</time>
      </trkpt>
      <trkpt lat="50.59103" lon="5.29436">
        <ele>181</ele>
        <time>2022-03-29T18:55:38Z</time>
      </trkpt>
      <trkpt lat="50.59069" lon="5.29353">
        <ele>180</ele>
        <time>2022-03-29T18:55:49Z</time>
      </trkpt>
      <trkpt lat="50.59003" lon="5.29202">
        <ele>179</ele>
        <time>2022-03-29T18:56:10Z</time>
      </trkpt>
      <trkpt lat="50.58933" lon="5.29058">
        <ele>180</ele>
        <time>2022-03-29T18:56:31Z</time>
      </trkpt>
      <trkpt lat="50.58884" lon="5.2894">
        <ele>179</ele>
        <time>2022-03-29T18:56:46Z</time>
      </trkpt>
      <trkpt lat="50.58874" lon="5.28911">
        <ele>178</ele>
        <time>2022-03-29T18:56:50Z</time>
      </trkpt>
      <trkpt lat="50.58806" lon="5.28748">
        <ele>178</ele>
        <time>2022-03-29T18:57:12Z</time>
      </trkpt>
      <trkpt lat="50.58785" lon="5.28705">
        <ele>179</ele>
        <time>2022-03-29T18:57:18Z</time>
      </trkpt>
      <trkpt lat="50.58708" lon="5.28581">
        <ele>178</ele>
        <time>2022-03-29T18:57:38Z</time>
      </trkpt>
      <trkpt lat="50.58623" lon="5.28496">
        <ele>177</ele>
        <time>2022-03-29T18:57:56Z</time>
      </trkpt>
      <trkpt lat="50.58602" lon="5.28469">
        <ele>177</ele>
        <time>2022-03-29T18:58:01Z</time>
      </trkpt>
      <trkpt lat="50.58576" lon="5.2843">
        <ele>176</ele>
        <time>2022-03-29T18:58:07Z</time>
      </trkpt>
      <trkpt lat="50.5854" lon="5.28349">
        <ele>173</ele>
        <time>2022-03-29T18:58:18Z</time>
      </trkpt>
      <trkpt lat="50.58529" lon="5.28327">
        <ele>173</ele>
        <time>2022-03-29T18:58:21Z</time>
      </trkpt>
      <trkpt lat="50.58496" lon="5.2829">
        <ele>172</ele>
        <time>2022-03-29T18:58:29Z</time>
      </trkpt>
      <trkpt lat="50.58468" lon="5.28256">
        <ele>173</ele>
        <time>2022-03-29T18:58:35Z</time>
      </trkpt>
      <trkpt lat="50.58424" lon="5.28146">
        <ele>175</ele>
        <time>2022-03-29T18:58:50Z</time>
      </trkpt>
      <trkpt lat="50.58372" lon="5.28031">
        <ele>179</ele>
        <time>2022-03-29T18:59:06Z</time>
      </trkpt>
      <trkpt lat="50.58317" lon="5.27926">
        <ele>181</ele>
        <time>2022-03-29T18:59:21Z</time>
      </trkpt>
      <trkpt lat="50.58303" lon="5.27883">
        <ele>182</ele>
        <time>2022-03-29T18:59:26Z</time>
      </trkpt>
      <trkpt lat="50.58292" lon="5.27836">
        <ele>183</ele>
        <time>2022-03-29T18:59:32Z</time>
      </trkpt>
      <trkpt lat="50.5828" lon="5.27691">
        <ele>186</ele>
        <time>2022-03-29T18:59:49Z</time>
      </trkpt>
      <trkpt lat="50.58273" lon="5.27651">
        <ele>187</ele>
        <time>2022-03-29T18:59:53Z</time>
      </trkpt>
      <trkpt lat="50.58221" lon="5.275">
        <ele>189</ele>
        <time>2022-03-29T19:00:13Z</time>
      </trkpt>
      <trkpt lat="50.58206" lon="5.27451">
        <ele>189</ele>
        <time>2022-03-29T19:00:19Z</time>
      </trkpt>
      <trkpt lat="50.58147" lon="5.27228">
        <ele>192</ele>
        <time>2022-03-29T19:00:46Z</time>
      </trkpt>
      <trkpt lat="50.58094" lon="5.2705">
        <ele>193</ele>
        <time>2022-03-29T19:01:08Z</time>
      </trkpt>
      <trkpt lat="50.58092" lon="5.2704">
        <ele>193</ele>
        <time>2022-03-29T19:01:09Z</time>
      </trkpt>
      <trkpt lat="50.58086" lon="5.2703">
        <ele>193</ele>
        <time>2022-03-29T19:01:11Z</time>
      </trkpt>
      <trkpt lat="50.58081" lon="5.27028">
        <ele>193</ele>
        <time>2022-03-29T19:01:12Z</time>
      </trkpt>
      <trkpt lat="50.58076" lon="5.2703">
        <ele>193</ele>
        <time>2022-03-29T19:01:13Z</time>
      </trkpt>
      <trkpt lat="50.58054" lon="5.27005">
        <ele>194</ele>
        <time>2022-03-29T19:01:18Z</time>
      </trkpt>
      <trkpt lat="50.5799" lon="5.26895">
        <ele>194</ele>
        <time>2022-03-29T19:01:35Z</time>
      </trkpt>
      <trkpt lat="50.57871" lon="5.26609">
        <ele>196</ele>
        <time>2022-03-29T19:02:13Z</time>
      </trkpt>
      <trkpt lat="50.57798" lon="5.26389">
        <ele>196</ele>
        <time>2022-03-29T19:02:41Z</time>
      </trkpt>
      <trkpt lat="50.5776" lon="5.26301">
        <ele>197</ele>
        <time>2022-03-29T19:02:53Z</time>
      </trkpt>
      <trkpt lat="50.57727" lon="5.26231">
        <ele>196</ele>
        <time>2022-03-29T19:03:03Z</time>
      </trkpt>
      <trkpt lat="50.57682" lon="5.26145">
        <ele>196</ele>
        <time>2022-03-29T19:03:16Z</time>
      </trkpt>
      <trkpt lat="50.57675" lon="5.26138">
        <ele>196</ele>
        <time>2022-03-29T19:03:17Z</time>
      </trkpt>
      <trkpt lat="50.57626" lon="5.26033">
        <ele>195</ele>
        <time>2022-03-29T19:03:32Z</time>
      </trkpt>
      <trkpt lat="50.57525" lon="5.26125">
        <ele>194</ele>
        <time>2022-03-29T19:03:53Z</time>
      </trkpt>
      <trkpt lat="50.57439" lon="5.26211">
        <ele>192</ele>
        <time>2022-03-29T19:04:11Z</time>
      </trkpt>
      <trkpt lat="50.57336" lon="5.26308">
        <ele>192</ele>
        <time>2022-03-29T19:04:32Z</time>
      </trkpt>
      <trkpt lat="50.57272" lon="5.26363">
        <ele>196</ele>
        <time>2022-03-29T19:04:45Z</time>
      </trkpt>
      <trkpt lat="50.57171" lon="5.26459">
        <ele>195</ele>
        <time>2022-03-29T19:05:06Z</time>
      </trkpt>
      <trkpt lat="50.57022" lon="5.26594">
        <ele>195</ele>
        <time>2022-03-29T19:05:37Z</time>
      </trkpt>
      <trkpt lat="50.5701" lon="5.26608">
        <ele>195</ele>
        <time>2022-03-29T19:05:39Z</time>
      </trkpt>
      <trkpt lat="50.56996" lon="5.26628">
        <ele>195</ele>
        <time>2022-03-29T19:05:43Z</time>
      </trkpt>
      <trkpt lat="50.56973" lon="5.26674">
        <ele>194</ele>
        <time>2022-03-29T19:05:49Z</time>
      </trkpt>
      <trkpt lat="50.56876" lon="5.26833">
        <ele>191</ele>
        <time>2022-03-29T19:06:14Z</time>
      </trkpt>
      <trkpt lat="50.56753" lon="5.27046">
        <ele>191</ele>
        <time>2022-03-29T19:06:47Z</time>
      </trkpt>
      <trkpt lat="50.56741" lon="5.27056">
        <ele>191</ele>
        <time>2022-03-29T19:06:49Z</time>
      </trkpt>
      <trkpt lat="50.5673" lon="5.27058">
        <ele>190</ele>
        <time>2022-03-29T19:06:51Z</time>
      </trkpt>
      <trkpt lat="50.56702" lon="5.27054">
        <ele>190</ele>
        <time>2022-03-29T19:06:56Z</time>
      </trkpt>
      <trkpt lat="50.56636" lon="5.27032">
        <ele>190</ele>
        <time>2022-03-29T19:07:08Z</time>
      </trkpt>
      <trkpt lat="50.56606" lon="5.27018">
        <ele>190</ele>
        <time>2022-03-29T19:07:14Z</time>
      </trkpt>
      <trkpt lat="50.56595" lon="5.27006">
        <ele>190</ele>
        <time>2022-03-29T19:07:16Z</time>
      </trkpt>
      <trkpt lat="50.56566" lon="5.26963">
        <ele>192</ele>
        <time>2022-03-29T19:07:23Z</time>
      </trkpt>
      <trkpt lat="50.56535" lon="5.2691">
        <ele>194</ele>
        <time>2022-03-29T19:07:31Z</time>
      </trkpt>
      <trkpt lat="50.5652" lon="5.26893">
        <ele>194</ele>
        <time>2022-03-29T19:07:35Z</time>
      </trkpt>
      <trkpt lat="50.56444" lon="5.26827">
        <ele>196</ele>
        <time>2022-03-29T19:07:50Z</time>
      </trkpt>
      <trkpt lat="50.56362" lon="5.26772">
        <ele>198</ele>
        <time>2022-03-29T19:08:06Z</time>
      </trkpt>
      <trkpt lat="50.56345" lon="5.26762">
        <ele>199</ele>
        <time>2022-03-29T19:08:09Z</time>
      </trkpt>
      <trkpt lat="50.56224" lon="5.26724">
        <ele>201</ele>
        <time>2022-03-29T19:08:31Z</time>
      </trkpt>
      <trkpt lat="50.56203" lon="5.2672">
        <ele>201</ele>
        <time>2022-03-29T19:08:35Z</time>
      </trkpt>
      <trkpt lat="50.56183" lon="5.26718">
        <ele>201</ele>
        <time>2022-03-29T19:08:38Z</time>
      </trkpt>
      <trkpt lat="50.56097" lon="5.26719">
        <ele>201</ele>
        <time>2022-03-29T19:08:54Z</time>
      </trkpt>
      <trkpt lat="50.56073" lon="5.26714">
        <ele>201</ele>
        <time>2022-03-29T19:08:58Z</time>
      </trkpt>
      <trkpt lat="50.56052" lon="5.26705">
        <ele>201</ele>
        <time>2022-03-29T19:09:02Z</time>
      </trkpt>
      <trkpt lat="50.55938" lon="5.26644">
        <ele>199</ele>
        <time>2022-03-29T19:09:23Z</time>
      </trkpt>
      <trkpt lat="50.55877" lon="5.26614">
        <ele>198</ele>
        <time>2022-03-29T19:09:35Z</time>
      </trkpt>
      <trkpt lat="50.55812" lon="5.26594">
        <ele>196</ele>
        <time>2022-03-29T19:09:47Z</time>
      </trkpt>
      <trkpt lat="50.55756" lon="5.26585">
        <ele>194</ele>
        <time>2022-03-29T19:09:57Z</time>
      </trkpt>
      <trkpt lat="50.55702" lon="5.26586">
        <ele>193</ele>
        <time>2022-03-29T19:10:06Z</time>
      </trkpt>
      <trkpt lat="50.55684" lon="5.26583">
        <ele>193</ele>
        <time>2022-03-29T19:10:09Z</time>
      </trkpt>
      <trkpt lat="50.55469" lon="5.26512">
        <ele>188</ele>
        <time>2022-03-29T19:10:48Z</time>
      </trkpt>
      <trkpt lat="50.55363" lon="5.26481">
        <ele>184</ele>
        <time>2022-03-29T19:11:08Z</time>
      </trkpt>
      <trkpt lat="50.55324" lon="5.26465">
        <ele>184</ele>
        <time>2022-03-29T19:11:15Z</time>
      </trkpt>
      <trkpt lat="50.55269" lon="5.2643">
        <ele>184</ele>
        <time>2022-03-29T19:11:25Z</time>
      </trkpt>
      <trkpt lat="50.55206" lon="5.26391">
        <ele>185</ele>
        <time>2022-03-29T19:11:37Z</time>
      </trkpt>
      <trkpt lat="50.55167" lon="5.26373">
        <ele>185</ele>
        <time>2022-03-29T19:11:45Z</time>
      </trkpt>
      <trkpt lat="50.54924" lon="5.26339">
        <ele>181</ele>
        <time>2022-03-29T19:12:28Z</time>
      </trkpt>
      <trkpt lat="50.54876" lon="5.26329">
        <ele>180</ele>
        <time>2022-03-29T19:12:37Z</time>
      </trkpt>
      <trkpt lat="50.54842" lon="5.26309">
        <ele>180</ele>
        <time>2022-03-29T19:12:43Z</time>
      </trkpt>
      <trkpt lat="50.54705" lon="5.26158">
        <ele>177</ele>
        <time>2022-03-29T19:13:13Z</time>
      </trkpt>
      <trkpt lat="50.54709" lon="5.26146">
        <ele>177</ele>
        <time>2022-03-29T19:13:14Z</time>
      </trkpt>
      <trkpt lat="50.54784" lon="5.26062">
        <ele>173</ele>
        <time>2022-03-29T19:13:31Z</time>
      </trkpt>
      <trkpt lat="50.54797" lon="5.26043">
        <ele>172</ele>
        <time>2022-03-29T19:13:34Z</time>
      </trkpt>
      <trkpt lat="50.54799" lon="5.26037">
        <ele>171</ele>
        <time>2022-03-29T19:13:35Z</time>
      </trkpt>
      <trkpt lat="50.54799" lon="5.26023">
        <ele>171</ele>
        <time>2022-03-29T19:13:36Z</time>
      </trkpt>
      <trkpt lat="50.54788" lon="5.25979">
        <ele>169</ele>
        <time>2022-03-29T19:13:42Z</time>
      </trkpt>
      <trkpt lat="50.54748" lon="5.25861">
        <ele>162</ele>
        <time>2022-03-29T19:13:57Z</time>
      </trkpt>
      <trkpt lat="50.54682" lon="5.25726">
        <ele>152</ele>
        <time>2022-03-29T19:14:16Z</time>
      </trkpt>
      <trkpt lat="50.54579" lon="5.25471">
        <ele>135</ele>
        <time>2022-03-29T19:14:50Z</time>
      </trkpt>
      <trkpt lat="50.54548" lon="5.25387">
        <ele>132</ele>
        <time>2022-03-29T19:15:01Z</time>
      </trkpt>
      <trkpt lat="50.54498" lon="5.25221">
        <ele>121</ele>
        <time>2022-03-29T19:15:22Z</time>
      </trkpt>
      <trkpt lat="50.54493" lon="5.25185">
        <ele>119</ele>
        <time>2022-03-29T19:15:26Z</time>
      </trkpt>
      <trkpt lat="50.54491" lon="5.25159">
        <ele>118</ele>
        <time>2022-03-29T19:15:29Z</time>
      </trkpt>
      <trkpt lat="50.54493" lon="5.25128">
        <ele>116</ele>
        <time>2022-03-29T19:15:33Z</time>
      </trkpt>
      <trkpt lat="50.54498" lon="5.25107">
        <ele>115</ele>
        <time>2022-03-29T19:15:35Z</time>
      </trkpt>
      <trkpt lat="50.54508" lon="5.25092">
        <ele>115</ele>
        <time>2022-03-29T19:15:38Z</time>
      </trkpt>
      <trkpt lat="50.54514" lon="5.25076">
        <ele>115</ele>
        <time>2022-03-29T19:15:40Z</time>
      </trkpt>
      <trkpt lat="50.54516" lon="5.25065">
        <ele>114</ele>
        <time>2022-03-29T19:15:41Z</time>
      </trkpt>
      <trkpt lat="50.54516" lon="5.25015">
        <ele>113</ele>
        <time>2022-03-29T19:15:47Z</time>
      </trkpt>
      <trkpt lat="50.54511" lon="5.24934">
        <ele>110</ele>
        <time>2022-03-29T19:15:56Z</time>
      </trkpt>
      <trkpt lat="50.54508" lon="5.24843">
        <ele>105</ele>
        <time>2022-03-29T19:16:06Z</time>
      </trkpt>
      <trkpt lat="50.54511" lon="5.24762">
        <ele>104</ele>
        <time>2022-03-29T19:16:15Z</time>
      </trkpt>
      <trkpt lat="50.54519" lon="5.24668">
        <ele>102</ele>
        <time>2022-03-29T19:16:26Z</time>
      </trkpt>
      <trkpt lat="50.54519" lon="5.24616">
        <ele>102</ele>
        <time>2022-03-29T19:16:32Z</time>
      </trkpt>
      <trkpt lat="50.54512" lon="5.24575">
        <ele>101</ele>
        <time>2022-03-29T19:16:37Z</time>
      </trkpt>
      <trkpt lat="50.5449" lon="5.24489">
        <ele>100</ele>
        <time>2022-03-29T19:16:47Z</time>
      </trkpt>
      <trkpt lat="50.54494" lon="5.24461">
        <ele>100</ele>
        <time>2022-03-29T19:16:50Z</time>
      </trkpt>
      <trkpt lat="50.54506" lon="5.24422">
        <ele>100</ele>
        <time>2022-03-29T19:16:55Z</time>
      </trkpt>
      <trkpt lat="50.54501" lon="5.24406">
        <ele>100</ele>
        <time>2022-03-29T19:16:57Z</time>
      </trkpt>
      <trkpt lat="50.54495" lon="5.24281">
        <ele>98</ele>
        <time>2022-03-29T19:17:12Z</time>
      </trkpt>
      <trkpt lat="50.54504" lon="5.24222">
        <ele>99</ele>
        <time>2022-03-29T19:17:18Z</time>
      </trkpt>
      <trkpt lat="50.54592" lon="5.23789">
        <ele>97</ele>
        <time>2022-03-29T19:18:10Z</time>
      </trkpt>
      <trkpt lat="50.54612" lon="5.23681">
        <ele>98</ele>
        <time>2022-03-29T19:18:23Z</time>
      </trkpt>
      <trkpt lat="50.54614" lon="5.23654">
        <ele>98</ele>
        <time>2022-03-29T19:18:26Z</time>
      </trkpt>
      <trkpt lat="50.54565" lon="5.23658">
        <ele>98</ele>
        <time>2022-03-29T19:18:34Z</time>
      </trkpt>
      <trkpt lat="50.5451" lon="5.23653">
        <ele>98</ele>
        <time>2022-03-29T19:18:44Z</time>
      </trkpt>
      <trkpt lat="50.54439" lon="5.23638">
        <ele>99</ele>
        <time>2022-03-29T19:18:57Z</time>
      </trkpt>
      <trkpt lat="50.54283" lon="5.23821">
        <ele>93</ele>
        <time>2022-03-29T19:19:31Z</time>
      </trkpt>
      <trkpt lat="50.54231" lon="5.23879">
        <ele>91</ele>
        <time>2022-03-29T19:19:43Z</time>
      </trkpt>
      <trkpt lat="50.53948" lon="5.24057">
        <ele>85</ele>
        <time>2022-03-29T19:20:37Z</time>
      </trkpt>
      <trkpt lat="50.53938" lon="5.24062">
        <ele>85</ele>
        <time>2022-03-29T19:20:39Z</time>
      </trkpt>
      <trkpt lat="50.53931" lon="5.24061">
        <ele>85</ele>
        <time>2022-03-29T19:20:40Z</time>
      </trkpt>
      <trkpt lat="50.53927" lon="5.24054">
        <ele>85</ele>
        <time>2022-03-29T19:20:41Z</time>
      </trkpt>
      <trkpt lat="50.53921" lon="5.24042">
        <ele>85</ele>
        <time>2022-03-29T19:20:43Z</time>
      </trkpt>
      <trkpt lat="50.53892" lon="5.23917">
        <ele>85</ele>
        <time>2022-03-29T19:20:58Z</time>
      </trkpt>
      <trkpt lat="50.53867" lon="5.23794">
        <ele>85</ele>
        <time>2022-03-29T19:21:13Z</time>
      </trkpt>
      <trkpt lat="50.53829" lon="5.23635">
        <ele>83</ele>
        <time>2022-03-29T19:21:32Z</time>
      </trkpt>
      <trkpt lat="50.53773" lon="5.23461">
        <ele>86</ele>
        <time>2022-03-29T19:21:54Z</time>
      </trkpt>
      <trkpt lat="50.53737" lon="5.23339">
        <ele>86</ele>
        <time>2022-03-29T19:22:09Z</time>
      </trkpt>
      <trkpt lat="50.53723" lon="5.23202">
        <ele>87</ele>
        <time>2022-03-29T19:22:25Z</time>
      </trkpt>
      <trkpt lat="50.53696" lon="5.23097">
        <ele>85</ele>
        <time>2022-03-29T19:22:38Z</time>
      </trkpt>
      <trkpt lat="50.53685" lon="5.23025">
        <ele>84</ele>
        <time>2022-03-29T19:22:46Z</time>
      </trkpt>
      <trkpt lat="50.53685" lon="5.22996">
        <ele>84</ele>
        <time>2022-03-29T19:22:49Z</time>
      </trkpt>
      <trkpt lat="50.53693" lon="5.22928">
        <ele>84</ele>
        <time>2022-03-29T19:22:57Z</time>
      </trkpt>
      <trkpt lat="50.53694" lon="5.22898">
        <ele>84</ele>
        <time>2022-03-29T19:23:00Z</time>
      </trkpt>
      <trkpt lat="50.53691" lon="5.22873">
        <ele>84</ele>
        <time>2022-03-29T19:23:03Z</time>
      </trkpt>
      <trkpt lat="50.53651" lon="5.22768">
        <ele>82</ele>
        <time>2022-03-29T19:23:17Z</time>
      </trkpt>
      <trkpt lat="50.53627" lon="5.22683">
        <ele>81</ele>
        <time>2022-03-29T19:23:28Z</time>
      </trkpt>
      <trkpt lat="50.53607" lon="5.22592">
        <ele>80</ele>
        <time>2022-03-29T19:23:39Z</time>
      </trkpt>
      <trkpt lat="50.5354" lon="5.22347">
        <ele>73</ele>
        <time>2022-03-29T19:24:09Z</time>
      </trkpt>
      <trkpt lat="50.53538" lon="5.22312">
        <ele>73</ele>
        <time>2022-03-29T19:24:13Z</time>
      </trkpt>
      <trkpt lat="50.53542" lon="5.22307">
        <ele>73</ele>
        <time>2022-03-29T19:24:14Z</time>
      </trkpt>
      <trkpt lat="50.53542" lon="5.22302">
        <ele>73</ele>
        <time>2022-03-29T19:24:14Z</time>
      </trkpt>
      <trkpt lat="50.53541" lon="5.22297">
        <ele>73</ele>
        <time>2022-03-29T19:24:15Z</time>
      </trkpt>
      <trkpt lat="50.53538" lon="5.22295">
        <ele>73</ele>
        <time>2022-03-29T19:24:15Z</time>
      </trkpt>
      <trkpt lat="50.53537" lon="5.22255">
        <ele>74</ele>
        <time>2022-03-29T19:24:20Z</time>
      </trkpt>
      <trkpt lat="50.5353" lon="5.22193">
        <ele>74</ele>
        <time>2022-03-29T19:24:27Z</time>
      </trkpt>
      <trkpt lat="50.53514" lon="5.22093">
        <ele>74</ele>
        <time>2022-03-29T19:24:39Z</time>
      </trkpt>
      <trkpt lat="50.53503" lon="5.22001">
        <ele>72</ele>
        <time>2022-03-29T19:24:49Z</time>
      </trkpt>
      <trkpt lat="50.53503" lon="5.2198">
        <ele>72</ele>
        <time>2022-03-29T19:24:52Z</time>
      </trkpt>
      <trkpt lat="50.53464" lon="5.21969">
        <ele>71</ele>
        <time>2022-03-29T19:24:59Z</time>
      </trkpt>
      <trkpt lat="50.53507" lon="5.21823">
        <ele>71</ele>
        <time>2022-03-29T19:25:17Z</time>
      </trkpt>
      <trkpt lat="50.53512" lon="5.21808">
        <ele>72</ele>
        <time>2022-03-29T19:25:19Z</time>
      </trkpt>
      <trkpt lat="50.53573" lon="5.21619">
        <ele>72</ele>
        <time>2022-03-29T19:25:43Z</time>
      </trkpt>
      <trkpt lat="50.53585" lon="5.2159">
        <ele>72</ele>
        <time>2022-03-29T19:25:47Z</time>
      </trkpt>
      <trkpt lat="50.536" lon="5.21565">
        <ele>72</ele>
        <time>2022-03-29T19:25:51Z</time>
      </trkpt>
      <trkpt lat="50.53618" lon="5.21544">
        <ele>73</ele>
        <time>2022-03-29T19:25:55Z</time>
      </trkpt>
      <trkpt lat="50.53699" lon="5.21474">
        <ele>75</ele>
        <time>2022-03-29T19:26:11Z</time>
      </trkpt>
      <trkpt lat="50.53758" lon="5.21416">
        <ele>75</ele>
        <time>2022-03-29T19:26:23Z</time>
      </trkpt>
      <trkpt lat="50.53778" lon="5.21383">
        <ele>75</ele>
        <time>2022-03-29T19:26:29Z</time>
      </trkpt>
      <trkpt lat="50.53792" lon="5.21349">
        <ele>76</ele>
        <time>2022-03-29T19:26:33Z</time>
      </trkpt>
      <trkpt lat="50.53883" lon="5.21102">
        <ele>84</ele>
        <time>2022-03-29T19:27:05Z</time>
      </trkpt>
      <trkpt lat="50.53905" lon="5.21032">
        <ele>87</ele>
        <time>2022-03-29T19:27:14Z</time>
      </trkpt>
      <trkpt lat="50.54024" lon="5.21042">
        <ele>91</ele>
        <time>2022-03-29T19:27:35Z</time>
      </trkpt>
      <trkpt lat="50.54046" lon="5.21042">
        <ele>92</ele>
        <time>2022-03-29T19:27:39Z</time>
      </trkpt>
      <trkpt lat="50.54064" lon="5.21037">
        <ele>93</ele>
        <time>2022-03-29T19:27:43Z</time>
      </trkpt>
      <trkpt lat="50.54075" lon="5.21023">
        <ele>94</ele>
        <time>2022-03-29T19:27:45Z</time>
      </trkpt>
      <trkpt lat="50.5409" lon="5.20969">
        <ele>98</ele>
        <time>2022-03-29T19:27:52Z</time>
      </trkpt>
      <trkpt lat="50.5408" lon="5.20938">
        <ele>99</ele>
        <time>2022-03-29T19:27:56Z</time>
      </trkpt>
      <trkpt lat="50.5407" lon="5.20878">
        <ele>101</ele>
        <time>2022-03-29T19:28:03Z</time>
      </trkpt>
      <trkpt lat="50.54067" lon="5.20808">
        <ele>104</ele>
        <time>2022-03-29T19:28:11Z</time>
      </trkpt>
      <trkpt lat="50.54069" lon="5.20743">
        <ele>107</ele>
        <time>2022-03-29T19:28:18Z</time>
      </trkpt>
      <trkpt lat="50.54072" lon="5.20677">
        <ele>107</ele>
        <time>2022-03-29T19:28:26Z</time>
      </trkpt>
      <trkpt lat="50.54074" lon="5.20649">
        <ele>108</ele>
        <time>2022-03-29T19:28:29Z</time>
      </trkpt>
      <trkpt lat="50.54074" lon="5.2058">
        <ele>112</ele>
        <time>2022-03-29T19:28:37Z</time>
      </trkpt>
      <trkpt lat="50.54069" lon="5.20494">
        <ele>116</ele>
        <time>2022-03-29T19:28:46Z</time>
      </trkpt>
      <trkpt lat="50.5406" lon="5.2041">
        <ele>115</ele>
        <time>2022-03-29T19:28:56Z</time>
      </trkpt>
      <trkpt lat="50.54053" lon="5.20374">
        <ele>115</ele>
        <time>2022-03-29T19:29:00Z</time>
      </trkpt>
      <trkpt lat="50.54016" lon="5.20287">
        <ele>118</ele>
        <time>2022-03-29T19:29:12Z</time>
      </trkpt>
      <trkpt lat="50.54051" lon="5.20226">
        <ele>119</ele>
        <time>2022-03-29T19:29:21Z</time>
      </trkpt>
      <trkpt lat="50.54115" lon="5.20134">
        <ele>118</ele>
        <time>2022-03-29T19:29:37Z</time>
      </trkpt>
      <trkpt lat="50.54184" lon="5.20056">
        <ele>121</ele>
        <time>2022-03-29T19:29:52Z</time>
      </trkpt>
      <trkpt lat="50.5429" lon="5.19908">
        <ele>123</ele>
        <time>2022-03-29T19:30:17Z</time>
      </trkpt>
      <trkpt lat="50.54309" lon="5.19873">
        <ele>124</ele>
        <time>2022-03-29T19:30:22Z</time>
      </trkpt>
      <trkpt lat="50.54298" lon="5.19865">
        <ele>123</ele>
        <time>2022-03-29T19:30:24Z</time>
      </trkpt>
      <trkpt lat="50.54268" lon="5.19837">
        <ele>123</ele>
        <time>2022-03-29T19:30:31Z</time>
      </trkpt>
      <trkpt lat="50.54237" lon="5.19801">
        <ele>123</ele>
        <time>2022-03-29T19:30:37Z</time>
      </trkpt>
      <trkpt lat="50.54158" lon="5.19698">
        <ele>123</ele>
        <time>2022-03-29T19:30:56Z</time>
      </trkpt>
      <trkpt lat="50.54091" lon="5.19586">
        <ele>122</ele>
        <time>2022-03-29T19:31:13Z</time>
      </trkpt>
      <trkpt lat="50.54042" lon="5.19492">
        <ele>122</ele>
        <time>2022-03-29T19:31:27Z</time>
      </trkpt>
      <trkpt lat="50.54002" lon="5.19394">
        <ele>123</ele>
        <time>2022-03-29T19:31:40Z</time>
      </trkpt>
      <trkpt lat="50.53995" lon="5.19383">
        <ele>123</ele>
        <time>2022-03-29T19:31:42Z</time>
      </trkpt>
      <trkpt lat="50.53977" lon="5.19367">
        <ele>124</ele>
        <time>2022-03-29T19:31:45Z</time>
      </trkpt>
      <trkpt lat="50.53957" lon="5.19357">
        <ele>124</ele>
        <time>2022-03-29T19:31:49Z</time>
      </trkpt>
      <trkpt lat="50.53948" lon="5.19357">
        <ele>124</ele>
        <time>2022-03-29T19:31:51Z</time>
      </trkpt>
      <trkpt lat="50.54004" lon="5.1901">
        <ele>125</ele>
        <time>2022-03-29T19:32:31Z</time>
      </trkpt>
      <trkpt lat="50.54039" lon="5.18777">
        <ele>128</ele>
        <time>2022-03-29T19:32:58Z</time>
      </trkpt>
      <trkpt lat="50.5406" lon="5.18649">
        <ele>128</ele>
        <time>2022-03-29T19:33:13Z</time>
      </trkpt>
      <trkpt lat="50.54086" lon="5.18651">
        <ele>128</ele>
        <time>2022-03-29T19:33:18Z</time>
      </trkpt>
      <trkpt lat="50.54473" lon="5.18536">
        <ele>121</ele>
        <time>2022-03-29T19:34:28Z</time>
      </trkpt>
      <trkpt lat="50.54499" lon="5.18531">
        <ele>120</ele>
        <time>2022-03-29T19:34:33Z</time>
      </trkpt>
      <trkpt lat="50.54548" lon="5.18536">
        <ele>118</ele>
        <time>2022-03-29T19:34:41Z</time>
      </trkpt>
      <trkpt lat="50.5457" lon="5.18528">
        <ele>118</ele>
        <time>2022-03-29T19:34:45Z</time>
      </trkpt>
      <trkpt lat="50.54637" lon="5.18494">
        <ele>116</ele>
        <time>2022-03-29T19:34:58Z</time>
      </trkpt>
      <trkpt lat="50.5464" lon="5.18459">
        <ele>116</ele>
        <time>2022-03-29T19:35:02Z</time>
      </trkpt>
      <trkpt lat="50.54646" lon="5.18445">
        <ele>116</ele>
        <time>2022-03-29T19:35:04Z</time>
      </trkpt>
      <trkpt lat="50.54673" lon="5.18356">
        <ele>116</ele>
        <time>2022-03-29T19:35:15Z</time>
      </trkpt>
      <trkpt lat="50.54677" lon="5.18336">
        <ele>116</ele>
        <time>2022-03-29T19:35:17Z</time>
      </trkpt>
      <trkpt lat="50.54678" lon="5.1832">
        <ele>116</ele>
        <time>2022-03-29T19:35:19Z</time>
      </trkpt>
      <trkpt lat="50.54669" lon="5.18272">
        <ele>117</ele>
        <time>2022-03-29T19:35:25Z</time>
      </trkpt>
      <trkpt lat="50.54644" lon="5.18187">
        <ele>119</ele>
        <time>2022-03-29T19:35:35Z</time>
      </trkpt>
      <trkpt lat="50.54575" lon="5.18003">
        <ele>120</ele>
        <time>2022-03-29T19:36:00Z</time>
      </trkpt>
      <trkpt lat="50.54558" lon="5.17961">
        <ele>121</ele>
        <time>2022-03-29T19:36:05Z</time>
      </trkpt>
      <trkpt lat="50.54522" lon="5.17884">
        <ele>121</ele>
        <time>2022-03-29T19:36:16Z</time>
      </trkpt>
      <trkpt lat="50.54489" lon="5.1782">
        <ele>122</ele>
        <time>2022-03-29T19:36:25Z</time>
      </trkpt>
      <trkpt lat="50.54461" lon="5.17746">
        <ele>123</ele>
        <time>2022-03-29T19:36:35Z</time>
      </trkpt>
      <trkpt lat="50.54445" lon="5.1769">
        <ele>125</ele>
        <time>2022-03-29T19:36:42Z</time>
      </trkpt>
      <trkpt lat="50.54428" lon="5.17614">
        <ele>125</ele>
        <time>2022-03-29T19:36:51Z</time>
      </trkpt>
      <trkpt lat="50.54416" lon="5.17544">
        <ele>124</ele>
        <time>2022-03-29T19:36:59Z</time>
      </trkpt>
      <trkpt lat="50.54396" lon="5.1747">
        <ele>122</ele>
        <time>2022-03-29T19:37:08Z</time>
      </trkpt>
      <trkpt lat="50.54381" lon="5.1744">
        <ele>122</ele>
        <time>2022-03-29T19:37:13Z</time>
      </trkpt>
      <trkpt lat="50.54347" lon="5.17394">
        <ele>122</ele>
        <time>2022-03-29T19:37:21Z</time>
      </trkpt>
      <trkpt lat="50.54381" lon="5.17268">
        <ele>119</ele>
        <time>2022-03-29T19:37:36Z</time>
      </trkpt>
      <trkpt lat="50.54421" lon="5.17105">
        <ele>122</ele>
        <time>2022-03-29T19:37:56Z</time>
      </trkpt>
      <trkpt lat="50.54435" lon="5.17054">
        <ele>122</ele>
        <time>2022-03-29T19:38:02Z</time>
      </trkpt>
      <trkpt lat="50.54452" lon="5.17016">
        <ele>121</ele>
        <time>2022-03-29T19:38:08Z</time>
      </trkpt>
      <trkpt lat="50.54471" lon="5.16986">
        <ele>120</ele>
        <time>2022-03-29T19:38:12Z</time>
      </trkpt>
      <trkpt lat="50.54548" lon="5.16891">
        <ele>122</ele>
        <time>2022-03-29T19:38:30Z</time>
      </trkpt>
      <trkpt lat="50.54483" lon="5.16752">
        <ele>122</ele>
        <time>2022-03-29T19:38:49Z</time>
      </trkpt>
      <trkpt lat="50.54455" lon="5.16662">
        <ele>124</ele>
        <time>2022-03-29T19:39:01Z</time>
      </trkpt>
      <trkpt lat="50.54436" lon="5.16618">
        <ele>124</ele>
        <time>2022-03-29T19:39:07Z</time>
      </trkpt>
      <trkpt lat="50.544" lon="5.16546">
        <ele>126</ele>
        <time>2022-03-29T19:39:17Z</time>
      </trkpt>
      <trkpt lat="50.54257" lon="5.16274">
        <ele>128</ele>
        <time>2022-03-29T19:39:57Z</time>
      </trkpt>
      <trkpt lat="50.54228" lon="5.16227">
        <ele>129</ele>
        <time>2022-03-29T19:40:04Z</time>
      </trkpt>
      <trkpt lat="50.54199" lon="5.16184">
        <ele>129</ele>
        <time>2022-03-29T19:40:11Z</time>
      </trkpt>
      <trkpt lat="50.54038" lon="5.15994">
        <ele>135</ele>
        <time>2022-03-29T19:40:47Z</time>
      </trkpt>
      <trkpt lat="50.5406" lon="5.15806">
        <ele>135</ele>
        <time>2022-03-29T19:41:09Z</time>
      </trkpt>
      <trkpt lat="50.54127" lon="5.15193">
        <ele>130</ele>
        <time>2022-03-29T19:42:19Z</time>
      </trkpt>
      <trkpt lat="50.54141" lon="5.15129">
        <ele>129</ele>
        <time>2022-03-29T19:42:27Z</time>
      </trkpt>
      <trkpt lat="50.5416" lon="5.15077">
        <ele>128</ele>
        <time>2022-03-29T19:42:34Z</time>
      </trkpt>
      <trkpt lat="50.54254" lon="5.14887">
        <ele>127</ele>
        <time>2022-03-29T19:43:01Z</time>
      </trkpt>
      <trkpt lat="50.5428" lon="5.14831">
        <ele>127</ele>
        <time>2022-03-29T19:43:09Z</time>
      </trkpt>
      <trkpt lat="50.54165" lon="5.1466">
        <ele>131</ele>
        <time>2022-03-29T19:43:37Z</time>
      </trkpt>
      <trkpt lat="50.53547" lon="5.13713">
        <ele>147</ele>
        <time>2022-03-29T19:46:10Z</time>
      </trkpt>
      <trkpt lat="50.53542" lon="5.137">
        <ele>148</ele>
        <time>2022-03-29T19:46:12Z</time>
      </trkpt>
      <trkpt lat="50.53503" lon="5.13552">
        <ele>151</ele>
        <time>2022-03-29T19:46:30Z</time>
      </trkpt>
      <trkpt lat="50.53464" lon="5.13413">
        <ele>153</ele>
        <time>2022-03-29T19:46:47Z</time>
      </trkpt>
      <trkpt lat="50.53444" lon="5.13347">
        <ele>154</ele>
        <time>2022-03-29T19:46:56Z</time>
      </trkpt>
      <trkpt lat="50.53418" lon="5.13272">
        <ele>155</ele>
        <time>2022-03-29T19:47:05Z</time>
      </trkpt>
      <trkpt lat="50.53399" lon="5.13228">
        <ele>156</ele>
        <time>2022-03-29T19:47:11Z</time>
      </trkpt>
      <trkpt lat="50.5336" lon="5.13157">
        <ele>157</ele>
        <time>2022-03-29T19:47:22Z</time>
      </trkpt>
      <trkpt lat="50.53308" lon="5.13094">
        <ele>157</ele>
        <time>2022-03-29T19:47:34Z</time>
      </trkpt>
      <trkpt lat="50.53278" lon="5.13001">
        <ele>159</ele>
        <time>2022-03-29T19:47:45Z</time>
      </trkpt>
      <trkpt lat="50.5326" lon="5.12958">
        <ele>159</ele>
        <time>2022-03-29T19:47:51Z</time>
      </trkpt>
      <trkpt lat="50.53218" lon="5.1287">
        <ele>161</ele>
        <time>2022-03-29T19:48:04Z</time>
      </trkpt>
      <trkpt lat="50.53191" lon="5.12822">
        <ele>163</ele>
        <time>2022-03-29T19:48:11Z</time>
      </trkpt>
      <trkpt lat="50.53094" lon="5.12694">
        <ele>168</ele>
        <time>2022-03-29T19:48:33Z</time>
      </trkpt>
      <trkpt lat="50.53084" lon="5.12673">
        <ele>168</ele>
        <time>2022-03-29T19:48:36Z</time>
      </trkpt>
      <trkpt lat="50.53075" lon="5.12648">
        <ele>169</ele>
        <time>2022-03-29T19:48:40Z</time>
      </trkpt>
      <trkpt lat="50.53034" lon="5.1251">
        <ele>170</ele>
        <time>2022-03-29T19:48:57Z</time>
      </trkpt>
      <trkpt lat="50.53092" lon="5.12398">
        <ele>170</ele>
        <time>2022-03-29T19:49:13Z</time>
      </trkpt>
      <trkpt lat="50.53106" lon="5.1236">
        <ele>170</ele>
        <time>2022-03-29T19:49:18Z</time>
      </trkpt>
      <trkpt lat="50.53076" lon="5.12297">
        <ele>168</ele>
        <time>2022-03-29T19:49:27Z</time>
      </trkpt>
      <trkpt lat="50.53049" lon="5.1225">
        <ele>166</ele>
        <time>2022-03-29T19:49:34Z</time>
      </trkpt>
      <trkpt lat="50.53035" lon="5.12215">
        <ele>165</ele>
        <time>2022-03-29T19:49:39Z</time>
      </trkpt>
      <trkpt lat="50.53005" lon="5.12152">
        <ele>163</ele>
        <time>2022-03-29T19:49:48Z</time>
      </trkpt>
      <trkpt lat="50.5299" lon="5.12114">
        <ele>162</ele>
        <time>2022-03-29T19:49:53Z</time>
      </trkpt>
      <trkpt lat="50.52884" lon="5.11805">
        <ele>162</ele>
        <time>2022-03-29T19:50:33Z</time>
      </trkpt>
      <trkpt lat="50.52841" lon="5.11795">
        <ele>162</ele>
        <time>2022-03-29T19:50:40Z</time>
      </trkpt>
      <trkpt lat="50.52828" lon="5.11787">
        <ele>163</ele>
        <time>2022-03-29T19:50:43Z</time>
      </trkpt>
      <trkpt lat="50.52817" lon="5.11775">
        <ele>163</ele>
        <time>2022-03-29T19:50:45Z</time>
      </trkpt>
      <trkpt lat="50.52632" lon="5.11551">
        <ele>171</ele>
        <time>2022-03-29T19:51:27Z</time>
      </trkpt>
      <trkpt lat="50.52578" lon="5.11489">
        <ele>173</ele>
        <time>2022-03-29T19:51:39Z</time>
      </trkpt>
      <trkpt lat="50.52539" lon="5.1144">
        <ele>175</ele>
        <time>2022-03-29T19:51:47Z</time>
      </trkpt>
      <trkpt lat="50.5253" lon="5.11424">
        <ele>176</ele>
        <time>2022-03-29T19:51:50Z</time>
      </trkpt>
      <trkpt lat="50.52509" lon="5.11381">
        <ele>178</ele>
        <time>2022-03-29T19:51:56Z</time>
      </trkpt>
      <trkpt lat="50.5249" lon="5.11338">
        <ele>179</ele>
        <time>2022-03-29T19:52:02Z</time>
      </trkpt>
      <trkpt lat="50.52473" lon="5.11274">
        <ele>181</ele>
        <time>2022-03-29T19:52:10Z</time>
      </trkpt>
      <trkpt lat="50.52455" lon="5.11219">
        <ele>182</ele>
        <time>2022-03-29T19:52:17Z</time>
      </trkpt>
      <trkpt lat="50.52416" lon="5.11146">
        <ele>182</ele>
        <time>2022-03-29T19:52:28Z</time>
      </trkpt>
      <trkpt lat="50.52364" lon="5.11001">
        <ele>178</ele>
        <time>2022-03-29T19:52:46Z</time>
      </trkpt>
      <trkpt lat="50.52331" lon="5.109">
        <ele>176</ele>
        <time>2022-03-29T19:52:59Z</time>
      </trkpt>
      <trkpt lat="50.52066" lon="5.10163">
        <ele>167</ele>
        <time>2022-03-29T19:54:35Z</time>
      </trkpt>
      <trkpt lat="50.52051" lon="5.10113">
        <ele>166</ele>
        <time>2022-03-29T19:54:41Z</time>
      </trkpt>
      <trkpt lat="50.52033" lon="5.1003">
        <ele>164</ele>
        <time>2022-03-29T19:54:51Z</time>
      </trkpt>
      <trkpt lat="50.52046" lon="5.09996">
        <ele>165</ele>
        <time>2022-03-29T19:54:56Z</time>
      </trkpt>
      <trkpt lat="50.52063" lon="5.09971">
        <ele>166</ele>
        <time>2022-03-29T19:55:00Z</time>
      </trkpt>
      <trkpt lat="50.52082" lon="5.0995">
        <ele>167</ele>
        <time>2022-03-29T19:55:04Z</time>
      </trkpt>
      <trkpt lat="50.521" lon="5.09938">
        <ele>169</ele>
        <time>2022-03-29T19:55:07Z</time>
      </trkpt>
      <trkpt lat="50.5216" lon="5.09905">
        <ele>175</ele>
        <time>2022-03-29T19:55:19Z</time>
      </trkpt>
      <trkpt lat="50.52201" lon="5.09873">
        <ele>179</ele>
        <time>2022-03-29T19:55:27Z</time>
      </trkpt>
      <trkpt lat="50.5222" lon="5.09855">
        <ele>180</ele>
        <time>2022-03-29T19:55:31Z</time>
      </trkpt>
      <trkpt lat="50.52183" lon="5.09604">
        <ele>180</ele>
        <time>2022-03-29T19:56:00Z</time>
      </trkpt>
      <trkpt lat="50.52132" lon="5.09095">
        <ele>174</ele>
        <time>2022-03-29T19:56:58Z</time>
      </trkpt>
      <trkpt lat="50.52072" lon="5.08817">
        <ele>173</ele>
        <time>2022-03-29T19:57:31Z</time>
      </trkpt>
      <trkpt lat="50.51993" lon="5.08465">
        <ele>165</ele>
        <time>2022-03-29T19:58:14Z</time>
      </trkpt>
      <trkpt lat="50.51994" lon="5.08427">
        <ele>166</ele>
        <time>2022-03-29T19:58:18Z</time>
      </trkpt>
      <trkpt lat="50.51992" lon="5.08399">
        <ele>164</ele>
        <time>2022-03-29T19:58:21Z</time>
      </trkpt>
      <trkpt lat="50.51988" lon="5.08381">
        <ele>163</ele>
        <time>2022-03-29T19:58:23Z</time>
      </trkpt>
      <trkpt lat="50.51954" lon="5.08283">
        <ele>155</ele>
        <time>2022-03-29T19:58:36Z</time>
      </trkpt>
      <trkpt lat="50.51912" lon="5.08186">
        <ele>149</ele>
        <time>2022-03-29T19:58:49Z</time>
      </trkpt>
      <trkpt lat="50.51907" lon="5.08171">
        <ele>147</ele>
        <time>2022-03-29T19:58:51Z</time>
      </trkpt>
      <trkpt lat="50.51906" lon="5.08156">
        <ele>147</ele>
        <time>2022-03-29T19:58:53Z</time>
      </trkpt>
      <trkpt lat="50.51907" lon="5.08124">
        <ele>145</ele>
        <time>2022-03-29T19:58:57Z</time>
      </trkpt>
      <trkpt lat="50.51903" lon="5.08109">
        <ele>144</ele>
        <time>2022-03-29T19:58:58Z</time>
      </trkpt>
      <trkpt lat="50.51833" lon="5.08159">
        <ele>140</ele>
        <time>2022-03-29T19:59:12Z</time>
      </trkpt>
      <trkpt lat="50.51801" lon="5.08177">
        <ele>140</ele>
        <time>2022-03-29T19:59:18Z</time>
      </trkpt>
      <trkpt lat="50.5177" lon="5.08186">
        <ele>140</ele>
        <time>2022-03-29T19:59:24Z</time>
      </trkpt>
      <trkpt lat="50.51684" lon="5.08191">
        <ele>138</ele>
        <time>2022-03-29T19:59:39Z</time>
      </trkpt>
      <trkpt lat="50.51634" lon="5.08189">
        <ele>137</ele>
        <time>2022-03-29T19:59:48Z</time>
      </trkpt>
      <trkpt lat="50.51582" lon="5.08182">
        <ele>138</ele>
        <time>2022-03-29T19:59:57Z</time>
      </trkpt>
      <trkpt lat="50.51582" lon="5.08175">
        <ele>137</ele>
        <time>2022-03-29T19:59:58Z</time>
      </trkpt>
      <trkpt lat="50.51579" lon="5.08162">
        <ele>137</ele>
        <time>2022-03-29T20:00:00Z</time>
      </trkpt>
      <trkpt lat="50.51571" lon="5.08155">
        <ele>137</ele>
        <time>2022-03-29T20:00:01Z</time>
      </trkpt>
      <trkpt lat="50.51567" lon="5.08154">
        <ele>137</ele>
        <time>2022-03-29T20:00:02Z</time>
      </trkpt>
      <trkpt lat="50.51559" lon="5.08158">
        <ele>137</ele>
        <time>2022-03-29T20:00:03Z</time>
      </trkpt>
      <trkpt lat="50.51555" lon="5.08163">
        <ele>138</ele>
        <time>2022-03-29T20:00:04Z</time>
      </trkpt>
      <trkpt lat="50.51552" lon="5.08176">
        <ele>138</ele>
        <time>2022-03-29T20:00:06Z</time>
      </trkpt>
      <trkpt lat="50.51486" lon="5.08163">
        <ele>139</ele>
        <time>2022-03-29T20:00:18Z</time>
      </trkpt>
      <trkpt lat="50.51443" lon="5.08163">
        <ele>138</ele>
        <time>2022-03-29T20:00:25Z</time>
      </trkpt>
      <trkpt lat="50.51231" lon="5.08245">
        <ele>136</ele>
        <time>2022-03-29T20:01:04Z</time>
      </trkpt>
      <trkpt lat="50.51194" lon="5.08238">
        <ele>137</ele>
        <time>2022-03-29T20:01:11Z</time>
      </trkpt>
      <trkpt lat="50.51168" lon="5.08223">
        <ele>138</ele>
        <time>2022-03-29T20:01:16Z</time>
      </trkpt>
      <trkpt lat="50.51113" lon="5.08177">
        <ele>135</ele>
        <time>2022-03-29T20:01:27Z</time>
      </trkpt>
      <trkpt lat="50.51063" lon="5.08142">
        <ele>133</ele>
        <time>2022-03-29T20:01:37Z</time>
      </trkpt>
      <trkpt lat="50.51031" lon="5.08125">
        <ele>131</ele>
        <time>2022-03-29T20:01:43Z</time>
      </trkpt>
      <trkpt lat="50.50971" lon="5.08104">
        <ele>127</ele>
        <time>2022-03-29T20:01:54Z</time>
      </trkpt>
      <trkpt lat="50.50953" lon="5.08103">
        <ele>126</ele>
        <time>2022-03-29T20:01:57Z</time>
      </trkpt>
      <trkpt lat="50.50939" lon="5.08112">
        <ele>125</ele>
        <time>2022-03-29T20:01:59Z</time>
      </trkpt>
      <trkpt lat="50.50948" lon="5.08049">
        <ele>127</ele>
        <time>2022-03-29T20:02:07Z</time>
      </trkpt>
      <trkpt lat="50.50943" lon="5.07962">
        <ele>130</ele>
        <time>2022-03-29T20:02:17Z</time>
      </trkpt>
      <trkpt lat="50.50936" lon="5.07873">
        <ele>133</ele>
        <time>2022-03-29T20:02:27Z</time>
      </trkpt>
      <trkpt lat="50.50912" lon="5.07673">
        <ele>135</ele>
        <time>2022-03-29T20:02:50Z</time>
      </trkpt>
      <trkpt lat="50.5091" lon="5.07451">
        <ele>141</ele>
        <time>2022-03-29T20:03:15Z</time>
      </trkpt>
      <trkpt lat="50.50916" lon="5.07415">
        <ele>141</ele>
        <time>2022-03-29T20:03:19Z</time>
      </trkpt>
      <trkpt lat="50.50935" lon="5.07369">
        <ele>143</ele>
        <time>2022-03-29T20:03:25Z</time>
      </trkpt>
      <trkpt lat="50.50997" lon="5.07242">
        <ele>148</ele>
        <time>2022-03-29T20:03:43Z</time>
      </trkpt>
      <trkpt lat="50.51014" lon="5.07213">
        <ele>149</ele>
        <time>2022-03-29T20:03:48Z</time>
      </trkpt>
      <trkpt lat="50.5104" lon="5.0719">
        <ele>150</ele>
        <time>2022-03-29T20:03:53Z</time>
      </trkpt>
      <trkpt lat="50.51213" lon="5.0713">
        <ele>159</ele>
        <time>2022-03-29T20:04:25Z</time>
      </trkpt>
      <trkpt lat="50.51238" lon="5.07115">
        <ele>159</ele>
        <time>2022-03-29T20:04:29Z</time>
      </trkpt>
      <trkpt lat="50.51285" lon="5.07067">
        <ele>159</ele>
        <time>2022-03-29T20:04:39Z</time>
      </trkpt>
      <trkpt lat="50.51299" lon="5.07046">
        <ele>159</ele>
        <time>2022-03-29T20:04:43Z</time>
      </trkpt>
      <trkpt lat="50.51409" lon="5.06831">
        <ele>164</ele>
        <time>2022-03-29T20:05:14Z</time>
      </trkpt>
      <trkpt lat="50.51425" lon="5.06796">
        <ele>165</ele>
        <time>2022-03-29T20:05:19Z</time>
      </trkpt>
      <trkpt lat="50.51443" lon="5.06764">
        <ele>166</ele>
        <time>2022-03-29T20:05:24Z</time>
      </trkpt>
      <trkpt lat="50.51498" lon="5.06696">
        <ele>170</ele>
        <time>2022-03-29T20:05:36Z</time>
      </trkpt>
      <trkpt lat="50.51423" lon="5.06506">
        <ele>170</ele>
        <time>2022-03-29T20:06:02Z</time>
      </trkpt>
      <trkpt lat="50.51405" lon="5.06445">
        <ele>168</ele>
        <time>2022-03-29T20:06:09Z</time>
      </trkpt>
      <trkpt lat="50.51336" lon="5.06335">
        <ele>165</ele>
        <time>2022-03-29T20:06:27Z</time>
      </trkpt>
      <trkpt lat="50.51356" lon="5.06307">
        <ele>167</ele>
        <time>2022-03-29T20:06:31Z</time>
      </trkpt>
      <trkpt lat="50.51371" lon="5.06297">
        <ele>168</ele>
        <time>2022-03-29T20:06:34Z</time>
      </trkpt>
      <trkpt lat="50.51399" lon="5.06289">
        <ele>169</ele>
        <time>2022-03-29T20:06:39Z</time>
      </trkpt>
      <trkpt lat="50.51416" lon="5.06271">
        <ele>170</ele>
        <time>2022-03-29T20:06:43Z</time>
      </trkpt>
      <trkpt lat="50.51453" lon="5.06218">
        <ele>174</ele>
        <time>2022-03-29T20:06:52Z</time>
      </trkpt>
      <trkpt lat="50.51523" lon="5.06138">
        <ele>180</ele>
        <time>2022-03-29T20:07:07Z</time>
      </trkpt>
      <trkpt lat="50.5158" lon="5.06069">
        <ele>183</ele>
        <time>2022-03-29T20:07:20Z</time>
      </trkpt>
      <trkpt lat="50.51645" lon="5.06009">
        <ele>188</ele>
        <time>2022-03-29T20:07:34Z</time>
      </trkpt>
      <trkpt lat="50.51695" lon="5.05973">
        <ele>190</ele>
        <time>2022-03-29T20:07:43Z</time>
      </trkpt>
      <trkpt lat="50.51722" lon="5.05948">
        <ele>190</ele>
        <time>2022-03-29T20:07:49Z</time>
      </trkpt>
      <trkpt lat="50.51749" lon="5.05915">
        <ele>191</ele>
        <time>2022-03-29T20:07:55Z</time>
      </trkpt>
      <trkpt lat="50.51813" lon="5.05815">
        <ele>193</ele>
        <time>2022-03-29T20:08:11Z</time>
      </trkpt>
      <trkpt lat="50.51898" lon="5.05706">
        <ele>198</ele>
        <time>2022-03-29T20:08:31Z</time>
      </trkpt>
      <trkpt lat="50.51986" lon="5.05599">
        <ele>206</ele>
        <time>2022-03-29T20:08:50Z</time>
      </trkpt>
      <trkpt lat="50.52053" lon="5.05503">
        <ele>209</ele>
        <time>2022-03-29T20:09:06Z</time>
      </trkpt>
      <trkpt lat="50.52095" lon="5.0546">
        <ele>209</ele>
        <time>2022-03-29T20:09:15Z</time>
      </trkpt>
      <trkpt lat="50.52184" lon="5.05384">
        <ele>208</ele>
        <time>2022-03-29T20:09:33Z</time>
      </trkpt>
      <trkpt lat="50.52275" lon="5.05314">
        <ele>208</ele>
        <time>2022-03-29T20:09:51Z</time>
      </trkpt>
      <trkpt lat="50.52271" lon="5.05275">
        <ele>209</ele>
        <time>2022-03-29T20:09:56Z</time>
      </trkpt>
      <trkpt lat="50.52259" lon="5.05234">
        <ele>211</ele>
        <time>2022-03-29T20:10:01Z</time>
      </trkpt>
      <trkpt lat="50.5226" lon="5.05211">
        <ele>211</ele>
        <time>2022-03-29T20:10:04Z</time>
      </trkpt>
      <trkpt lat="50.52292" lon="5.05155">
        <ele>211</ele>
        <time>2022-03-29T20:10:12Z</time>
      </trkpt>
      <trkpt lat="50.52307" lon="5.05121">
        <ele>211</ele>
        <time>2022-03-29T20:10:17Z</time>
      </trkpt>
      <trkpt lat="50.5232" lon="5.05069">
        <ele>211</ele>
        <time>2022-03-29T20:10:23Z</time>
      </trkpt>
      <trkpt lat="50.52331" lon="5.05039">
        <ele>212</ele>
        <time>2022-03-29T20:10:27Z</time>
      </trkpt>
      <trkpt lat="50.52338" lon="5.05027">
        <ele>212</ele>
        <time>2022-03-29T20:10:29Z</time>
      </trkpt>
      <trkpt lat="50.52411" lon="5.04944">
        <ele>213</ele>
        <time>2022-03-29T20:10:45Z</time>
      </trkpt>
      <trkpt lat="50.52456" lon="5.04901">
        <ele>213</ele>
        <time>2022-03-29T20:10:54Z</time>
      </trkpt>
      <trkpt lat="50.52466" lon="5.04899">
        <ele>213</ele>
        <time>2022-03-29T20:10:56Z</time>
      </trkpt>
      <trkpt lat="50.52497" lon="5.04865">
        <ele>211</ele>
        <time>2022-03-29T20:11:03Z</time>
      </trkpt>
      <trkpt lat="50.52542" lon="5.04849">
        <ele>210</ele>
        <time>2022-03-29T20:11:11Z</time>
      </trkpt>
      <trkpt lat="50.52553" lon="5.04849">
        <ele>210</ele>
        <time>2022-03-29T20:11:13Z</time>
      </trkpt>
      <trkpt lat="50.52557" lon="5.04854">
        <ele>210</ele>
        <time>2022-03-29T20:11:14Z</time>
      </trkpt>
      <trkpt lat="50.52562" lon="5.04854">
        <ele>210</ele>
        <time>2022-03-29T20:11:15Z</time>
      </trkpt>
      <trkpt lat="50.52566" lon="5.0485">
        <ele>210</ele>
        <time>2022-03-29T20:11:16Z</time>
      </trkpt>
      <trkpt lat="50.52567" lon="5.04842">
        <ele>210</ele>
        <time>2022-03-29T20:11:17Z</time>
      </trkpt>
      <trkpt lat="50.52564" lon="5.04836">
        <ele>210</ele>
        <time>2022-03-29T20:11:17Z</time>
      </trkpt>
      <trkpt lat="50.52559" lon="5.04833">
        <ele>210</ele>
        <time>2022-03-29T20:11:18Z</time>
      </trkpt>
      <trkpt lat="50.52555" lon="5.04785">
        <ele>211</ele>
        <time>2022-03-29T20:11:24Z</time>
      </trkpt>
      <trkpt lat="50.52515" lon="5.04499">
        <ele>206</ele>
        <time>2022-03-29T20:11:57Z</time>
      </trkpt>
      <trkpt lat="50.52518" lon="5.04482">
        <ele>206</ele>
        <time>2022-03-29T20:11:59Z</time>
      </trkpt>
      <trkpt lat="50.52817" lon="5.03929">
        <ele>208</ele>
        <time>2022-03-29T20:13:21Z</time>
      </trkpt>
      <trkpt lat="50.52247" lon="5.02923">
        <ele>211</ele>
        <time>2022-03-29T20:15:54Z</time>
      </trkpt>
      <trkpt lat="50.52195" lon="5.02871">
        <ele>210</ele>
        <time>2022-03-29T20:16:04Z</time>
      </trkpt>
      <trkpt lat="50.52182" lon="5.02834">
        <ele>211</ele>
        <time>2022-03-29T20:16:09Z</time>
      </trkpt>
      <trkpt lat="50.52181" lon="5.02814">
        <ele>211</ele>
        <time>2022-03-29T20:16:12Z</time>
      </trkpt>
      <trkpt lat="50.52185" lon="5.02803">
        <ele>211</ele>
        <time>2022-03-29T20:16:13Z</time>
      </trkpt>
      <trkpt lat="50.52191" lon="5.02795">
        <ele>211</ele>
        <time>2022-03-29T20:16:14Z</time>
      </trkpt>
      <trkpt lat="50.52253" lon="5.02729">
        <ele>211</ele>
        <time>2022-03-29T20:16:28Z</time>
      </trkpt>
      <trkpt lat="50.52296" lon="5.02693">
        <ele>210</ele>
        <time>2022-03-29T20:16:36Z</time>
      </trkpt>
      <trkpt lat="50.52342" lon="5.02659">
        <ele>209</ele>
        <time>2022-03-29T20:16:45Z</time>
      </trkpt>
      <trkpt lat="50.5235" lon="5.02649">
        <ele>209</ele>
        <time>2022-03-29T20:16:47Z</time>
      </trkpt>
      <trkpt lat="50.52351" lon="5.02638">
        <ele>209</ele>
        <time>2022-03-29T20:16:48Z</time>
      </trkpt>
      <trkpt lat="50.52348" lon="5.02622">
        <ele>208</ele>
        <time>2022-03-29T20:16:50Z</time>
      </trkpt>
      <trkpt lat="50.52316" lon="5.02556">
        <ele>208</ele>
        <time>2022-03-29T20:17:00Z</time>
      </trkpt>
      <trkpt lat="50.52311" lon="5.02544">
        <ele>208</ele>
        <time>2022-03-29T20:17:01Z</time>
      </trkpt>
      <trkpt lat="50.52304" lon="5.02517">
        <ele>208</ele>
        <time>2022-03-29T20:17:05Z</time>
      </trkpt>
      <trkpt lat="50.52295" lon="5.0211">
        <ele>206</ele>
        <time>2022-03-29T20:17:51Z</time>
      </trkpt>
      <trkpt lat="50.52285" lon="5.01916">
        <ele>208</ele>
        <time>2022-03-29T20:18:13Z</time>
      </trkpt>
      <trkpt lat="50.52273" lon="5.0183">
        <ele>209</ele>
        <time>2022-03-29T20:18:23Z</time>
      </trkpt>
      <trkpt lat="50.52249" lon="5.01737">
        <ele>209</ele>
        <time>2022-03-29T20:18:34Z</time>
      </trkpt>
      <trkpt lat="50.52205" lon="5.01517">
        <ele>207</ele>
        <time>2022-03-29T20:19:00Z</time>
      </trkpt>
      <trkpt lat="50.52182" lon="5.0145">
        <ele>207</ele>
        <time>2022-03-29T20:19:09Z</time>
      </trkpt>
      <trkpt lat="50.52186" lon="5.01444">
        <ele>207</ele>
        <time>2022-03-29T20:19:10Z</time>
      </trkpt>
      <trkpt lat="50.52186" lon="5.01439">
        <ele>207</ele>
        <time>2022-03-29T20:19:10Z</time>
      </trkpt>
      <trkpt lat="50.52183" lon="5.01435">
        <ele>207</ele>
        <time>2022-03-29T20:19:11Z</time>
      </trkpt>
      <trkpt lat="50.52177" lon="5.01438">
        <ele>207</ele>
        <time>2022-03-29T20:19:12Z</time>
      </trkpt>
      <trkpt lat="50.52121" lon="5.01297">
        <ele>208</ele>
        <time>2022-03-29T20:19:31Z</time>
      </trkpt>
      <trkpt lat="50.52078" lon="5.01166">
        <ele>207</ele>
        <time>2022-03-29T20:19:48Z</time>
      </trkpt>
      <trkpt lat="50.52078" lon="5.01164">
        <ele>207</ele>
        <time>2022-03-29T20:19:48Z</time>
      </trkpt>
      <trkpt lat="50.52082" lon="5.01159">
        <ele>207</ele>
        <time>2022-03-29T20:19:49Z</time>
      </trkpt>
      <trkpt lat="50.52082" lon="5.01152">
        <ele>207</ele>
        <time>2022-03-29T20:19:50Z</time>
      </trkpt>
      <trkpt lat="50.52079" lon="5.01149">
        <ele>207</ele>
        <time>2022-03-29T20:19:50Z</time>
      </trkpt>
      <trkpt lat="50.52075" lon="5.0115">
        <ele>207</ele>
        <time>2022-03-29T20:19:51Z</time>
      </trkpt>
      <trkpt lat="50.52048" lon="5.01055">
        <ele>206</ele>
        <time>2022-03-29T20:20:03Z</time>
      </trkpt>
      <trkpt lat="50.51997" lon="5.00834">
        <ele>204</ele>
        <time>2022-03-29T20:20:29Z</time>
      </trkpt>
      <trkpt lat="50.51982" lon="5.00673">
        <ele>204</ele>
        <time>2022-03-29T20:20:48Z</time>
      </trkpt>
      <trkpt lat="50.5198" lon="5.00583">
        <ele>202</ele>
        <time>2022-03-29T20:20:58Z</time>
      </trkpt>
      <trkpt lat="50.51937" lon="5.00387">
        <ele>202</ele>
        <time>2022-03-29T20:21:21Z</time>
      </trkpt>
      <trkpt lat="50.51911" lon="5.00286">
        <ele>201</ele>
        <time>2022-03-29T20:21:34Z</time>
      </trkpt>
      <trkpt lat="50.51911" lon="5.0027">
        <ele>200</ele>
        <time>2022-03-29T20:21:35Z</time>
      </trkpt>
      <trkpt lat="50.51836" lon="5.00283">
        <ele>197</ele>
        <time>2022-03-29T20:21:49Z</time>
      </trkpt>
      <trkpt lat="50.51807" lon="5.00294">
        <ele>198</ele>
        <time>2022-03-29T20:21:54Z</time>
      </trkpt>
      <trkpt lat="50.51788" lon="5.00309">
        <ele>199</ele>
        <time>2022-03-29T20:21:58Z</time>
      </trkpt>
      <trkpt lat="50.51761" lon="5.00347">
        <ele>201</ele>
        <time>2022-03-29T20:22:04Z</time>
      </trkpt>
      <trkpt lat="50.51744" lon="5.00392">
        <ele>201</ele>
        <time>2022-03-29T20:22:10Z</time>
      </trkpt>
      <trkpt lat="50.51726" lon="5.00428">
        <ele>200</ele>
        <time>2022-03-29T20:22:16Z</time>
      </trkpt>
      <trkpt lat="50.51699" lon="5.00458">
        <ele>200</ele>
        <time>2022-03-29T20:22:21Z</time>
      </trkpt>
      <trkpt lat="50.51658" lon="5.00485">
        <ele>200</ele>
        <time>2022-03-29T20:22:29Z</time>
      </trkpt>
      <trkpt lat="50.51559" lon="5.00542">
        <ele>203</ele>
        <time>2022-03-29T20:22:48Z</time>
      </trkpt>
      <trkpt lat="50.51504" lon="5.00575">
        <ele>204</ele>
        <time>2022-03-29T20:22:59Z</time>
      </trkpt>
      <trkpt lat="50.51307" lon="5.00744">
        <ele>212</ele>
        <time>2022-03-29T20:23:38Z</time>
      </trkpt>
      <trkpt lat="50.513" lon="5.00741">
        <ele>212</ele>
        <time>2022-03-29T20:23:40Z</time>
      </trkpt>
      <trkpt lat="50.51295" lon="5.00735">
        <ele>212</ele>
        <time>2022-03-29T20:23:41Z</time>
      </trkpt>
      <trkpt lat="50.51081" lon="5.00166">
        <ele>212</ele>
        <time>2022-03-29T20:24:56Z</time>
      </trkpt>
      <trkpt lat="50.51002" lon="4.99785">
        <ele>211</ele>
        <time>2022-03-29T20:25:41Z</time>
      </trkpt>
      <trkpt lat="50.50996" lon="4.99776">
        <ele>211</ele>
        <time>2022-03-29T20:25:43Z</time>
      </trkpt>
      <trkpt lat="50.5103" lon="4.99723">
        <ele>210</ele>
        <time>2022-03-29T20:25:51Z</time>
      </trkpt>
      <trkpt lat="50.50914" lon="4.99491">
        <ele>214</ele>
        <time>2022-03-29T20:26:24Z</time>
      </trkpt>
      <trkpt lat="50.50907" lon="4.99471">
        <ele>214</ele>
        <time>2022-03-29T20:26:27Z</time>
      </trkpt>
      <trkpt lat="50.5089" lon="4.99315">
        <ele>214</ele>
        <time>2022-03-29T20:26:45Z</time>
      </trkpt>
      <trkpt lat="50.50866" lon="4.99125">
        <ele>211</ele>
        <time>2022-03-29T20:27:07Z</time>
      </trkpt>
      <trkpt lat="50.50838" lon="4.98868">
        <ele>206</ele>
        <time>2022-03-29T20:27:36Z</time>
      </trkpt>
      <trkpt lat="50.50812" lon="4.9869">
        <ele>204</ele>
        <time>2022-03-29T20:27:57Z</time>
      </trkpt>
      <trkpt lat="50.50796" lon="4.98567">
        <ele>199</ele>
        <time>2022-03-29T20:28:11Z</time>
      </trkpt>
      <trkpt lat="50.50794" lon="4.98448">
        <ele>195</ele>
        <time>2022-03-29T20:28:25Z</time>
      </trkpt>
      <trkpt lat="50.50792" lon="4.9837">
        <ele>192</ele>
        <time>2022-03-29T20:28:34Z</time>
      </trkpt>
      <trkpt lat="50.50788" lon="4.98347">
        <ele>191</ele>
        <time>2022-03-29T20:28:36Z</time>
      </trkpt>
      <trkpt lat="50.50776" lon="4.9833">
        <ele>189</ele>
        <time>2022-03-29T20:28:39Z</time>
      </trkpt>
      <trkpt lat="50.5073" lon="4.98295">
        <ele>184</ele>
        <time>2022-03-29T20:28:48Z</time>
      </trkpt>
      <trkpt lat="50.50727" lon="4.98281">
        <ele>183</ele>
        <time>2022-03-29T20:28:50Z</time>
      </trkpt>
      <trkpt lat="50.50718" lon="4.98269">
        <ele>181</ele>
        <time>2022-03-29T20:28:52Z</time>
      </trkpt>
      <trkpt lat="50.50712" lon="4.98251">
        <ele>179</ele>
        <time>2022-03-29T20:28:54Z</time>
      </trkpt>
      <trkpt lat="50.50684" lon="4.98206">
        <ele>173</ele>
        <time>2022-03-29T20:29:01Z</time>
      </trkpt>
      <trkpt lat="50.50676" lon="4.98197">
        <ele>172</ele>
        <time>2022-03-29T20:29:03Z</time>
      </trkpt>
      <trkpt lat="50.5067" lon="4.98196">
        <ele>171</ele>
        <time>2022-03-29T20:29:04Z</time>
      </trkpt>
      <trkpt lat="50.50665" lon="4.98197">
        <ele>170</ele>
        <time>2022-03-29T20:29:05Z</time>
      </trkpt>
      <trkpt lat="50.50648" lon="4.98208">
        <ele>168</ele>
        <time>2022-03-29T20:29:08Z</time>
      </trkpt>
      <trkpt lat="50.50637" lon="4.98212">
        <ele>167</ele>
        <time>2022-03-29T20:29:10Z</time>
      </trkpt>
      <trkpt lat="50.50627" lon="4.98203">
        <ele>165</ele>
        <time>2022-03-29T20:29:12Z</time>
      </trkpt>
      <trkpt lat="50.50624" lon="4.98187">
        <ele>163</ele>
        <time>2022-03-29T20:29:14Z</time>
      </trkpt>
      <trkpt lat="50.50625" lon="4.98175">
        <ele>162</ele>
        <time>2022-03-29T20:29:16Z</time>
      </trkpt>
      <trkpt lat="50.5064" lon="4.98125">
        <ele>160</ele>
        <time>2022-03-29T20:29:22Z</time>
      </trkpt>
      <trkpt lat="50.50641" lon="4.98115">
        <ele>160</ele>
        <time>2022-03-29T20:29:23Z</time>
      </trkpt>
      <trkpt lat="50.5064" lon="4.98096">
        <ele>158</ele>
        <time>2022-03-29T20:29:25Z</time>
      </trkpt>
      <trkpt lat="50.50634" lon="4.98086">
        <ele>156</ele>
        <time>2022-03-29T20:29:27Z</time>
      </trkpt>
      <trkpt lat="50.50608" lon="4.98067">
        <ele>152</ele>
        <time>2022-03-29T20:29:32Z</time>
      </trkpt>
      <trkpt lat="50.50578" lon="4.9803">
        <ele>150</ele>
        <time>2022-03-29T20:29:39Z</time>
      </trkpt>
      <trkpt lat="50.50502" lon="4.98176">
        <ele>149</ele>
        <time>2022-03-29T20:30:00Z</time>
      </trkpt>
      <trkpt lat="50.50481" lon="4.98202">
        <ele>150</ele>
        <time>2022-03-29T20:30:05Z</time>
      </trkpt>
      <trkpt lat="50.50461" lon="4.98332">
        <ele>152</ele>
        <time>2022-03-29T20:30:20Z</time>
        <extensions>
          <visugpx:TrkExtension xmlns:visugpx="https://www.visugpx.com/editgpx/">
            <visugpx:node>1</visugpx:node>
            </visugpx:TrkExtension>
        </extensions>
      </trkpt>
      <trkpt lat="50.50457" lon="4.98348">
        <ele>149.3</ele>
      </trkpt>
      <trkpt lat="50.5044" lon="4.98402">
        <ele>150.7</ele>
      </trkpt>
      <trkpt lat="50.50431" lon="4.98444">
        <ele>151</ele>
      </trkpt>
      <trkpt lat="50.50423" lon="4.98458">
        <ele>150.7</ele>
      </trkpt>
      <trkpt lat="50.50413" lon="4.98471">
        <ele>150.5</ele>
      </trkpt>
      <trkpt lat="50.50408" lon="4.9848">
        <ele>150.8</ele>
      </trkpt>
      <trkpt lat="50.50383" lon="4.98535">
        <ele>153.1</ele>
      </trkpt>
      <trkpt lat="50.50373" lon="4.98554">
        <ele>153.6</ele>
      </trkpt>
      <trkpt lat="50.5037" lon="4.98557">
        <ele>153.7</ele>
      </trkpt>
      <trkpt lat="50.50369" lon="4.98557">
        <ele>153.6</ele>
      </trkpt>
      <trkpt lat="50.50363" lon="4.98559">
        <ele>153.3</ele>
      </trkpt>
      <trkpt lat="50.50361" lon="4.98564">
        <ele>153.3</ele>
      </trkpt>
      <trkpt lat="50.50361" lon="4.98568">
        <ele>153.4</ele>
      </trkpt>
      <trkpt lat="50.50358" lon="4.98567">
        <ele>152.8</ele>
      </trkpt>
      <trkpt lat="50.50347" lon="4.98574">
        <ele>151.5</ele>
      </trkpt>
      <trkpt lat="50.50322" lon="4.98611">
        <ele>150.8</ele>
      </trkpt>
      <trkpt lat="50.50318" lon="4.98616">
        <ele>150.7</ele>
      </trkpt>
      <trkpt lat="50.50312" lon="4.98619">
        <ele>150.4</ele>
      </trkpt>
      <trkpt lat="50.50296" lon="4.98623">
        <ele>150.9</ele>
      </trkpt>
      <trkpt lat="50.50283" lon="4.98618">
        <ele>151</ele>
      </trkpt>
      <trkpt lat="50.50275" lon="4.98614">
        <ele>150.4</ele>
      </trkpt>
      <trkpt lat="50.5027" lon="4.98611">
        <ele>149.7</ele>
      </trkpt>
      <trkpt lat="50.50259" lon="4.9857">
        <ele>145.2</ele>
      </trkpt>
      <trkpt lat="50.50255" lon="4.98511">
        <ele>145.1</ele>
      </trkpt>
      <trkpt lat="50.50246" lon="4.98478">
        <ele>143.8</ele>
      </trkpt>
      <trkpt lat="50.50244" lon="4.98475">
        <ele>143.3</ele>
      </trkpt>
      <trkpt lat="50.5024" lon="4.98467">
        <ele>143</ele>
      </trkpt>
      <trkpt lat="50.50238" lon="4.98461">
        <ele>143.2</ele>
      </trkpt>
      <trkpt lat="50.50233" lon="4.98454">
        <ele>143.4</ele>
      </trkpt>
      <trkpt lat="50.50228" lon="4.98447">
        <ele>143.9</ele>
      </trkpt>
      <trkpt lat="50.5022" lon="4.98438">
        <ele>145</ele>
      </trkpt>
      <trkpt lat="50.50211" lon="4.98431">
        <ele>145.2</ele>
      </trkpt>
      <trkpt lat="50.50156" lon="4.98394">
        <ele>143.4</ele>
      </trkpt>
      <trkpt lat="50.50126" lon="4.98366">
        <ele>143.2</ele>
      </trkpt>
      <trkpt lat="50.50106" lon="4.98344">
        <ele>142.8</ele>
      </trkpt>
      <trkpt lat="50.50079" lon="4.98308">
        <ele>142.2</ele>
      </trkpt>
      <trkpt lat="50.50053" lon="4.98265">
        <ele>142</ele>
      </trkpt>
      <trkpt lat="50.50037" lon="4.98233">
        <ele>142.3</ele>
      </trkpt>
      <trkpt lat="50.50023" lon="4.98203">
        <ele>141.2</ele>
      </trkpt>
      <trkpt lat="50.50015" lon="4.98183">
        <ele>141</ele>
      </trkpt>
      <trkpt lat="50.50002" lon="4.98163">
        <ele>141.3</ele>
      </trkpt>
      <trkpt lat="50.49987" lon="4.98143">
        <ele>141.8</ele>
      </trkpt>
      <trkpt lat="50.4997" lon="4.9813">
        <ele>141.6</ele>
      </trkpt>
      <trkpt lat="50.4994" lon="4.98119">
        <ele>141.5</ele>
      </trkpt>
      <trkpt lat="50.49909" lon="4.98123">
        <ele>141.4</ele>
      </trkpt>
      <trkpt lat="50.49892" lon="4.9813">
        <ele>140.4</ele>
      </trkpt>
      <trkpt lat="50.49863" lon="4.98142">
        <ele>139.8</ele>
      </trkpt>
      <trkpt lat="50.49786" lon="4.98171">
        <ele>138.5</ele>
      </trkpt>
      <trkpt lat="50.49643" lon="4.98229">
        <ele>135.8</ele>
      </trkpt>
      <trkpt lat="50.49614" lon="4.98231">
        <ele>135.7</ele>
      </trkpt>
      <trkpt lat="50.49599" lon="4.98232">
        <ele>134</ele>
      </trkpt>
      <trkpt lat="50.49567" lon="4.98227">
        <ele>132.1</ele>
      </trkpt>
      <trkpt lat="50.49528" lon="4.98211">
        <ele>130.2</ele>
        <extensions>
          <visugpx:TrkExtension xmlns:visugpx="https://www.visugpx.com/editgpx/">
            <visugpx:node>2</visugpx:node>
            </visugpx:TrkExtension>
        </extensions>
      </trkpt>
      <trkpt lat="50.49495" lon="4.98196">
        <ele>129.5</ele>
      </trkpt>
      <trkpt lat="50.49442" lon="4.98171">
        <ele>128.7</ele>
      </trkpt>
      <trkpt lat="50.49391" lon="4.98151">
        <ele>127.3</ele>
      </trkpt>
      <trkpt lat="50.49346" lon="4.98145">
        <ele>126.1</ele>
      </trkpt>
      <trkpt lat="50.49317" lon="4.98146">
        <ele>125.5</ele>
      </trkpt>
      <trkpt lat="50.49313" lon="4.98146">
        <ele>125.4</ele>
      </trkpt>
      <trkpt lat="50.4925" lon="4.98172">
        <ele>125</ele>
      </trkpt>
      <trkpt lat="50.49209" lon="4.98193">
        <ele>125.1</ele>
      </trkpt>
      <trkpt lat="50.49168" lon="4.98218">
        <ele>125.5</ele>
      </trkpt>
      <trkpt lat="50.49099" lon="4.98266">
        <ele>124.4</ele>
      </trkpt>
      <trkpt lat="50.49063" lon="4.98311">
        <ele>123.6</ele>
      </trkpt>
      <trkpt lat="50.49034" lon="4.98367">
        <ele>125.9</ele>
      </trkpt>
      <trkpt lat="50.49058" lon="4.98366">
        <ele>128</ele>
      </trkpt>
      <trkpt lat="50.4907" lon="4.98374">
        <ele>129.1</ele>
      </trkpt>
      <trkpt lat="50.49092" lon="4.98417">
        <ele>134</ele>
      </trkpt>
      <trkpt lat="50.4913" lon="4.98518">
        <ele>150.2</ele>
      </trkpt>
      <trkpt lat="50.49174" lon="4.98694">
        <ele>165.3</ele>
        <extensions>
          <visugpx:TrkExtension xmlns:visugpx="https://www.visugpx.com/editgpx/">
            <visugpx:node>3</visugpx:node>
            </visugpx:TrkExtension>
        </extensions>
      </trkpt>
      <trkpt lat="50.49178" lon="4.98712">
        <ele>166</ele>
      </trkpt>
      <trkpt lat="50.49177" lon="4.98747">
        <ele>166.3</ele>
      </trkpt>
      <trkpt lat="50.4918" lon="4.98767">
        <ele>166.8</ele>
      </trkpt>
      <trkpt lat="50.49188" lon="4.98788">
        <ele>167.6</ele>
      </trkpt>
      <trkpt lat="50.49289" lon="4.98937">
        <ele>179.6</ele>
      </trkpt>
      <trkpt lat="50.49359" lon="4.99164">
        <ele>188.8</ele>
      </trkpt>
      <trkpt lat="50.49372" lon="4.99192">
        <ele>189.8</ele>
      </trkpt>
      <trkpt lat="50.49384" lon="4.99215">
        <ele>190.6</ele>
      </trkpt>
      <trkpt lat="50.49391" lon="4.99231">
        <ele>191.1</ele>
      </trkpt>
      <trkpt lat="50.4941" lon="4.99288">
        <ele>192.2</ele>
      </trkpt>
      <trkpt lat="50.4948" lon="4.99529">
        <ele>193.5</ele>
      </trkpt>
      <trkpt lat="50.49484" lon="4.99534">
        <ele>193.8</ele>
      </trkpt>
      <trkpt lat="50.49488" lon="4.9954">
        <ele>193.9</ele>
      </trkpt>
      <trkpt lat="50.49506" lon="4.99541">
        <ele>194.6</ele>
      </trkpt>
      <trkpt lat="50.49686" lon="4.99472">
        <ele>200</ele>
      </trkpt>
      <trkpt lat="50.49696" lon="4.99472">
        <ele>199.8</ele>
      </trkpt>
      <trkpt lat="50.49708" lon="4.99492">
        <ele>198.9</ele>
      </trkpt>
      <trkpt lat="50.49817" lon="4.99922">
        <ele>204.8</ele>
      </trkpt>
      <trkpt lat="50.49821" lon="4.99937">
        <ele>205.1</ele>
      </trkpt>
      <trkpt lat="50.49817" lon="4.99952">
        <ele>205</ele>
      </trkpt>
      <trkpt lat="50.49804" lon="4.99984">
        <ele>204.9</ele>
      </trkpt>
      <trkpt lat="50.49791" lon="5.00027">
        <ele>204</ele>
        <extensions>
          <visugpx:TrkExtension xmlns:visugpx="https://www.visugpx.com/editgpx/">
            <visugpx:node>4</visugpx:node>
            </visugpx:TrkExtension>
        </extensions>
      </trkpt>
      <trkpt lat="50.49756" lon="5.00144">
        <ele>200</ele>
      </trkpt>
      <trkpt lat="50.49741" lon="5.00206">
        <ele>196.5</ele>
      </trkpt>
      <trkpt lat="50.49735" lon="5.00242">
        <ele>195.6</ele>
      </trkpt>
      <trkpt lat="50.49703" lon="5.00509">
        <ele>187.5</ele>
      </trkpt>
      <trkpt lat="50.49699" lon="5.00533">
        <ele>187</ele>
      </trkpt>
      <trkpt lat="50.49681" lon="5.00682">
        <ele>183</ele>
      </trkpt>
      <trkpt lat="50.49677" lon="5.00683">
        <ele>182.7</ele>
      </trkpt>
      <trkpt lat="50.49639" lon="5.00693">
        <ele>181</ele>
      </trkpt>
      <trkpt lat="50.49591" lon="5.00702">
        <ele>179.8</ele>
      </trkpt>
      <trkpt lat="50.49535" lon="5.00706">
        <ele>178.1</ele>
      </trkpt>
      <trkpt lat="50.49473" lon="5.00711">
        <ele>177.6</ele>
      </trkpt>
      <trkpt lat="50.49398" lon="5.00715">
        <ele>176.7</ele>
      </trkpt>
      <trkpt lat="50.49342" lon="5.00719">
        <ele>176.3</ele>
      </trkpt>
      <trkpt lat="50.49289" lon="5.00723">
        <ele>177</ele>
      </trkpt>
      <trkpt lat="50.4928" lon="5.00717">
        <ele>177</ele>
        <extensions>
          <visugpx:TrkExtension xmlns:visugpx="https://www.visugpx.com/editgpx/">
            <visugpx:node>5</visugpx:node>
            </visugpx:TrkExtension>
        </extensions>
      </trkpt>
      <trkpt lat="50.49263" lon="5.00705">
        <ele>177</ele>
        <time>2022-03-29T20:42:28Z</time>
        <extensions>
          <visugpx:TrkExtension xmlns:visugpx="https://www.visugpx.com/editgpx/">
            <visugpx:node>6</visugpx:node>
            </visugpx:TrkExtension>
        </extensions>
      </trkpt>
      <trkpt lat="50.49184" lon="5.0064">
        <ele>182</ele>
        <time>2022-03-29T20:42:44Z</time>
      </trkpt>
      <trkpt lat="50.49118" lon="5.00593">
        <ele>181</ele>
        <time>2022-03-29T20:42:56Z</time>
      </trkpt>
      <trkpt lat="50.49115" lon="5.00599">
        <ele>181</ele>
        <time>2022-03-29T20:42:57Z</time>
      </trkpt>
      <trkpt lat="50.49118" lon="5.00593">
        <ele>181</ele>
        <time>2022-03-29T20:42:58Z</time>
      </trkpt>
      <trkpt lat="50.48711" lon="5.00335">
        <ele>178</ele>
        <time>2022-03-29T20:44:16Z</time>
      </trkpt>
      <trkpt lat="50.48345" lon="5.00144">
        <ele>173</ele>
        <time>2022-03-29T20:45:25Z</time>
      </trkpt>
      <trkpt lat="50.48322" lon="5.00139">
        <ele>172</ele>
        <time>2022-03-29T20:45:29Z</time>
      </trkpt>
      <trkpt lat="50.48192" lon="5.00132">
        <ele>169</ele>
        <time>2022-03-29T20:45:52Z</time>
      </trkpt>
      <trkpt lat="50.48171" lon="5.00125">
        <ele>169</ele>
        <time>2022-03-29T20:45:56Z</time>
      </trkpt>
      <trkpt lat="50.48149" lon="5.00113">
        <ele>169</ele>
        <time>2022-03-29T20:46:00Z</time>
      </trkpt>
      <trkpt lat="50.47668" lon="4.99774">
        <ele>158</ele>
        <time>2022-03-29T20:47:34Z</time>
      </trkpt>
      <trkpt lat="50.47637" lon="4.99762">
        <ele>157</ele>
        <time>2022-03-29T20:47:40Z</time>
      </trkpt>
      <trkpt lat="50.47552" lon="4.9975">
        <ele>150</ele>
        <time>2022-03-29T20:47:55Z</time>
      </trkpt>
      <trkpt lat="50.47537" lon="4.99754">
        <ele>148</ele>
        <time>2022-03-29T20:47:57Z</time>
      </trkpt>
      <trkpt lat="50.47509" lon="4.99767">
        <ele>144</ele>
        <time>2022-03-29T20:48:03Z</time>
      </trkpt>
      <trkpt lat="50.47493" lon="4.9977">
        <ele>141</ele>
        <time>2022-03-29T20:48:06Z</time>
      </trkpt>
      <trkpt lat="50.47474" lon="4.99771">
        <ele>136</ele>
        <time>2022-03-29T20:48:09Z</time>
      </trkpt>
      <trkpt lat="50.47454" lon="4.99764">
        <ele>131</ele>
        <time>2022-03-29T20:48:13Z</time>
      </trkpt>
      <trkpt lat="50.47397" lon="4.99717">
        <ele>128</ele>
        <time>2022-03-29T20:48:24Z</time>
      </trkpt>
      <trkpt lat="50.4736" lon="4.997">
        <ele>129</ele>
        <time>2022-03-29T20:48:31Z</time>
      </trkpt>
      <trkpt lat="50.47307" lon="4.9968">
        <ele>127</ele>
        <time>2022-03-29T20:48:41Z</time>
      </trkpt>
      <trkpt lat="50.47297" lon="4.99673">
        <ele>126</ele>
        <time>2022-03-29T20:48:42Z</time>
      </trkpt>
      <trkpt lat="50.4729" lon="4.99661">
        <ele>126</ele>
        <time>2022-03-29T20:48:44Z</time>
      </trkpt>
      <trkpt lat="50.47275" lon="4.99613">
        <ele>126</ele>
        <time>2022-03-29T20:48:50Z</time>
      </trkpt>
      <trkpt lat="50.47212" lon="4.99487">
        <ele>121</ele>
        <time>2022-03-29T20:49:09Z</time>
      </trkpt>
      <trkpt lat="50.47198" lon="4.99467">
        <ele>120</ele>
        <time>2022-03-29T20:49:12Z</time>
      </trkpt>
      <trkpt lat="50.47189" lon="4.99464">
        <ele>119</ele>
        <time>2022-03-29T20:49:14Z</time>
      </trkpt>
      <trkpt lat="50.47183" lon="4.9947">
        <ele>118</ele>
        <time>2022-03-29T20:49:15Z</time>
      </trkpt>
      <trkpt lat="50.4718" lon="4.9948">
        <ele>117</ele>
        <time>2022-03-29T20:49:16Z</time>
      </trkpt>
      <trkpt lat="50.47179" lon="4.99497">
        <ele>115</ele>
        <time>2022-03-29T20:49:18Z</time>
      </trkpt>
      <trkpt lat="50.4718" lon="4.99516">
        <ele>114</ele>
        <time>2022-03-29T20:49:20Z</time>
      </trkpt>
      <trkpt lat="50.47197" lon="4.99607">
        <ele>113</ele>
        <time>2022-03-29T20:49:31Z</time>
      </trkpt>
      <trkpt lat="50.47196" lon="4.99635">
        <ele>111</ele>
        <time>2022-03-29T20:49:34Z</time>
      </trkpt>
      <trkpt lat="50.47194" lon="4.99646">
        <ele>110</ele>
        <time>2022-03-29T20:49:35Z</time>
      </trkpt>
      <trkpt lat="50.47153" lon="4.99663">
        <ele>102</ele>
        <time>2022-03-29T20:49:43Z</time>
      </trkpt>
      <trkpt lat="50.47122" lon="4.99657">
        <ele>99</ele>
        <time>2022-03-29T20:49:48Z</time>
      </trkpt>
      <trkpt lat="50.47029" lon="4.99677">
        <ele>88</ele>
        <time>2022-03-29T20:50:05Z</time>
      </trkpt>
      <trkpt lat="50.47019" lon="4.99682">
        <ele>87</ele>
        <time>2022-03-29T20:50:07Z</time>
      </trkpt>
      <trkpt lat="50.47015" lon="4.99669">
        <ele>87</ele>
        <time>2022-03-29T20:50:09Z</time>
      </trkpt>
      <trkpt lat="50.47014" lon="4.99654">
        <ele>87</ele>
        <time>2022-03-29T20:50:10Z</time>
      </trkpt>
      <trkpt lat="50.47017" lon="4.99604">
        <ele>88</ele>
        <time>2022-03-29T20:50:16Z</time>
      </trkpt>
      <trkpt lat="50.47014" lon="4.99567">
        <ele>89</ele>
        <time>2022-03-29T20:50:20Z</time>
      </trkpt>
      <trkpt lat="50.47009" lon="4.9955">
        <ele>89</ele>
        <time>2022-03-29T20:50:22Z</time>
      </trkpt>
      <trkpt lat="50.47004" lon="4.99538">
        <ele>89</ele>
        <time>2022-03-29T20:50:24Z</time>
      </trkpt>
      <trkpt lat="50.46977" lon="4.99497">
        <ele>87</ele>
        <time>2022-03-29T20:50:31Z</time>
      </trkpt>
      <trkpt lat="50.4695" lon="4.99483">
        <ele>84</ele>
        <time>2022-03-29T20:50:36Z</time>
      </trkpt>
      <trkpt lat="50.46933" lon="4.99477">
        <ele>83</ele>
        <time>2022-03-29T20:50:39Z</time>
      </trkpt>
      <trkpt lat="50.46892" lon="4.99477">
        <ele>80</ele>
        <time>2022-03-29T20:50:46Z</time>
      </trkpt>
      <trkpt lat="50.46758" lon="4.9948">
        <ele>78</ele>
        <time>2022-03-29T20:51:10Z</time>
      </trkpt>
      <trkpt lat="50.46734" lon="4.99475">
        <ele>81</ele>
        <time>2022-03-29T20:51:14Z</time>
      </trkpt>
      <trkpt lat="50.46719" lon="4.99465">
        <ele>83</ele>
        <time>2022-03-29T20:51:17Z</time>
      </trkpt>
      <trkpt lat="50.46705" lon="4.9945">
        <ele>84</ele>
        <time>2022-03-29T20:51:20Z</time>
      </trkpt>
      <trkpt lat="50.46697" lon="4.99432">
        <ele>83</ele>
        <time>2022-03-29T20:51:23Z</time>
      </trkpt>
      <trkpt lat="50.46689" lon="4.99402">
        <ele>82</ele>
        <time>2022-03-29T20:51:26Z</time>
      </trkpt>
      <trkpt lat="50.46694" lon="4.99356">
        <ele>80</ele>
        <time>2022-03-29T20:51:32Z</time>
      </trkpt>
      <trkpt lat="50.46654" lon="4.99344">
        <ele>80</ele>
        <time>2022-03-29T20:51:39Z</time>
      </trkpt>
      <trkpt lat="50.46639" lon="4.99342">
        <ele>80</ele>
        <time>2022-03-29T20:51:42Z</time>
      </trkpt>
      <trkpt lat="50.46625" lon="4.99345">
        <ele>80</ele>
        <time>2022-03-29T20:51:44Z</time>
      </trkpt>
      <trkpt lat="50.46598" lon="4.99364">
        <ele>83</ele>
        <time>2022-03-29T20:51:49Z</time>
      </trkpt>
      <trkpt lat="50.46592" lon="4.99372">
        <ele>83</ele>
        <time>2022-03-29T20:51:51Z</time>
      </trkpt>
      <trkpt lat="50.46565" lon="4.99436">
        <ele>89</ele>
        <time>2022-03-29T20:51:59Z</time>
      </trkpt>
      <trkpt lat="50.46551" lon="4.9948">
        <ele>93</ele>
        <time>2022-03-29T20:52:05Z</time>
      </trkpt>
      <trkpt lat="50.46543" lon="4.9952">
        <ele>95</ele>
        <time>2022-03-29T20:52:10Z</time>
      </trkpt>
      <trkpt lat="50.4652" lon="4.99676">
        <ele>92</ele>
        <time>2022-03-29T20:52:28Z</time>
      </trkpt>
      <trkpt lat="50.46518" lon="4.99697">
        <ele>91</ele>
        <time>2022-03-29T20:52:30Z</time>
      </trkpt>
      <trkpt lat="50.46519" lon="4.99726">
        <ele>91</ele>
        <time>2022-03-29T20:52:34Z</time>
      </trkpt>
      <trkpt lat="50.46522" lon="4.99756">
        <ele>91</ele>
        <time>2022-03-29T20:52:37Z</time>
      </trkpt>
      <trkpt lat="50.46536" lon="4.99831">
        <ele>94</ele>
        <time>2022-03-29T20:52:46Z</time>
      </trkpt>
      <trkpt lat="50.46537" lon="4.99933">
        <ele>94</ele>
        <time>2022-03-29T20:52:57Z</time>
      </trkpt>
      <trkpt lat="50.46533" lon="4.99974">
        <ele>94</ele>
        <time>2022-03-29T20:53:02Z</time>
      </trkpt>
      <trkpt lat="50.46526" lon="5.00002">
        <ele>92</ele>
        <time>2022-03-29T20:53:06Z</time>
      </trkpt>
      <trkpt lat="50.46519" lon="5.00021">
        <ele>92</ele>
        <time>2022-03-29T20:53:08Z</time>
      </trkpt>
      <trkpt lat="50.4651" lon="5.00035">
        <ele>91</ele>
        <time>2022-03-29T20:53:10Z</time>
      </trkpt>
      <trkpt lat="50.46497" lon="5.00045">
        <ele>90</ele>
        <time>2022-03-29T20:53:13Z</time>
      </trkpt>
      <trkpt lat="50.46485" lon="5.00049">
        <ele>90</ele>
        <time>2022-03-29T20:53:15Z</time>
      </trkpt>
      <trkpt lat="50.46421" lon="5.00064">
        <ele>92</ele>
        <time>2022-03-29T20:53:27Z</time>
      </trkpt>
      <trkpt lat="50.46401" lon="5.0006">
        <ele>93</ele>
        <time>2022-03-29T20:53:30Z</time>
      </trkpt>
      <trkpt lat="50.46354" lon="5.00034">
        <ele>94</ele>
        <time>2022-03-29T20:53:39Z</time>
      </trkpt>
      <trkpt lat="50.46319" lon="5.0002">
        <ele>95</ele>
        <time>2022-03-29T20:53:45Z</time>
      </trkpt>
      <trkpt lat="50.46277" lon="5.00005">
        <ele>96</ele>
        <time>2022-03-29T20:53:53Z</time>
      </trkpt>
      <trkpt lat="50.46236" lon="4.99994">
        <ele>96</ele>
        <time>2022-03-29T20:54:01Z</time>
      </trkpt>
      <trkpt lat="50.4621" lon="4.9999">
        <ele>95</ele>
        <time>2022-03-29T20:54:05Z</time>
      </trkpt>
      <trkpt lat="50.46185" lon="4.9999">
        <ele>94</ele>
        <time>2022-03-29T20:54:10Z</time>
      </trkpt>
      <trkpt lat="50.46151" lon="4.99995">
        <ele>94</ele>
        <time>2022-03-29T20:54:16Z</time>
      </trkpt>
      <trkpt lat="50.46122" lon="5.00009">
        <ele>94</ele>
        <time>2022-03-29T20:54:21Z</time>
      </trkpt>
      <trkpt lat="50.46118" lon="4.99991">
        <ele>92</ele>
        <time>2022-03-29T20:54:23Z</time>
      </trkpt>
      <trkpt lat="50.46118" lon="4.99982">
        <ele>91</ele>
        <time>2022-03-29T20:54:24Z</time>
      </trkpt>
      <trkpt lat="50.46125" lon="4.99952">
        <ele>90</ele>
        <time>2022-03-29T20:54:28Z</time>
      </trkpt>
      <trkpt lat="50.46135" lon="4.99924">
        <ele>88</ele>
        <time>2022-03-29T20:54:32Z</time>
      </trkpt>
      <trkpt lat="50.46148" lon="4.99894">
        <ele>89</ele>
        <time>2022-03-29T20:54:36Z</time>
      </trkpt>
      <trkpt lat="50.46149" lon="4.99887">
        <ele>89</ele>
        <time>2022-03-29T20:54:36Z</time>
      </trkpt>
      <trkpt lat="50.46139" lon="4.99873">
        <ele>92</ele>
        <time>2022-03-29T20:54:39Z</time>
      </trkpt>
      <trkpt lat="50.46131" lon="4.99861">
        <ele>93</ele>
        <time>2022-03-29T20:54:41Z</time>
      </trkpt>
      <trkpt lat="50.46106" lon="4.99845">
        <ele>98</ele>
        <time>2022-03-29T20:54:46Z</time>
      </trkpt>
      <trkpt lat="50.46097" lon="4.99843">
        <ele>99</ele>
        <time>2022-03-29T20:54:47Z</time>
      </trkpt>
      <trkpt lat="50.46087" lon="4.99848">
        <ele>99</ele>
        <time>2022-03-29T20:54:49Z</time>
      </trkpt>
      <trkpt lat="50.46063" lon="4.99891">
        <ele>101</ele>
        <time>2022-03-29T20:54:56Z</time>
      </trkpt>
      <trkpt lat="50.46034" lon="4.9995">
        <ele>108</ele>
        <time>2022-03-29T20:55:04Z</time>
      </trkpt>
      <trkpt lat="50.46029" lon="4.99947">
        <ele>110</ele>
        <time>2022-03-29T20:55:05Z</time>
      </trkpt>
      <trkpt lat="50.46028" lon="4.99943">
        <ele>110</ele>
        <time>2022-03-29T20:55:05Z</time>
      </trkpt>
      <trkpt lat="50.46035" lon="4.99916">
        <ele>110</ele>
        <time>2022-03-29T20:55:09Z</time>
      </trkpt>
      <trkpt lat="50.46058" lon="4.99855">
        <ele>107</ele>
        <time>2022-03-29T20:55:17Z</time>
      </trkpt>
      <trkpt lat="50.46094" lon="4.99747">
        <ele>115</ele>
        <time>2022-03-29T20:55:31Z</time>
      </trkpt>
      <trkpt lat="50.46111" lon="4.9969">
        <ele>116</ele>
        <time>2022-03-29T20:55:38Z</time>
      </trkpt>
      <trkpt lat="50.46119" lon="4.99602">
        <ele>122</ele>
        <time>2022-03-29T20:55:48Z</time>
      </trkpt>
      <trkpt lat="50.46122" lon="4.99545">
        <ele>126</ele>
        <time>2022-03-29T20:55:54Z</time>
      </trkpt>
      <trkpt lat="50.46123" lon="4.99407">
        <ele>133</ele>
        <time>2022-03-29T20:56:10Z</time>
      </trkpt>
      <trkpt lat="50.46118" lon="4.99345">
        <ele>133</ele>
        <time>2022-03-29T20:56:17Z</time>
      </trkpt>
      <trkpt lat="50.46111" lon="4.99307">
        <ele>132</ele>
        <time>2022-03-29T20:56:21Z</time>
      </trkpt>
      <trkpt lat="50.4609" lon="4.99251">
        <ele>136</ele>
        <time>2022-03-29T20:56:29Z</time>
      </trkpt>
      <trkpt lat="50.46058" lon="4.99182">
        <ele>136</ele>
        <time>2022-03-29T20:56:39Z</time>
      </trkpt>
      <trkpt lat="50.46045" lon="4.99132">
        <ele>135</ele>
        <time>2022-03-29T20:56:45Z</time>
      </trkpt>
      <trkpt lat="50.46031" lon="4.99045">
        <ele>136</ele>
        <time>2022-03-29T20:56:55Z</time>
      </trkpt>
      <trkpt lat="50.4603" lon="4.99013">
        <ele>138</ele>
        <time>2022-03-29T20:56:58Z</time>
      </trkpt>
      <trkpt lat="50.46031" lon="4.98982">
        <ele>141</ele>
        <time>2022-03-29T20:57:02Z</time>
      </trkpt>
      <trkpt lat="50.46057" lon="4.98737">
        <ele>154</ele>
        <time>2022-03-29T20:57:30Z</time>
      </trkpt>
      <trkpt lat="50.46064" lon="4.98652">
        <ele>154</ele>
        <time>2022-03-29T20:57:40Z</time>
      </trkpt>
      <trkpt lat="50.46065" lon="4.98625">
        <ele>154</ele>
        <time>2022-03-29T20:57:43Z</time>
      </trkpt>
      <trkpt lat="50.46033" lon="4.98496">
        <ele>156</ele>
        <time>2022-03-29T20:57:59Z</time>
      </trkpt>
      <trkpt lat="50.46024" lon="4.98437">
        <ele>158</ele>
        <time>2022-03-29T20:58:05Z</time>
      </trkpt>
      <trkpt lat="50.46024" lon="4.98407">
        <ele>160</ele>
        <time>2022-03-29T20:58:09Z</time>
      </trkpt>
      <trkpt lat="50.46022" lon="4.98391">
        <ele>162</ele>
        <time>2022-03-29T20:58:11Z</time>
      </trkpt>
      <trkpt lat="50.45998" lon="4.98294">
        <ele>169</ele>
        <time>2022-03-29T20:58:22Z</time>
      </trkpt>
      <trkpt lat="50.45972" lon="4.98236">
        <ele>170</ele>
        <time>2022-03-29T20:58:30Z</time>
      </trkpt>
      <trkpt lat="50.45966" lon="4.98216">
        <ele>170</ele>
        <time>2022-03-29T20:58:33Z</time>
      </trkpt>
      <trkpt lat="50.45956" lon="4.98169">
        <ele>172</ele>
        <time>2022-03-29T20:58:39Z</time>
      </trkpt>
      <trkpt lat="50.45958" lon="4.98137">
        <ele>174</ele>
        <time>2022-03-29T20:58:42Z</time>
      </trkpt>
      <trkpt lat="50.45972" lon="4.98067">
        <ele>177</ele>
        <time>2022-03-29T20:58:51Z</time>
      </trkpt>
      <trkpt lat="50.45976" lon="4.98032">
        <ele>178</ele>
        <time>2022-03-29T20:58:55Z</time>
      </trkpt>
      <trkpt lat="50.45976" lon="4.98013">
        <ele>178</ele>
        <time>2022-03-29T20:58:57Z</time>
      </trkpt>
      <trkpt lat="50.45962" lon="4.97933">
        <ele>177</ele>
        <time>2022-03-29T20:59:06Z</time>
      </trkpt>
      <trkpt lat="50.45959" lon="4.97893">
        <ele>177</ele>
        <time>2022-03-29T20:59:11Z</time>
      </trkpt>
      <trkpt lat="50.4595" lon="4.97821">
        <ele>177</ele>
        <time>2022-03-29T20:59:19Z</time>
      </trkpt>
      <trkpt lat="50.45922" lon="4.9767">
        <ele>178</ele>
        <time>2022-03-29T20:59:37Z</time>
      </trkpt>
      <trkpt lat="50.45904" lon="4.97607">
        <ele>180</ele>
        <time>2022-03-29T20:59:45Z</time>
      </trkpt>
      <trkpt lat="50.45863" lon="4.9749">
        <ele>181</ele>
        <time>2022-03-29T21:00:00Z</time>
      </trkpt>
      <trkpt lat="50.45833" lon="4.97429">
        <ele>181</ele>
        <time>2022-03-29T21:00:08Z</time>
      </trkpt>
      <trkpt lat="50.45755" lon="4.97291">
        <ele>180</ele>
        <time>2022-03-29T21:00:29Z</time>
      </trkpt>
      <trkpt lat="50.45695" lon="4.9713">
        <ele>184</ele>
        <time>2022-03-29T21:00:51Z</time>
      </trkpt>
      <trkpt lat="50.45693" lon="4.97113">
        <ele>184</ele>
        <time>2022-03-29T21:00:52Z</time>
      </trkpt>
      <trkpt lat="50.45666" lon="4.97121">
        <ele>184</ele>
        <time>2022-03-29T21:00:57Z</time>
      </trkpt>
      <trkpt lat="50.45434" lon="4.97142">
        <ele>189</ele>
        <time>2022-03-29T21:01:39Z</time>
      </trkpt>
      <trkpt lat="50.45399" lon="4.97182">
        <ele>188</ele>
        <time>2022-03-29T21:01:46Z</time>
      </trkpt>
      <trkpt lat="50.45391" lon="4.97202">
        <ele>187</ele>
        <time>2022-03-29T21:01:49Z</time>
      </trkpt>
      <trkpt lat="50.45382" lon="4.9727">
        <ele>186</ele>
        <time>2022-03-29T21:01:57Z</time>
      </trkpt>
      <trkpt lat="50.45371" lon="4.97326">
        <ele>186</ele>
        <time>2022-03-29T21:02:04Z</time>
      </trkpt>
      <trkpt lat="50.45366" lon="4.97373">
        <ele>185</ele>
        <time>2022-03-29T21:02:09Z</time>
      </trkpt>
      <trkpt lat="50.45362" lon="4.97396">
        <ele>185</ele>
        <time>2022-03-29T21:02:12Z</time>
      </trkpt>
      <trkpt lat="50.45347" lon="4.97422">
        <ele>186</ele>
        <time>2022-03-29T21:02:16Z</time>
      </trkpt>
      <trkpt lat="50.45186" lon="4.97671">
        <ele>192</ele>
        <time>2022-03-29T21:02:56Z</time>
      </trkpt>
      <trkpt lat="50.45159" lon="4.97703">
        <ele>193</ele>
        <time>2022-03-29T21:03:02Z</time>
      </trkpt>
      <trkpt lat="50.45106" lon="4.97745">
        <ele>198</ele>
        <time>2022-03-29T21:03:12Z</time>
      </trkpt>
      <trkpt lat="50.45088" lon="4.97767">
        <ele>200</ele>
        <time>2022-03-29T21:03:17Z</time>
      </trkpt>
      <trkpt lat="50.45001" lon="4.97921">
        <ele>200</ele>
        <time>2022-03-29T21:03:40Z</time>
      </trkpt>
      <trkpt lat="50.44971" lon="4.97949">
        <ele>199</ele>
        <time>2022-03-29T21:03:46Z</time>
      </trkpt>
      <trkpt lat="50.44859" lon="4.97986">
        <ele>193</ele>
        <time>2022-03-29T21:04:06Z</time>
      </trkpt>
      <trkpt lat="50.44812" lon="4.9802">
        <ele>191</ele>
        <time>2022-03-29T21:04:16Z</time>
      </trkpt>
      <trkpt lat="50.44775" lon="4.98044">
        <ele>188</ele>
        <time>2022-03-29T21:04:23Z</time>
      </trkpt>
      <trkpt lat="50.44758" lon="4.98048">
        <ele>187</ele>
        <time>2022-03-29T21:04:26Z</time>
      </trkpt>
      <trkpt lat="50.44609" lon="4.98106">
        <ele>172</ele>
        <time>2022-03-29T21:04:53Z</time>
      </trkpt>
      <trkpt lat="50.44584" lon="4.98122">
        <ele>168</ele>
        <time>2022-03-29T21:04:58Z</time>
      </trkpt>
      <trkpt lat="50.44555" lon="4.98152">
        <ele>165</ele>
        <time>2022-03-29T21:05:04Z</time>
      </trkpt>
      <trkpt lat="50.44517" lon="4.9821">
        <ele>161</ele>
        <time>2022-03-29T21:05:14Z</time>
      </trkpt>
      <trkpt lat="50.44506" lon="4.98229">
        <ele>160</ele>
        <time>2022-03-29T21:05:16Z</time>
      </trkpt>
      <trkpt lat="50.44497" lon="4.98252">
        <ele>159</ele>
        <time>2022-03-29T21:05:20Z</time>
      </trkpt>
      <trkpt lat="50.44483" lon="4.9832">
        <ele>157</ele>
        <time>2022-03-29T21:05:28Z</time>
      </trkpt>
      <trkpt lat="50.44444" lon="4.98524">
        <ele>152</ele>
        <time>2022-03-29T21:05:52Z</time>
      </trkpt>
      <trkpt lat="50.44433" lon="4.98535">
        <ele>150</ele>
        <time>2022-03-29T21:05:54Z</time>
      </trkpt>
      <trkpt lat="50.44348" lon="4.98579">
        <ele>141</ele>
        <time>2022-03-29T21:06:10Z</time>
      </trkpt>
      <trkpt lat="50.44254" lon="4.98637">
        <ele>140</ele>
        <time>2022-03-29T21:06:28Z</time>
      </trkpt>
      <trkpt lat="50.44235" lon="4.98645">
        <ele>140</ele>
        <time>2022-03-29T21:06:31Z</time>
      </trkpt>
      <trkpt lat="50.44209" lon="4.98644">
        <ele>140</ele>
        <time>2022-03-29T21:06:36Z</time>
      </trkpt>
      <trkpt lat="50.44179" lon="4.98637">
        <ele>140</ele>
        <time>2022-03-29T21:06:41Z</time>
      </trkpt>
      <trkpt lat="50.4415" lon="4.98626">
        <ele>140</ele>
        <time>2022-03-29T21:06:47Z</time>
      </trkpt>
      <trkpt lat="50.44118" lon="4.98603">
        <ele>138</ele>
        <time>2022-03-29T21:06:53Z</time>
      </trkpt>
      <trkpt lat="50.44104" lon="4.98598">
        <ele>138</ele>
        <time>2022-03-29T21:06:56Z</time>
      </trkpt>
      <trkpt lat="50.44093" lon="4.98592">
        <ele>137</ele>
        <time>2022-03-29T21:06:58Z</time>
      </trkpt>
      <trkpt lat="50.44086" lon="4.98594">
        <ele>137</ele>
        <time>2022-03-29T21:06:59Z</time>
      </trkpt>
      <trkpt lat="50.44049" lon="4.98607">
        <ele>136</ele>
        <time>2022-03-29T21:07:06Z</time>
      </trkpt>
      <trkpt lat="50.44036" lon="4.98624">
        <ele>135</ele>
        <time>2022-03-29T21:07:09Z</time>
      </trkpt>
      <trkpt lat="50.4401" lon="4.98665">
        <ele>133</ele>
        <time>2022-03-29T21:07:15Z</time>
      </trkpt>
      <trkpt lat="50.44002" lon="4.98674">
        <ele>132</ele>
        <time>2022-03-29T21:07:17Z</time>
      </trkpt>
      <trkpt lat="50.43996" lon="4.9867">
        <ele>132</ele>
        <time>2022-03-29T21:07:18Z</time>
      </trkpt>
      <trkpt lat="50.43989" lon="4.98662">
        <ele>133</ele>
        <time>2022-03-29T21:07:20Z</time>
      </trkpt>
      <trkpt lat="50.43982" lon="4.98648">
        <ele>133</ele>
        <time>2022-03-29T21:07:22Z</time>
      </trkpt>
      <trkpt lat="50.43964" lon="4.98605">
        <ele>135</ele>
        <time>2022-03-29T21:07:28Z</time>
      </trkpt>
      <trkpt lat="50.43948" lon="4.98578">
        <ele>135</ele>
        <time>2022-03-29T21:07:32Z</time>
      </trkpt>
      <trkpt lat="50.43936" lon="4.98566">
        <ele>136</ele>
        <time>2022-03-29T21:07:34Z</time>
      </trkpt>
      <trkpt lat="50.43923" lon="4.9856">
        <ele>136</ele>
        <time>2022-03-29T21:07:37Z</time>
      </trkpt>
      <trkpt lat="50.43876" lon="4.98564">
        <ele>137</ele>
        <time>2022-03-29T21:07:45Z</time>
      </trkpt>
      <trkpt lat="50.43855" lon="4.98559">
        <ele>137</ele>
        <time>2022-03-29T21:07:49Z</time>
      </trkpt>
      <trkpt lat="50.43829" lon="4.98545">
        <ele>138</ele>
        <time>2022-03-29T21:07:54Z</time>
      </trkpt>
      <trkpt lat="50.43779" lon="4.98512">
        <ele>140</ele>
        <time>2022-03-29T21:08:03Z</time>
      </trkpt>
      <trkpt lat="50.43765" lon="4.98509">
        <ele>141</ele>
        <time>2022-03-29T21:08:06Z</time>
      </trkpt>
      <trkpt lat="50.43747" lon="4.9851">
        <ele>141</ele>
        <time>2022-03-29T21:08:09Z</time>
      </trkpt>
      <trkpt lat="50.43707" lon="4.98522">
        <ele>142</ele>
        <time>2022-03-29T21:08:16Z</time>
      </trkpt>
      <trkpt lat="50.43564" lon="4.98555">
        <ele>151</ele>
        <time>2022-03-29T21:08:42Z</time>
      </trkpt>
      <trkpt lat="50.43569" lon="4.98579">
        <ele>151</ele>
        <time>2022-03-29T21:08:45Z</time>
      </trkpt>
      <trkpt lat="50.43583" lon="4.98667">
        <ele>151</ele>
        <time>2022-03-29T21:08:55Z</time>
      </trkpt>
      <trkpt lat="50.43583" lon="4.98698">
        <ele>151</ele>
        <time>2022-03-29T21:08:59Z</time>
      </trkpt>
      <trkpt lat="50.43582" lon="4.98733">
        <ele>151</ele>
        <time>2022-03-29T21:09:03Z</time>
      </trkpt>
      <trkpt lat="50.43575" lon="4.98809">
        <ele>151</ele>
        <time>2022-03-29T21:09:11Z</time>
      </trkpt>
      <trkpt lat="50.43575" lon="4.98841">
        <ele>151</ele>
        <time>2022-03-29T21:09:15Z</time>
      </trkpt>
      <trkpt lat="50.4358" lon="4.98885">
        <ele>150</ele>
        <time>2022-03-29T21:09:20Z</time>
      </trkpt>
      <trkpt lat="50.43604" lon="4.99003">
        <ele>150</ele>
        <time>2022-03-29T21:09:34Z</time>
      </trkpt>
      <trkpt lat="50.43614" lon="4.99065">
        <ele>151</ele>
        <time>2022-03-29T21:09:41Z</time>
      </trkpt>
      <trkpt lat="50.43624" lon="4.99217">
        <ele>153</ele>
        <time>2022-03-29T21:09:59Z</time>
      </trkpt>
      <trkpt lat="50.43641" lon="4.99318">
        <ele>156</ele>
        <time>2022-03-29T21:10:11Z</time>
      </trkpt>
      <trkpt lat="50.43645" lon="4.99352">
        <ele>156</ele>
        <time>2022-03-29T21:10:14Z</time>
      </trkpt>
      <trkpt lat="50.43652" lon="4.99511">
        <ele>160</ele>
        <time>2022-03-29T21:10:32Z</time>
      </trkpt>
      <trkpt lat="50.43661" lon="4.99777">
        <ele>165</ele>
        <time>2022-03-29T21:11:03Z</time>
      </trkpt>
      <trkpt lat="50.43658" lon="4.99916">
        <ele>164</ele>
        <time>2022-03-29T21:11:18Z</time>
      </trkpt>
      <trkpt lat="50.43659" lon="4.99949">
        <ele>163</ele>
        <time>2022-03-29T21:11:22Z</time>
      </trkpt>
      <trkpt lat="50.43663" lon="4.9999">
        <ele>161</ele>
        <time>2022-03-29T21:11:27Z</time>
      </trkpt>
      <trkpt lat="50.43689" lon="5.00154">
        <ele>157</ele>
        <time>2022-03-29T21:11:46Z</time>
      </trkpt>
      <trkpt lat="50.43692" lon="5.00184">
        <ele>156</ele>
        <time>2022-03-29T21:11:49Z</time>
      </trkpt>
      <trkpt lat="50.43693" lon="5.00247">
        <ele>155</ele>
        <time>2022-03-29T21:11:57Z</time>
      </trkpt>
      <trkpt lat="50.43699" lon="5.00288">
        <ele>154</ele>
        <time>2022-03-29T21:12:01Z</time>
      </trkpt>
      <trkpt lat="50.43712" lon="5.00329">
        <ele>154</ele>
        <time>2022-03-29T21:12:07Z</time>
      </trkpt>
      <trkpt lat="50.43735" lon="5.00375">
        <ele>153</ele>
        <time>2022-03-29T21:12:13Z</time>
      </trkpt>
      <trkpt lat="50.43776" lon="5.00498">
        <ele>149</ele>
        <time>2022-03-29T21:12:29Z</time>
      </trkpt>
      <trkpt lat="50.4379" lon="5.00544">
        <ele>148</ele>
        <time>2022-03-29T21:12:35Z</time>
      </trkpt>
      <trkpt lat="50.43798" lon="5.00599">
        <ele>145</ele>
        <time>2022-03-29T21:12:41Z</time>
      </trkpt>
      <trkpt lat="50.43809" lon="5.00646">
        <ele>143</ele>
        <time>2022-03-29T21:12:47Z</time>
      </trkpt>
      <trkpt lat="50.43821" lon="5.00686">
        <ele>141</ele>
        <time>2022-03-29T21:12:52Z</time>
      </trkpt>
      <trkpt lat="50.43863" lon="5.00778">
        <ele>137</ele>
        <time>2022-03-29T21:13:05Z</time>
      </trkpt>
      <trkpt lat="50.43862" lon="5.00793">
        <ele>135</ele>
        <time>2022-03-29T21:13:06Z</time>
      </trkpt>
      <trkpt lat="50.43853" lon="5.00807">
        <ele>132</ele>
        <time>2022-03-29T21:13:09Z</time>
      </trkpt>
      <trkpt lat="50.43842" lon="5.00811">
        <ele>129</ele>
        <time>2022-03-29T21:13:11Z</time>
      </trkpt>
      <trkpt lat="50.43815" lon="5.00762">
        <ele>130</ele>
        <time>2022-03-29T21:13:18Z</time>
      </trkpt>
      <trkpt lat="50.43792" lon="5.00702">
        <ele>132</ele>
        <time>2022-03-29T21:13:26Z</time>
      </trkpt>
      <trkpt lat="50.43773" lon="5.00641">
        <ele>135</ele>
        <time>2022-03-29T21:13:34Z</time>
      </trkpt>
      <trkpt lat="50.43758" lon="5.00612">
        <ele>135</ele>
        <time>2022-03-29T21:13:38Z</time>
      </trkpt>
      <trkpt lat="50.43742" lon="5.0059">
        <ele>135</ele>
        <time>2022-03-29T21:13:42Z</time>
      </trkpt>
      <trkpt lat="50.4373" lon="5.0058">
        <ele>135</ele>
        <time>2022-03-29T21:13:44Z</time>
      </trkpt>
      <trkpt lat="50.43704" lon="5.00567">
        <ele>133</ele>
        <time>2022-03-29T21:13:49Z</time>
      </trkpt>
      <trkpt lat="50.43691" lon="5.00565">
        <ele>131</ele>
        <time>2022-03-29T21:13:51Z</time>
      </trkpt>
      <trkpt lat="50.43667" lon="5.00568">
        <ele>128</ele>
        <time>2022-03-29T21:13:55Z</time>
      </trkpt>
      <trkpt lat="50.43625" lon="5.00581">
        <ele>126</ele>
        <time>2022-03-29T21:14:03Z</time>
      </trkpt>
      <trkpt lat="50.43609" lon="5.00578">
        <ele>126</ele>
        <time>2022-03-29T21:14:06Z</time>
      </trkpt>
      <trkpt lat="50.4359" lon="5.00562">
        <ele>127</ele>
        <time>2022-03-29T21:14:10Z</time>
      </trkpt>
      <trkpt lat="50.43575" lon="5.00541">
        <ele>129</ele>
        <time>2022-03-29T21:14:13Z</time>
      </trkpt>
      <trkpt lat="50.43475" lon="5.00379">
        <ele>136</ele>
        <time>2022-03-29T21:14:39Z</time>
      </trkpt>
      <trkpt lat="50.43458" lon="5.00341">
        <ele>138</ele>
        <time>2022-03-29T21:14:44Z</time>
      </trkpt>
      <trkpt lat="50.43429" lon="5.00249">
        <ele>138</ele>
        <time>2022-03-29T21:14:56Z</time>
      </trkpt>
      <trkpt lat="50.43386" lon="5.00153">
        <ele>140</ele>
        <time>2022-03-29T21:15:09Z</time>
      </trkpt>
      <trkpt lat="50.4337" lon="5.00082">
        <ele>145</ele>
        <time>2022-03-29T21:15:18Z</time>
      </trkpt>
      <trkpt lat="50.43355" lon="5.00029">
        <ele>146</ele>
        <time>2022-03-29T21:15:24Z</time>
      </trkpt>
      <trkpt lat="50.43327" lon="4.99962">
        <ele>149</ele>
        <time>2022-03-29T21:15:33Z</time>
      </trkpt>
      <trkpt lat="50.4331" lon="4.99933">
        <ele>151</ele>
        <time>2022-03-29T21:15:38Z</time>
      </trkpt>
      <trkpt lat="50.43278" lon="4.99904">
        <ele>150</ele>
        <time>2022-03-29T21:15:44Z</time>
      </trkpt>
      <trkpt lat="50.43157" lon="4.99833">
        <ele>146</ele>
        <time>2022-03-29T21:16:07Z</time>
      </trkpt>
      <trkpt lat="50.43133" lon="4.99827">
        <ele>150</ele>
        <time>2022-03-29T21:16:12Z</time>
      </trkpt>
      <trkpt lat="50.43112" lon="4.9983">
        <ele>151</ele>
        <time>2022-03-29T21:16:15Z</time>
      </trkpt>
      <trkpt lat="50.43095" lon="4.9984">
        <ele>150</ele>
        <time>2022-03-29T21:16:19Z</time>
      </trkpt>
      <trkpt lat="50.43071" lon="4.9986">
        <ele>148</ele>
        <time>2022-03-29T21:16:23Z</time>
      </trkpt>
      <trkpt lat="50.42949" lon="4.99989">
        <ele>141</ele>
        <time>2022-03-29T21:16:50Z</time>
      </trkpt>
      <trkpt lat="50.42901" lon="5.00024">
        <ele>142</ele>
        <time>2022-03-29T21:16:59Z</time>
      </trkpt>
      <trkpt lat="50.42821" lon="5.00074">
        <ele>147</ele>
        <time>2022-03-29T21:17:14Z</time>
      </trkpt>
      <trkpt lat="50.42789" lon="5.00105">
        <ele>151</ele>
        <time>2022-03-29T21:17:21Z</time>
      </trkpt>
      <trkpt lat="50.4276" lon="5.00145">
        <ele>153</ele>
        <time>2022-03-29T21:17:28Z</time>
      </trkpt>
      <trkpt lat="50.42743" lon="5.00178">
        <ele>154</ele>
        <time>2022-03-29T21:17:33Z</time>
      </trkpt>
      <trkpt lat="50.42723" lon="5.00231">
        <ele>153</ele>
        <time>2022-03-29T21:17:40Z</time>
      </trkpt>
      <trkpt lat="50.42679" lon="5.00384">
        <ele>158</ele>
        <time>2022-03-29T21:17:59Z</time>
      </trkpt>
      <trkpt lat="50.4267" lon="5.00408">
        <ele>158</ele>
        <time>2022-03-29T21:18:02Z</time>
      </trkpt>
      <trkpt lat="50.42659" lon="5.00427">
        <ele>158</ele>
        <time>2022-03-29T21:18:05Z</time>
      </trkpt>
      <trkpt lat="50.42647" lon="5.00443">
        <ele>159</ele>
        <time>2022-03-29T21:18:08Z</time>
      </trkpt>
      <trkpt lat="50.42452" lon="5.00639">
        <ele>165</ele>
        <time>2022-03-29T21:18:49Z</time>
      </trkpt>
      <trkpt lat="50.42446" lon="5.00652">
        <ele>165</ele>
        <time>2022-03-29T21:18:51Z</time>
      </trkpt>
      <trkpt lat="50.42442" lon="5.0065">
        <ele>165</ele>
        <time>2022-03-29T21:18:51Z</time>
      </trkpt>
      <trkpt lat="50.42438" lon="5.00653">
        <ele>166</ele>
        <time>2022-03-29T21:18:52Z</time>
      </trkpt>
      <trkpt lat="50.42435" lon="5.00662">
        <ele>165</ele>
        <time>2022-03-29T21:18:53Z</time>
      </trkpt>
      <trkpt lat="50.42394" lon="5.00696">
        <ele>167</ele>
        <time>2022-03-29T21:19:02Z</time>
      </trkpt>
      <trkpt lat="50.42318" lon="5.00791">
        <ele>167</ele>
        <time>2022-03-29T21:19:19Z</time>
        <extensions>
          <visugpx:TrkExtension xmlns:visugpx="https://www.visugpx.com/editgpx/">
            <visugpx:etape>Chez Bibi à Faux Les Tombes.</visugpx:etape>
            </visugpx:TrkExtension>
        </extensions>
      </trkpt>
      <trkpt lat="50.42297" lon="5.00834">
        <ele>167</ele>
        <time>2022-03-29T21:19:25Z</time>
      </trkpt>
      <trkpt lat="50.42235" lon="5.00973">
        <ele>165</ele>
        <time>2022-03-29T21:19:44Z</time>
      </trkpt>
      <trkpt lat="50.42216" lon="5.00998">
        <ele>164</ele>
        <time>2022-03-29T21:19:49Z</time>
      </trkpt>
      <trkpt lat="50.41921" lon="5.0134">
        <ele>165</ele>
        <time>2022-03-29T21:20:54Z</time>
      </trkpt>
      <trkpt lat="50.41714" lon="5.01576">
        <ele>165</ele>
        <time>2022-03-29T21:21:39Z</time>
      </trkpt>
      <trkpt lat="50.41662" lon="5.01626">
        <ele>171</ele>
        <time>2022-03-29T21:21:50Z</time>
      </trkpt>
      <trkpt lat="50.4127" lon="5.01969">
        <ele>179</ele>
        <time>2022-03-29T21:23:10Z</time>
      </trkpt>
      <trkpt lat="50.41256" lon="5.01984">
        <ele>178</ele>
        <time>2022-03-29T21:23:13Z</time>
      </trkpt>
      <trkpt lat="50.41245" lon="5.01998">
        <ele>178</ele>
        <time>2022-03-29T21:23:16Z</time>
      </trkpt>
      <trkpt lat="50.41233" lon="5.02019">
        <ele>180</ele>
        <time>2022-03-29T21:23:19Z</time>
      </trkpt>
      <trkpt lat="50.41225" lon="5.02037">
        <ele>181</ele>
        <time>2022-03-29T21:23:21Z</time>
      </trkpt>
      <trkpt lat="50.41166" lon="5.02188">
        <ele>180</ele>
        <time>2022-03-29T21:23:41Z</time>
      </trkpt>
      <trkpt lat="50.41145" lon="5.02229">
        <ele>181</ele>
        <time>2022-03-29T21:23:47Z</time>
      </trkpt>
      <trkpt lat="50.41112" lon="5.02287">
        <ele>183</ele>
        <time>2022-03-29T21:23:56Z</time>
      </trkpt>
      <trkpt lat="50.40866" lon="5.02615">
        <ele>193</ele>
        <time>2022-03-29T21:24:54Z</time>
      </trkpt>
      <trkpt lat="50.40756" lon="5.02776">
        <ele>195</ele>
        <time>2022-03-29T21:25:20Z</time>
      </trkpt>
      <trkpt lat="50.40742" lon="5.02793">
        <ele>194</ele>
        <time>2022-03-29T21:25:24Z</time>
      </trkpt>
      <trkpt lat="50.40725" lon="5.02811">
        <ele>193</ele>
        <time>2022-03-29T21:25:27Z</time>
      </trkpt>
      <trkpt lat="50.407" lon="5.02826">
        <ele>193</ele>
        <time>2022-03-29T21:25:32Z</time>
      </trkpt>
      <trkpt lat="50.40611" lon="5.02859">
        <ele>200</ele>
        <time>2022-03-29T21:25:48Z</time>
      </trkpt>
      <trkpt lat="50.4059" lon="5.02876">
        <ele>200</ele>
        <time>2022-03-29T21:25:52Z</time>
      </trkpt>
      <trkpt lat="50.40543" lon="5.02942">
        <ele>198</ele>
        <time>2022-03-29T21:26:04Z</time>
      </trkpt>
      <trkpt lat="50.40528" lon="5.02967">
        <ele>198</ele>
        <time>2022-03-29T21:26:08Z</time>
      </trkpt>
      <trkpt lat="50.40509" lon="5.03007">
        <ele>196</ele>
        <time>2022-03-29T21:26:13Z</time>
      </trkpt>
      <trkpt lat="50.40489" lon="5.03068">
        <ele>196</ele>
        <time>2022-03-29T21:26:21Z</time>
      </trkpt>
      <trkpt lat="50.40473" lon="5.03102">
        <ele>198</ele>
        <time>2022-03-29T21:26:26Z</time>
      </trkpt>
      <trkpt lat="50.40428" lon="5.03154">
        <ele>200</ele>
        <time>2022-03-29T21:26:36Z</time>
      </trkpt>
      <trkpt lat="50.40411" lon="5.03187">
        <ele>201</ele>
        <time>2022-03-29T21:26:41Z</time>
      </trkpt>
      <trkpt lat="50.40403" lon="5.03202">
        <ele>201</ele>
        <time>2022-03-29T21:26:43Z</time>
      </trkpt>
      <trkpt lat="50.40391" lon="5.03226">
        <ele>201</ele>
        <time>2022-03-29T21:26:46Z</time>
      </trkpt>
      <trkpt lat="50.40379" lon="5.03238">
        <ele>201</ele>
        <time>2022-03-29T21:26:49Z</time>
      </trkpt>
      <trkpt lat="50.40286" lon="5.03277">
        <ele>200</ele>
        <time>2022-03-29T21:27:06Z</time>
      </trkpt>
      <trkpt lat="50.40259" lon="5.03292">
        <ele>200</ele>
        <time>2022-03-29T21:27:11Z</time>
      </trkpt>
      <trkpt lat="50.40227" lon="5.03314">
        <ele>199</ele>
        <time>2022-03-29T21:27:17Z</time>
      </trkpt>
      <trkpt lat="50.40194" lon="5.03343">
        <ele>197</ele>
        <time>2022-03-29T21:27:24Z</time>
      </trkpt>
      <trkpt lat="50.40183" lon="5.03358">
        <ele>198</ele>
        <time>2022-03-29T21:27:27Z</time>
      </trkpt>
      <trkpt lat="50.40172" lon="5.03377">
        <ele>198</ele>
        <time>2022-03-29T21:27:29Z</time>
      </trkpt>
      <trkpt lat="50.4011" lon="5.03521">
        <ele>203</ele>
        <time>2022-03-29T21:27:49Z</time>
      </trkpt>
      <trkpt lat="50.40083" lon="5.03564">
        <ele>199</ele>
        <time>2022-03-29T21:27:56Z</time>
      </trkpt>
      <trkpt lat="50.4007" lon="5.03579">
        <ele>199</ele>
        <time>2022-03-29T21:27:59Z</time>
      </trkpt>
      <trkpt lat="50.4" lon="5.03646">
        <ele>193</ele>
        <time>2022-03-29T21:28:13Z</time>
      </trkpt>
      <trkpt lat="50.39987" lon="5.03656">
        <ele>193</ele>
        <time>2022-03-29T21:28:16Z</time>
      </trkpt>
      <trkpt lat="50.39935" lon="5.03686">
        <ele>193</ele>
        <time>2022-03-29T21:28:26Z</time>
      </trkpt>
      <trkpt lat="50.39922" lon="5.037">
        <ele>193</ele>
        <time>2022-03-29T21:28:29Z</time>
      </trkpt>
      <trkpt lat="50.39915" lon="5.03711">
        <ele>193</ele>
        <time>2022-03-29T21:28:30Z</time>
      </trkpt>
      <trkpt lat="50.39905" lon="5.03733">
        <ele>194</ele>
        <time>2022-03-29T21:28:34Z</time>
      </trkpt>
      <trkpt lat="50.39901" lon="5.0375">
        <ele>194</ele>
        <time>2022-03-29T21:28:36Z</time>
      </trkpt>
      <trkpt lat="50.399" lon="5.03778">
        <ele>195</ele>
        <time>2022-03-29T21:28:39Z</time>
      </trkpt>
      <trkpt lat="50.39906" lon="5.03806">
        <ele>195</ele>
        <time>2022-03-29T21:28:42Z</time>
      </trkpt>
      <trkpt lat="50.4009" lon="5.04315">
        <ele>200</ele>
        <time>2022-03-29T21:29:49Z</time>
      </trkpt>
      <trkpt lat="50.40128" lon="5.04412">
        <ele>201</ele>
        <time>2022-03-29T21:30:01Z</time>
      </trkpt>
      <trkpt lat="50.40155" lon="5.04464">
        <ele>202</ele>
        <time>2022-03-29T21:30:09Z</time>
      </trkpt>
      <trkpt lat="50.40177" lon="5.04444">
        <ele>204</ele>
        <time>2022-03-29T21:30:14Z</time>
      </trkpt>
      <trkpt lat="50.40183" lon="5.04439">
        <ele>205</ele>
        <time>2022-03-29T21:30:15Z</time>
      </trkpt>
      <trkpt lat="50.40191" lon="5.04434">
        <ele>206</ele>
        <time>2022-03-29T21:30:16Z</time>
      </trkpt>
      <trkpt lat="50.402" lon="5.04433">
        <ele>207</ele>
        <time>2022-03-29T21:30:18Z</time>
      </trkpt>
      <trkpt lat="50.40209" lon="5.04436">
        <ele>208</ele>
        <time>2022-03-29T21:30:20Z</time>
      </trkpt>
      <trkpt lat="50.40226" lon="5.0445">
        <ele>208</ele>
        <time>2022-03-29T21:30:23Z</time>
      </trkpt>
      <trkpt lat="50.40244" lon="5.04473">
        <ele>207</ele>
        <time>2022-03-29T21:30:27Z</time>
      </trkpt>
      <trkpt lat="50.40267" lon="5.04512">
        <ele>206</ele>
        <time>2022-03-29T21:30:33Z</time>
      </trkpt>
      <trkpt lat="50.40281" lon="5.04526">
        <ele>207</ele>
        <time>2022-03-29T21:30:36Z</time>
      </trkpt>
      <trkpt lat="50.4029" lon="5.04527">
        <ele>208</ele>
        <time>2022-03-29T21:30:38Z</time>
      </trkpt>
      <trkpt lat="50.40298" lon="5.04526">
        <ele>210</ele>
        <time>2022-03-29T21:30:39Z</time>
      </trkpt>
      <trkpt lat="50.40309" lon="5.04517">
        <ele>212</ele>
        <time>2022-03-29T21:30:41Z</time>
      </trkpt>
      <trkpt lat="50.40328" lon="5.04493">
        <ele>217</ele>
        <time>2022-03-29T21:30:46Z</time>
      </trkpt>
      <trkpt lat="50.40334" lon="5.04492">
        <ele>218</ele>
        <time>2022-03-29T21:30:47Z</time>
      </trkpt>
      <trkpt lat="50.40344" lon="5.04495">
        <ele>221</ele>
        <time>2022-03-29T21:30:49Z</time>
      </trkpt>
      <trkpt lat="50.40351" lon="5.04502">
        <ele>222</ele>
        <time>2022-03-29T21:30:50Z</time>
      </trkpt>
      <trkpt lat="50.4036" lon="5.04517">
        <ele>223</ele>
        <time>2022-03-29T21:30:52Z</time>
      </trkpt>
      <trkpt lat="50.40403" lon="5.04613">
        <ele>224</ele>
        <time>2022-03-29T21:31:06Z</time>
      </trkpt>
      <trkpt lat="50.40533" lon="5.04923">
        <ele>228</ele>
        <time>2022-03-29T21:31:48Z</time>
      </trkpt>
      <trkpt lat="50.4054" lon="5.04953">
        <ele>228</ele>
        <time>2022-03-29T21:31:51Z</time>
      </trkpt>
      <trkpt lat="50.40552" lon="5.05039">
        <ele>225</ele>
        <time>2022-03-29T21:32:01Z</time>
      </trkpt>
      <trkpt lat="50.40626" lon="5.05322">
        <ele>226</ele>
        <time>2022-03-29T21:32:36Z</time>
      </trkpt>
      <trkpt lat="50.40634" lon="5.05345">
        <ele>227</ele>
        <time>2022-03-29T21:32:39Z</time>
      </trkpt>
      <trkpt lat="50.40641" lon="5.05321">
        <ele>229</ele>
        <time>2022-03-29T21:32:42Z</time>
      </trkpt>
      <trkpt lat="50.40645" lon="5.05251">
        <ele>234</ele>
        <time>2022-03-29T21:32:50Z</time>
      </trkpt>
      <trkpt lat="50.40645" lon="5.05222">
        <ele>236</ele>
        <time>2022-03-29T21:32:53Z</time>
      </trkpt>
      <trkpt lat="50.40643" lon="5.05194">
        <ele>237</ele>
        <time>2022-03-29T21:32:56Z</time>
      </trkpt>
      <trkpt lat="50.40607" lon="5.05007">
        <ele>241</ele>
        <time>2022-03-29T21:33:19Z</time>
      </trkpt>
      <trkpt lat="50.40584" lon="5.04879">
        <ele>245</ele>
        <time>2022-03-29T21:33:34Z</time>
      </trkpt>
      <trkpt lat="50.40585" lon="5.04864">
        <ele>247</ele>
        <time>2022-03-29T21:33:35Z</time>
      </trkpt>
      <trkpt lat="50.40587" lon="5.04857">
        <ele>248</ele>
        <time>2022-03-29T21:33:36Z</time>
      </trkpt>
      <trkpt lat="50.40591" lon="5.04853">
        <ele>248</ele>
        <time>2022-03-29T21:33:37Z</time>
      </trkpt>
      <trkpt lat="50.406" lon="5.04853">
        <ele>250</ele>
        <time>2022-03-29T21:33:39Z</time>
      </trkpt>
      <trkpt lat="50.40604" lon="5.04857">
        <ele>250</ele>
        <time>2022-03-29T21:33:40Z</time>
      </trkpt>
      <trkpt lat="50.40611" lon="5.04869">
        <ele>251</ele>
        <time>2022-03-29T21:33:41Z</time>
      </trkpt>
      <trkpt lat="50.40633" lon="5.04928">
        <ele>252</ele>
        <time>2022-03-29T21:33:49Z</time>
      </trkpt>
      <trkpt lat="50.40642" lon="5.04945">
        <ele>253</ele>
        <time>2022-03-29T21:33:52Z</time>
      </trkpt>
      <trkpt lat="50.40658" lon="5.04962">
        <ele>255</ele>
        <time>2022-03-29T21:33:55Z</time>
      </trkpt>
      <trkpt lat="50.40669" lon="5.04971">
        <ele>257</ele>
        <time>2022-03-29T21:33:57Z</time>
      </trkpt>
      <trkpt lat="50.4067" lon="5.04982">
        <ele>257</ele>
        <time>2022-03-29T21:33:59Z</time>
      </trkpt>
      <trkpt lat="50.40677" lon="5.0501">
        <ele>256</ele>
        <time>2022-03-29T21:34:02Z</time>
      </trkpt>
      <trkpt lat="50.40724" lon="5.05139">
        <ele>255</ele>
        <time>2022-03-29T21:34:19Z</time>
      </trkpt>
      <trkpt lat="50.4075" lon="5.05197">
        <ele>256</ele>
        <time>2022-03-29T21:34:27Z</time>
      </trkpt>
      <trkpt lat="50.40851" lon="5.05358">
        <ele>261</ele>
        <time>2022-03-29T21:34:52Z</time>
      </trkpt>
      <trkpt lat="50.40866" lon="5.05376">
        <ele>260</ele>
        <time>2022-03-29T21:34:56Z</time>
      </trkpt>
      <trkpt lat="50.40885" lon="5.05384">
        <ele>260</ele>
        <time>2022-03-29T21:34:59Z</time>
      </trkpt>
      <trkpt lat="50.4091" lon="5.05388">
        <ele>261</ele>
        <time>2022-03-29T21:35:04Z</time>
      </trkpt>
      <trkpt lat="50.40936" lon="5.05398">
        <ele>260</ele>
        <time>2022-03-29T21:35:09Z</time>
      </trkpt>
      <trkpt lat="50.40944" lon="5.05418">
        <ele>260</ele>
        <time>2022-03-29T21:35:11Z</time>
      </trkpt>
      <trkpt lat="50.40988" lon="5.05483">
        <ele>254</ele>
        <time>2022-03-29T21:35:22Z</time>
      </trkpt>
      <trkpt lat="50.41007" lon="5.05515">
        <ele>253</ele>
        <time>2022-03-29T21:35:27Z</time>
      </trkpt>
      <trkpt lat="50.41023" lon="5.0553">
        <ele>253</ele>
        <time>2022-03-29T21:35:30Z</time>
      </trkpt>
      <trkpt lat="50.41032" lon="5.05532">
        <ele>254</ele>
        <time>2022-03-29T21:35:32Z</time>
      </trkpt>
      <trkpt lat="50.41039" lon="5.05528">
        <ele>255</ele>
        <time>2022-03-29T21:35:33Z</time>
      </trkpt>
      <trkpt lat="50.41082" lon="5.05537">
        <ele>259</ele>
        <time>2022-03-29T21:35:41Z</time>
      </trkpt>
      <trkpt lat="50.41093" lon="5.05548">
        <ele>259</ele>
        <time>2022-03-29T21:35:43Z</time>
      </trkpt>
      <trkpt lat="50.41129" lon="5.05598">
        <ele>257</ele>
        <time>2022-03-29T21:35:52Z</time>
      </trkpt>
      <trkpt lat="50.41151" lon="5.05621">
        <ele>257</ele>
        <time>2022-03-29T21:35:57Z</time>
      </trkpt>
      <trkpt lat="50.41268" lon="5.05805">
        <ele>263</ele>
        <time>2022-03-29T21:36:26Z</time>
      </trkpt>
      <trkpt lat="50.41245" lon="5.05985">
        <ele>262</ele>
        <time>2022-03-29T21:36:47Z</time>
      </trkpt>
      <trkpt lat="50.41253" lon="5.0599">
        <ele>262</ele>
        <time>2022-03-29T21:36:48Z</time>
      </trkpt>
      <trkpt lat="50.413" lon="5.06048">
        <ele>264</ele>
        <time>2022-03-29T21:36:59Z</time>
      </trkpt>
      <trkpt lat="50.41336" lon="5.06109">
        <ele>266</ele>
        <time>2022-03-29T21:37:08Z</time>
      </trkpt>
      <trkpt lat="50.41356" lon="5.06154">
        <ele>267</ele>
        <time>2022-03-29T21:37:15Z</time>
      </trkpt>
      <trkpt lat="50.41398" lon="5.06237">
        <ele>268</ele>
        <time>2022-03-29T21:37:27Z</time>
      </trkpt>
      <trkpt lat="50.41542" lon="5.06552">
        <ele>272</ele>
        <time>2022-03-29T21:38:11Z</time>
      </trkpt>
      <trkpt lat="50.4148" lon="5.06623">
        <ele>269</ele>
        <time>2022-03-29T21:38:24Z</time>
      </trkpt>
      <trkpt lat="50.41515" lon="5.06694">
        <ele>269</ele>
        <time>2022-03-29T21:38:34Z</time>
      </trkpt>
      <trkpt lat="50.41617" lon="5.0692">
        <ele>267</ele>
        <time>2022-03-29T21:39:06Z</time>
      </trkpt>
      <trkpt lat="50.41842" lon="5.07423">
        <ele>261</ele>
        <time>2022-03-29T21:40:16Z</time>
      </trkpt>
      <trkpt lat="50.41899" lon="5.07556">
        <ele>262</ele>
        <time>2022-03-29T21:40:34Z</time>
      </trkpt>
      <trkpt lat="50.41936" lon="5.07662">
        <ele>263</ele>
        <time>2022-03-29T21:40:47Z</time>
      </trkpt>
      <trkpt lat="50.41952" lon="5.077">
        <ele>263</ele>
        <time>2022-03-29T21:40:53Z</time>
      </trkpt>
      <trkpt lat="50.41966" lon="5.07738">
        <ele>263</ele>
        <time>2022-03-29T21:40:58Z</time>
      </trkpt>
      <trkpt lat="50.41971" lon="5.07757">
        <ele>263</ele>
        <time>2022-03-29T21:41:00Z</time>
      </trkpt>
      <trkpt lat="50.42" lon="5.07767">
        <ele>263</ele>
        <time>2022-03-29T21:41:05Z</time>
      </trkpt>
      <trkpt lat="50.42015" lon="5.07778">
        <ele>264</ele>
        <time>2022-03-29T21:41:08Z</time>
      </trkpt>
      <trkpt lat="50.42026" lon="5.07792">
        <ele>264</ele>
        <time>2022-03-29T21:41:11Z</time>
      </trkpt>
      <trkpt lat="50.42131" lon="5.07978">
        <ele>267</ele>
        <time>2022-03-29T21:41:39Z</time>
      </trkpt>
      <trkpt lat="50.42433" lon="5.07521">
        <ele>272</ele>
        <time>2022-03-29T21:42:53Z</time>
      </trkpt>
      <trkpt lat="50.4253" lon="5.07381">
        <ele>274</ele>
        <time>2022-03-29T21:43:17Z</time>
      </trkpt>
      <trkpt lat="50.42589" lon="5.07287">
        <ele>274</ele>
        <time>2022-03-29T21:43:32Z</time>
      </trkpt>
      <trkpt lat="50.42602" lon="5.07275">
        <ele>273</ele>
        <time>2022-03-29T21:43:35Z</time>
      </trkpt>
      <trkpt lat="50.42617" lon="5.07307">
        <ele>273</ele>
        <time>2022-03-29T21:43:39Z</time>
      </trkpt>
      <trkpt lat="50.42636" lon="5.0736">
        <ele>273</ele>
        <time>2022-03-29T21:43:46Z</time>
      </trkpt>
      <trkpt lat="50.42655" lon="5.07414">
        <ele>272</ele>
        <time>2022-03-29T21:43:53Z</time>
      </trkpt>
      <trkpt lat="50.42673" lon="5.07474">
        <ele>273</ele>
        <time>2022-03-29T21:44:00Z</time>
      </trkpt>
      <trkpt lat="50.42691" lon="5.07485">
        <ele>273</ele>
        <time>2022-03-29T21:44:04Z</time>
      </trkpt>
      <trkpt lat="50.42769" lon="5.0769">
        <ele>274</ele>
        <time>2022-03-29T21:44:31Z</time>
      </trkpt>
      <trkpt lat="50.42811" lon="5.07811">
        <ele>275</ele>
        <time>2022-03-29T21:44:47Z</time>
      </trkpt>
      <trkpt lat="50.42889" lon="5.08023">
        <ele>275</ele>
        <time>2022-03-29T21:45:14Z</time>
      </trkpt>
      <trkpt lat="50.42884" lon="5.08029">
        <ele>275</ele>
        <time>2022-03-29T21:45:15Z</time>
      </trkpt>
      <trkpt lat="50.42796" lon="5.08105">
        <ele>276</ele>
        <time>2022-03-29T21:45:33Z</time>
      </trkpt>
      <trkpt lat="50.42742" lon="5.08157">
        <ele>275</ele>
        <time>2022-03-29T21:45:45Z</time>
      </trkpt>
      <trkpt lat="50.42713" lon="5.08234">
        <ele>273</ele>
        <time>2022-03-29T21:45:55Z</time>
      </trkpt>
      <trkpt lat="50.42667" lon="5.08371">
        <ele>272</ele>
        <time>2022-03-29T21:46:12Z</time>
      </trkpt>
      <trkpt lat="50.4262" lon="5.0847">
        <ele>274</ele>
        <time>2022-03-29T21:46:26Z</time>
      </trkpt>
      <trkpt lat="50.42601" lon="5.08515">
        <ele>274</ele>
        <time>2022-03-29T21:46:32Z</time>
      </trkpt>
      <trkpt lat="50.42562" lon="5.08619">
        <ele>272</ele>
        <time>2022-03-29T21:46:46Z</time>
      </trkpt>
      <trkpt lat="50.42551" lon="5.08714">
        <ele>270</ele>
        <time>2022-03-29T21:46:57Z</time>
      </trkpt>
      <trkpt lat="50.42545" lon="5.08741">
        <ele>270</ele>
        <time>2022-03-29T21:47:00Z</time>
      </trkpt>
      <trkpt lat="50.42534" lon="5.08767">
        <ele>270</ele>
        <time>2022-03-29T21:47:04Z</time>
      </trkpt>
      <trkpt lat="50.42546" lon="5.08822">
        <ele>270</ele>
        <time>2022-03-29T21:47:10Z</time>
      </trkpt>
      <trkpt lat="50.42626" lon="5.09123">
        <ele>266</ele>
        <time>2022-03-29T21:47:47Z</time>
      </trkpt>
      <trkpt lat="50.42667" lon="5.09268">
        <ele>267</ele>
        <time>2022-03-29T21:48:05Z</time>
      </trkpt>
      <trkpt lat="50.42677" lon="5.09296">
        <ele>266</ele>
        <time>2022-03-29T21:48:09Z</time>
      </trkpt>
      <trkpt lat="50.4269" lon="5.09357">
        <ele>266</ele>
        <time>2022-03-29T21:48:16Z</time>
      </trkpt>
      <trkpt lat="50.42723" lon="5.09496">
        <ele>267</ele>
        <time>2022-03-29T21:48:33Z</time>
      </trkpt>
      <trkpt lat="50.42796" lon="5.09789">
        <ele>270</ele>
        <time>2022-03-29T21:49:09Z</time>
      </trkpt>
      <trkpt lat="50.43273" lon="5.11357">
        <ele>269</ele>
        <time>2022-03-29T21:52:26Z</time>
      </trkpt>
      <trkpt lat="50.43421" lon="5.11726">
        <ele>275</ele>
        <time>2022-03-29T21:53:15Z</time>
      </trkpt>
      <trkpt lat="50.43494" lon="5.11871">
        <ele>276</ele>
        <time>2022-03-29T21:53:36Z</time>
      </trkpt>
      <trkpt lat="50.43578" lon="5.12047">
        <ele>274</ele>
        <time>2022-03-29T21:54:01Z</time>
      </trkpt>
      <trkpt lat="50.43576" lon="5.12058">
        <ele>274</ele>
        <time>2022-03-29T21:54:02Z</time>
      </trkpt>
      <trkpt lat="50.43579" lon="5.12066">
        <ele>274</ele>
        <time>2022-03-29T21:54:03Z</time>
      </trkpt>
      <trkpt lat="50.43584" lon="5.1207">
        <ele>274</ele>
        <time>2022-03-29T21:54:04Z</time>
      </trkpt>
      <trkpt lat="50.4359" lon="5.12067">
        <ele>274</ele>
        <time>2022-03-29T21:54:05Z</time>
      </trkpt>
      <trkpt lat="50.43592" lon="5.12063">
        <ele>274</ele>
        <time>2022-03-29T21:54:06Z</time>
      </trkpt>
      <trkpt lat="50.43593" lon="5.12055">
        <ele>274</ele>
        <time>2022-03-29T21:54:07Z</time>
      </trkpt>
      <trkpt lat="50.43593" lon="5.1205">
        <ele>274</ele>
        <time>2022-03-29T21:54:07Z</time>
      </trkpt>
      <trkpt lat="50.43603" lon="5.12047">
        <ele>274</ele>
        <time>2022-03-29T21:54:09Z</time>
      </trkpt>
      <trkpt lat="50.43682" lon="5.12045">
        <ele>273</ele>
        <time>2022-03-29T21:54:23Z</time>
      </trkpt>
      <trkpt lat="50.43698" lon="5.12039">
        <ele>273</ele>
        <time>2022-03-29T21:54:26Z</time>
      </trkpt>
      <trkpt lat="50.43717" lon="5.12039">
        <ele>272</ele>
        <time>2022-03-29T21:54:30Z</time>
      </trkpt>
      <trkpt lat="50.43732" lon="5.12045">
        <ele>272</ele>
        <time>2022-03-29T21:54:32Z</time>
      </trkpt>
      <trkpt lat="50.43838" lon="5.12232">
        <ele>273</ele>
        <time>2022-03-29T21:55:01Z</time>
      </trkpt>
      <trkpt lat="50.43852" lon="5.12225">
        <ele>273</ele>
        <time>2022-03-29T21:55:03Z</time>
      </trkpt>
      <trkpt lat="50.43877" lon="5.12339">
        <ele>274</ele>
        <time>2022-03-29T21:55:17Z</time>
      </trkpt>
      <trkpt lat="50.44023" lon="5.13093">
        <ele>265</ele>
        <time>2022-03-29T21:56:46Z</time>
      </trkpt>
      <trkpt lat="50.44155" lon="5.1304">
        <ele>266</ele>
        <time>2022-03-29T21:57:11Z</time>
      </trkpt>
      <trkpt lat="50.44214" lon="5.1301">
        <ele>269</ele>
        <time>2022-03-29T21:57:22Z</time>
      </trkpt>
      <trkpt lat="50.44236" lon="5.13101">
        <ele>269</ele>
        <time>2022-03-29T21:57:33Z</time>
      </trkpt>
      <trkpt lat="50.44249" lon="5.13145">
        <ele>270</ele>
        <time>2022-03-29T21:57:38Z</time>
      </trkpt>
      <trkpt lat="50.44285" lon="5.13231">
        <ele>272</ele>
        <time>2022-03-29T21:57:50Z</time>
      </trkpt>
      <trkpt lat="50.44412" lon="5.13519">
        <ele>281</ele>
        <time>2022-03-29T21:58:30Z</time>
      </trkpt>
      <trkpt lat="50.44488" lon="5.13631">
        <ele>286</ele>
        <time>2022-03-29T21:58:48Z</time>
      </trkpt>
      <trkpt lat="50.44533" lon="5.13688">
        <ele>285</ele>
        <time>2022-03-29T21:58:58Z</time>
      </trkpt>
      <trkpt lat="50.44787" lon="5.13932">
        <ele>278</ele>
        <time>2022-03-29T21:59:51Z</time>
      </trkpt>
      <trkpt lat="50.44796" lon="5.13934">
        <ele>277</ele>
        <time>2022-03-29T21:59:53Z</time>
      </trkpt>
      <trkpt lat="50.44809" lon="5.13929">
        <ele>276</ele>
        <time>2022-03-29T21:59:55Z</time>
      </trkpt>
      <trkpt lat="50.44581" lon="5.14482">
        <ele>258</ele>
        <time>2022-03-29T22:01:10Z</time>
      </trkpt>
      <trkpt lat="50.44544" lon="5.14557">
        <ele>257</ele>
        <time>2022-03-29T22:01:21Z</time>
      </trkpt>
      <trkpt lat="50.44541" lon="5.14569">
        <ele>256</ele>
        <time>2022-03-29T22:01:22Z</time>
      </trkpt>
      <trkpt lat="50.44545" lon="5.1461">
        <ele>256</ele>
        <time>2022-03-29T22:01:27Z</time>
      </trkpt>
      <trkpt lat="50.44575" lon="5.14779">
        <ele>254</ele>
        <time>2022-03-29T22:01:47Z</time>
      </trkpt>
      <trkpt lat="50.44573" lon="5.14784">
        <ele>254</ele>
        <time>2022-03-29T22:01:47Z</time>
      </trkpt>
      <trkpt lat="50.44576" lon="5.14789">
        <ele>254</ele>
        <time>2022-03-29T22:01:48Z</time>
      </trkpt>
      <trkpt lat="50.4457" lon="5.14817">
        <ele>253</ele>
        <time>2022-03-29T22:01:52Z</time>
      </trkpt>
      <trkpt lat="50.44567" lon="5.14845">
        <ele>253</ele>
        <time>2022-03-29T22:01:55Z</time>
      </trkpt>
      <trkpt lat="50.44569" lon="5.14882">
        <ele>252</ele>
        <time>2022-03-29T22:01:59Z</time>
      </trkpt>
      <trkpt lat="50.44571" lon="5.14892">
        <ele>252</ele>
        <time>2022-03-29T22:02:00Z</time>
      </trkpt>
      <trkpt lat="50.44574" lon="5.14909">
        <ele>252</ele>
        <time>2022-03-29T22:02:02Z</time>
      </trkpt>
      <trkpt lat="50.44686" lon="5.1523">
        <ele>242</ele>
        <time>2022-03-29T22:02:44Z</time>
      </trkpt>
      <trkpt lat="50.44712" lon="5.15291">
        <ele>242</ele>
        <time>2022-03-29T22:02:52Z</time>
      </trkpt>
      <trkpt lat="50.44722" lon="5.153">
        <ele>241</ele>
        <time>2022-03-29T22:02:54Z</time>
      </trkpt>
      <trkpt lat="50.44831" lon="5.15349">
        <ele>238</ele>
        <time>2022-03-29T22:03:14Z</time>
      </trkpt>
      <trkpt lat="50.44843" lon="5.15351">
        <ele>238</ele>
        <time>2022-03-29T22:03:16Z</time>
      </trkpt>
      <trkpt lat="50.44861" lon="5.15349">
        <ele>237</ele>
        <time>2022-03-29T22:03:20Z</time>
      </trkpt>
      <trkpt lat="50.44878" lon="5.15343">
        <ele>236</ele>
        <time>2022-03-29T22:03:23Z</time>
      </trkpt>
      <trkpt lat="50.44894" lon="5.15331">
        <ele>235</ele>
        <time>2022-03-29T22:03:26Z</time>
      </trkpt>
      <trkpt lat="50.44914" lon="5.15311">
        <ele>235</ele>
        <time>2022-03-29T22:03:30Z</time>
      </trkpt>
      <trkpt lat="50.44931" lon="5.15298">
        <ele>236</ele>
        <time>2022-03-29T22:03:33Z</time>
      </trkpt>
      <trkpt lat="50.4499" lon="5.15272">
        <ele>239</ele>
        <time>2022-03-29T22:03:44Z</time>
      </trkpt>
      <trkpt lat="50.4503" lon="5.15258">
        <ele>242</ele>
        <time>2022-03-29T22:03:52Z</time>
      </trkpt>
      <trkpt lat="50.45047" lon="5.1526">
        <ele>243</ele>
        <time>2022-03-29T22:03:55Z</time>
      </trkpt>
      <trkpt lat="50.45103" lon="5.15282">
        <ele>244</ele>
        <time>2022-03-29T22:04:05Z</time>
      </trkpt>
      <trkpt lat="50.45091" lon="5.1533">
        <ele>242</ele>
        <time>2022-03-29T22:04:11Z</time>
      </trkpt>
      <trkpt lat="50.45081" lon="5.15348">
        <ele>241</ele>
        <time>2022-03-29T22:04:13Z</time>
      </trkpt>
      <trkpt lat="50.45052" lon="5.15383">
        <ele>239</ele>
        <time>2022-03-29T22:04:20Z</time>
      </trkpt>
      <trkpt lat="50.45045" lon="5.15401">
        <ele>239</ele>
        <time>2022-03-29T22:04:22Z</time>
      </trkpt>
      <trkpt lat="50.45041" lon="5.15422">
        <ele>238</ele>
        <time>2022-03-29T22:04:25Z</time>
      </trkpt>
      <trkpt lat="50.45041" lon="5.1545">
        <ele>237</ele>
        <time>2022-03-29T22:04:28Z</time>
      </trkpt>
      <trkpt lat="50.45045" lon="5.15478">
        <ele>237</ele>
        <time>2022-03-29T22:04:31Z</time>
      </trkpt>
      <trkpt lat="50.4506" lon="5.15526">
        <ele>238</ele>
        <time>2022-03-29T22:04:37Z</time>
      </trkpt>
      <trkpt lat="50.45075" lon="5.15582">
        <ele>238</ele>
        <time>2022-03-29T22:04:44Z</time>
      </trkpt>
      <trkpt lat="50.45063" lon="5.15637">
        <ele>237</ele>
        <time>2022-03-29T22:04:51Z</time>
      </trkpt>
      <trkpt lat="50.45066" lon="5.1574">
        <ele>235</ele>
        <time>2022-03-29T22:05:02Z</time>
      </trkpt>
      <trkpt lat="50.4507" lon="5.15782">
        <ele>235</ele>
        <time>2022-03-29T22:05:07Z</time>
      </trkpt>
      <trkpt lat="50.45088" lon="5.15876">
        <ele>236</ele>
        <time>2022-03-29T22:05:18Z</time>
      </trkpt>
      <trkpt lat="50.45097" lon="5.15888">
        <ele>236</ele>
        <time>2022-03-29T22:05:20Z</time>
      </trkpt>
      <trkpt lat="50.45094" lon="5.159">
        <ele>236</ele>
        <time>2022-03-29T22:05:22Z</time>
      </trkpt>
      <trkpt lat="50.45112" lon="5.16012">
        <ele>233</ele>
        <time>2022-03-29T22:05:35Z</time>
      </trkpt>
      <trkpt lat="50.4515" lon="5.1609">
        <ele>235</ele>
        <time>2022-03-29T22:05:46Z</time>
      </trkpt>
      <trkpt lat="50.4518" lon="5.16168">
        <ele>234</ele>
        <time>2022-03-29T22:05:56Z</time>
      </trkpt>
      <trkpt lat="50.45203" lon="5.16221">
        <ele>233</ele>
        <time>2022-03-29T22:06:04Z</time>
      </trkpt>
      <trkpt lat="50.45234" lon="5.16265">
        <ele>233</ele>
        <time>2022-03-29T22:06:11Z</time>
      </trkpt>
      <trkpt lat="50.45263" lon="5.16303">
        <ele>233</ele>
        <time>2022-03-29T22:06:18Z</time>
      </trkpt>
      <trkpt lat="50.4529" lon="5.16346">
        <ele>232</ele>
        <time>2022-03-29T22:06:25Z</time>
      </trkpt>
      <trkpt lat="50.45372" lon="5.16533">
        <ele>233</ele>
        <time>2022-03-29T22:06:50Z</time>
      </trkpt>
      <trkpt lat="50.45399" lon="5.16566">
        <ele>234</ele>
        <time>2022-03-29T22:06:57Z</time>
      </trkpt>
      <trkpt lat="50.45408" lon="5.16589">
        <ele>234</ele>
        <time>2022-03-29T22:07:00Z</time>
      </trkpt>
      <trkpt lat="50.45378" lon="5.16623">
        <ele>232</ele>
        <time>2022-03-29T22:07:06Z</time>
      </trkpt>
      <trkpt lat="50.4529" lon="5.16699">
        <ele>234</ele>
        <time>2022-03-29T22:07:24Z</time>
      </trkpt>
      <trkpt lat="50.45282" lon="5.1672">
        <ele>234</ele>
        <time>2022-03-29T22:07:27Z</time>
      </trkpt>
      <trkpt lat="50.45261" lon="5.16816">
        <ele>237</ele>
        <time>2022-03-29T22:07:38Z</time>
      </trkpt>
      <trkpt lat="50.45261" lon="5.16839">
        <ele>237</ele>
        <time>2022-03-29T22:07:41Z</time>
      </trkpt>
      <trkpt lat="50.45267" lon="5.16859">
        <ele>237</ele>
        <time>2022-03-29T22:07:43Z</time>
      </trkpt>
      <trkpt lat="50.45282" lon="5.16896">
        <ele>236</ele>
        <time>2022-03-29T22:07:48Z</time>
      </trkpt>
      <trkpt lat="50.45324" lon="5.16984">
        <ele>234</ele>
        <time>2022-03-29T22:08:01Z</time>
      </trkpt>
      <trkpt lat="50.45335" lon="5.17017">
        <ele>233</ele>
        <time>2022-03-29T22:08:05Z</time>
      </trkpt>
      <trkpt lat="50.45346" lon="5.17088">
        <ele>232</ele>
        <time>2022-03-29T22:08:13Z</time>
      </trkpt>
      <trkpt lat="50.45376" lon="5.17253">
        <ele>230</ele>
        <time>2022-03-29T22:08:33Z</time>
      </trkpt>
      <trkpt lat="50.45405" lon="5.17263">
        <ele>230</ele>
        <time>2022-03-29T22:08:38Z</time>
      </trkpt>
      <trkpt lat="50.45421" lon="5.17272">
        <ele>231</ele>
        <time>2022-03-29T22:08:41Z</time>
      </trkpt>
      <trkpt lat="50.45441" lon="5.17295">
        <ele>233</ele>
        <time>2022-03-29T22:08:46Z</time>
      </trkpt>
      <trkpt lat="50.45461" lon="5.17314">
        <ele>234</ele>
        <time>2022-03-29T22:08:50Z</time>
      </trkpt>
      <trkpt lat="50.45477" lon="5.17324">
        <ele>234</ele>
        <time>2022-03-29T22:08:53Z</time>
      </trkpt>
      <trkpt lat="50.45478" lon="5.17353">
        <ele>235</ele>
        <time>2022-03-29T22:08:56Z</time>
      </trkpt>
      <trkpt lat="50.45484" lon="5.17378">
        <ele>236</ele>
        <time>2022-03-29T22:08:59Z</time>
      </trkpt>
      <trkpt lat="50.45492" lon="5.17406">
        <ele>237</ele>
        <time>2022-03-29T22:09:03Z</time>
      </trkpt>
      <trkpt lat="50.45497" lon="5.17416">
        <ele>238</ele>
        <time>2022-03-29T22:09:04Z</time>
      </trkpt>
      <trkpt lat="50.45563" lon="5.17563">
        <ele>241</ele>
        <time>2022-03-29T22:09:24Z</time>
      </trkpt>
      <trkpt lat="50.46468" lon="5.19518">
        <ele>257</ele>
        <time>2022-03-29T22:13:58Z</time>
      </trkpt>
      <trkpt lat="50.46535" lon="5.19582">
        <ele>258</ele>
        <time>2022-03-29T22:14:12Z</time>
      </trkpt>
      <trkpt lat="50.46613" lon="5.19668">
        <ele>261</ele>
        <time>2022-03-29T22:14:29Z</time>
      </trkpt>
      <trkpt lat="50.4663" lon="5.19689">
        <ele>261</ele>
        <time>2022-03-29T22:14:33Z</time>
      </trkpt>
      <trkpt lat="50.46648" lon="5.19717">
        <ele>262</ele>
        <time>2022-03-29T22:14:37Z</time>
      </trkpt>
      <trkpt lat="50.46764" lon="5.19944">
        <ele>265</ele>
        <time>2022-03-29T22:15:10Z</time>
      </trkpt>
      <trkpt lat="50.47031" lon="5.20474">
        <ele>265</ele>
        <time>2022-03-29T22:16:27Z</time>
      </trkpt>
      <trkpt lat="50.4705" lon="5.20506">
        <ele>265</ele>
        <time>2022-03-29T22:16:32Z</time>
      </trkpt>
      <trkpt lat="50.47161" lon="5.20627">
        <ele>264</ele>
        <time>2022-03-29T22:16:56Z</time>
      </trkpt>
      <trkpt lat="50.47182" lon="5.20653">
        <ele>264</ele>
        <time>2022-03-29T22:17:01Z</time>
      </trkpt>
      <trkpt lat="50.47196" lon="5.20663">
        <ele>265</ele>
        <time>2022-03-29T22:17:03Z</time>
      </trkpt>
      <trkpt lat="50.47211" lon="5.20664">
        <ele>265</ele>
        <time>2022-03-29T22:17:06Z</time>
      </trkpt>
      <trkpt lat="50.47247" lon="5.20617">
        <ele>265</ele>
        <time>2022-03-29T22:17:14Z</time>
      </trkpt>
      <trkpt lat="50.4727" lon="5.20592">
        <ele>264</ele>
        <time>2022-03-29T22:17:19Z</time>
      </trkpt>
      <trkpt lat="50.47289" lon="5.20575">
        <ele>263</ele>
        <time>2022-03-29T22:17:23Z</time>
      </trkpt>
      <trkpt lat="50.47367" lon="5.20512">
        <ele>261</ele>
        <time>2022-03-29T22:17:39Z</time>
      </trkpt>
      <trkpt lat="50.47386" lon="5.20502">
        <ele>260</ele>
        <time>2022-03-29T22:17:42Z</time>
      </trkpt>
      <trkpt lat="50.47397" lon="5.20503">
        <ele>260</ele>
        <time>2022-03-29T22:17:44Z</time>
      </trkpt>
      <trkpt lat="50.4745" lon="5.20819">
        <ele>263</ele>
        <time>2022-03-29T22:18:21Z</time>
      </trkpt>
      <trkpt lat="50.47454" lon="5.20835">
        <ele>263</ele>
        <time>2022-03-29T22:18:23Z</time>
      </trkpt>
      <trkpt lat="50.47462" lon="5.20862">
        <ele>263</ele>
        <time>2022-03-29T22:18:27Z</time>
      </trkpt>
      <trkpt lat="50.47484" lon="5.20902">
        <ele>264</ele>
        <time>2022-03-29T22:18:33Z</time>
      </trkpt>
      <trkpt lat="50.47502" lon="5.20944">
        <ele>264</ele>
        <time>2022-03-29T22:18:38Z</time>
      </trkpt>
      <trkpt lat="50.47515" lon="5.2102">
        <ele>264</ele>
        <time>2022-03-29T22:18:47Z</time>
      </trkpt>
      <trkpt lat="50.47527" lon="5.21061">
        <ele>264</ele>
        <time>2022-03-29T22:18:52Z</time>
      </trkpt>
      <trkpt lat="50.4763" lon="5.21319">
        <ele>259</ele>
        <time>2022-03-29T22:19:27Z</time>
      </trkpt>
      <trkpt lat="50.47647" lon="5.21368">
        <ele>258</ele>
        <time>2022-03-29T22:19:33Z</time>
      </trkpt>
      <trkpt lat="50.47658" lon="5.2141">
        <ele>258</ele>
        <time>2022-03-29T22:19:38Z</time>
      </trkpt>
      <trkpt lat="50.47678" lon="5.21512">
        <ele>257</ele>
        <time>2022-03-29T22:19:51Z</time>
      </trkpt>
      <trkpt lat="50.47707" lon="5.2171">
        <ele>255</ele>
        <time>2022-03-29T22:20:14Z</time>
      </trkpt>
      <trkpt lat="50.47747" lon="5.21859">
        <ele>253</ele>
        <time>2022-03-29T22:20:32Z</time>
      </trkpt>
      <trkpt lat="50.47766" lon="5.21954">
        <ele>252</ele>
        <time>2022-03-29T22:20:43Z</time>
      </trkpt>
      <trkpt lat="50.47781" lon="5.2202">
        <ele>252</ele>
        <time>2022-03-29T22:20:51Z</time>
      </trkpt>
      <trkpt lat="50.47804" lon="5.22144">
        <ele>250</ele>
        <time>2022-03-29T22:21:06Z</time>
      </trkpt>
      <trkpt lat="50.47833" lon="5.22234">
        <ele>249</ele>
        <time>2022-03-29T22:21:17Z</time>
      </trkpt>
      <trkpt lat="50.47855" lon="5.22292">
        <ele>249</ele>
        <time>2022-03-29T22:21:25Z</time>
      </trkpt>
      <trkpt lat="50.47883" lon="5.22353">
        <ele>250</ele>
        <time>2022-03-29T22:21:33Z</time>
      </trkpt>
      <trkpt lat="50.47948" lon="5.22483">
        <ele>252</ele>
        <time>2022-03-29T22:21:52Z</time>
      </trkpt>
      <trkpt lat="50.47986" lon="5.22565">
        <ele>251</ele>
        <time>2022-03-29T22:22:03Z</time>
      </trkpt>
      <trkpt lat="50.47989" lon="5.22576">
        <ele>251</ele>
        <time>2022-03-29T22:22:05Z</time>
      </trkpt>
      <trkpt lat="50.47986" lon="5.22579">
        <ele>251</ele>
        <time>2022-03-29T22:22:05Z</time>
      </trkpt>
      <trkpt lat="50.47984" lon="5.22584">
        <ele>250</ele>
        <time>2022-03-29T22:22:06Z</time>
      </trkpt>
      <trkpt lat="50.47985" lon="5.22589">
        <ele>250</ele>
        <time>2022-03-29T22:22:07Z</time>
      </trkpt>
      <trkpt lat="50.47989" lon="5.22594">
        <ele>251</ele>
        <time>2022-03-29T22:22:08Z</time>
      </trkpt>
      <trkpt lat="50.47991" lon="5.22594">
        <ele>251</ele>
        <time>2022-03-29T22:22:08Z</time>
      </trkpt>
      <trkpt lat="50.47995" lon="5.22591">
        <ele>251</ele>
        <time>2022-03-29T22:22:09Z</time>
      </trkpt>
      <trkpt lat="50.47996" lon="5.22587">
        <ele>251</ele>
        <time>2022-03-29T22:22:09Z</time>
      </trkpt>
      <trkpt lat="50.48003" lon="5.22589">
        <ele>251</ele>
        <time>2022-03-29T22:22:11Z</time>
      </trkpt>
      <trkpt lat="50.48021" lon="5.22585">
        <ele>252</ele>
        <time>2022-03-29T22:22:14Z</time>
      </trkpt>
      <trkpt lat="50.48121" lon="5.22555">
        <ele>258</ele>
        <time>2022-03-29T22:22:32Z</time>
      </trkpt>
      <trkpt lat="50.48278" lon="5.22512">
        <ele>256</ele>
        <time>2022-03-29T22:23:00Z</time>
      </trkpt>
      <trkpt lat="50.48295" lon="5.22514">
        <ele>254</ele>
        <time>2022-03-29T22:23:03Z</time>
      </trkpt>
      <trkpt lat="50.48303" lon="5.22519">
        <ele>253</ele>
        <time>2022-03-29T22:23:05Z</time>
      </trkpt>
      <trkpt lat="50.48371" lon="5.22627">
        <ele>242</ele>
        <time>2022-03-29T22:23:22Z</time>
      </trkpt>
      <trkpt lat="50.4838" lon="5.22635">
        <ele>241</ele>
        <time>2022-03-29T22:23:24Z</time>
      </trkpt>
      <trkpt lat="50.48397" lon="5.22639">
        <ele>239</ele>
        <time>2022-03-29T22:23:27Z</time>
      </trkpt>
      <trkpt lat="50.4841" lon="5.22634">
        <ele>237</ele>
        <time>2022-03-29T22:23:29Z</time>
      </trkpt>
      <trkpt lat="50.48419" lon="5.22625">
        <ele>235</ele>
        <time>2022-03-29T22:23:31Z</time>
      </trkpt>
      <trkpt lat="50.4847" lon="5.22524">
        <ele>231</ele>
        <time>2022-03-29T22:23:46Z</time>
      </trkpt>
      <trkpt lat="50.48491" lon="5.22493">
        <ele>230</ele>
        <time>2022-03-29T22:23:51Z</time>
      </trkpt>
      <trkpt lat="50.48498" lon="5.22485">
        <ele>229</ele>
        <time>2022-03-29T22:23:52Z</time>
      </trkpt>
      <trkpt lat="50.48518" lon="5.22473">
        <ele>229</ele>
        <time>2022-03-29T22:23:56Z</time>
      </trkpt>
      <trkpt lat="50.48529" lon="5.22471">
        <ele>228</ele>
        <time>2022-03-29T22:23:58Z</time>
      </trkpt>
      <trkpt lat="50.48542" lon="5.22473">
        <ele>228</ele>
        <time>2022-03-29T22:24:01Z</time>
      </trkpt>
      <trkpt lat="50.4859" lon="5.2249">
        <ele>228</ele>
        <time>2022-03-29T22:24:09Z</time>
      </trkpt>
      <trkpt lat="50.48593" lon="5.2248">
        <ele>228</ele>
        <time>2022-03-29T22:24:11Z</time>
      </trkpt>
      <trkpt lat="50.48596" lon="5.22474">
        <ele>228</ele>
        <time>2022-03-29T22:24:11Z</time>
      </trkpt>
      <trkpt lat="50.48705" lon="5.22402">
        <ele>239</ele>
        <time>2022-03-29T22:24:32Z</time>
      </trkpt>
      <trkpt lat="50.48749" lon="5.22379">
        <ele>243</ele>
        <time>2022-03-29T22:24:41Z</time>
      </trkpt>
      <trkpt lat="50.48799" lon="5.22358">
        <ele>243</ele>
        <time>2022-03-29T22:24:50Z</time>
      </trkpt>
      <trkpt lat="50.48842" lon="5.22325">
        <ele>243</ele>
        <time>2022-03-29T22:24:58Z</time>
      </trkpt>
      <trkpt lat="50.48908" lon="5.22307">
        <ele>244</ele>
        <time>2022-03-29T22:25:10Z</time>
      </trkpt>
      <trkpt lat="50.4893" lon="5.22304">
        <ele>245</ele>
        <time>2022-03-29T22:25:14Z</time>
      </trkpt>
      <trkpt lat="50.4896" lon="5.22305">
        <ele>245</ele>
        <time>2022-03-29T22:25:20Z</time>
      </trkpt>
      <trkpt lat="50.49042" lon="5.22343">
        <ele>246</ele>
        <time>2022-03-29T22:25:35Z</time>
      </trkpt>
      <trkpt lat="50.49056" lon="5.22348">
        <ele>246</ele>
        <time>2022-03-29T22:25:37Z</time>
      </trkpt>
      <trkpt lat="50.49078" lon="5.22349">
        <ele>247</ele>
        <time>2022-03-29T22:25:41Z</time>
      </trkpt>
      <trkpt lat="50.49214" lon="5.22337">
        <ele>250</ele>
        <time>2022-03-29T22:26:06Z</time>
      </trkpt>
      <trkpt lat="50.4932" lon="5.2232">
        <ele>250</ele>
        <time>2022-03-29T22:26:24Z</time>
      </trkpt>
      <trkpt lat="50.49298" lon="5.22499">
        <ele>248</ele>
        <time>2022-03-29T22:26:45Z</time>
      </trkpt>
      <trkpt lat="50.49287" lon="5.22547">
        <ele>248</ele>
        <time>2022-03-29T22:26:51Z</time>
      </trkpt>
      <trkpt lat="50.49264" lon="5.22623">
        <ele>246</ele>
        <time>2022-03-29T22:27:00Z</time>
      </trkpt>
      <trkpt lat="50.49307" lon="5.22613">
        <ele>246</ele>
        <time>2022-03-29T22:27:08Z</time>
      </trkpt>
      <trkpt lat="50.49353" lon="5.22611">
        <ele>246</ele>
        <time>2022-03-29T22:27:16Z</time>
      </trkpt>
      <trkpt lat="50.49465" lon="5.22586">
        <ele>244</ele>
        <time>2022-03-29T22:27:36Z</time>
      </trkpt>
      <trkpt lat="50.49489" lon="5.22569">
        <ele>243</ele>
        <time>2022-03-29T22:27:41Z</time>
      </trkpt>
      <trkpt lat="50.49539" lon="5.22524">
        <ele>242</ele>
        <time>2022-03-29T22:27:51Z</time>
      </trkpt>
      <trkpt lat="50.49742" lon="5.22365">
        <ele>232</ele>
        <time>2022-03-29T22:28:32Z</time>
      </trkpt>
      <trkpt lat="50.49813" lon="5.22311">
        <ele>230</ele>
        <time>2022-03-29T22:28:46Z</time>
      </trkpt>
      <trkpt lat="50.49835" lon="5.22301">
        <ele>229</ele>
        <time>2022-03-29T22:28:50Z</time>
      </trkpt>
      <trkpt lat="50.49848" lon="5.22306">
        <ele>228</ele>
        <time>2022-03-29T22:28:52Z</time>
      </trkpt>
      <trkpt lat="50.49984" lon="5.22368">
        <ele>220</ele>
        <time>2022-03-29T22:29:17Z</time>
      </trkpt>
      <trkpt lat="50.50003" lon="5.2238">
        <ele>219</ele>
        <time>2022-03-29T22:29:21Z</time>
      </trkpt>
      <trkpt lat="50.5002" lon="5.22378">
        <ele>220</ele>
        <time>2022-03-29T22:29:24Z</time>
      </trkpt>
      <trkpt lat="50.50052" lon="5.22335">
        <ele>223</ele>
        <time>2022-03-29T22:29:32Z</time>
      </trkpt>
      <trkpt lat="50.50106" lon="5.22267">
        <ele>226</ele>
        <time>2022-03-29T22:29:44Z</time>
      </trkpt>
      <trkpt lat="50.50259" lon="5.22097">
        <ele>224</ele>
        <time>2022-03-29T22:30:17Z</time>
      </trkpt>
      <trkpt lat="50.50303" lon="5.22044">
        <ele>224</ele>
        <time>2022-03-29T22:30:27Z</time>
      </trkpt>
      <trkpt lat="50.5036" lon="5.21973">
        <ele>222</ele>
        <time>2022-03-29T22:30:40Z</time>
      </trkpt>
      <trkpt lat="50.50438" lon="5.21864">
        <ele>217</ele>
        <time>2022-03-29T22:30:59Z</time>
      </trkpt>
      <trkpt lat="50.50454" lon="5.21844">
        <ele>217</ele>
        <time>2022-03-29T22:31:02Z</time>
      </trkpt>
      <trkpt lat="50.50469" lon="5.21837">
        <ele>216</ele>
        <time>2022-03-29T22:31:05Z</time>
      </trkpt>
      <trkpt lat="50.50485" lon="5.21845">
        <ele>216</ele>
        <time>2022-03-29T22:31:08Z</time>
      </trkpt>
      <trkpt lat="50.50531" lon="5.21889">
        <ele>215</ele>
        <time>2022-03-29T22:31:18Z</time>
      </trkpt>
      <trkpt lat="50.50553" lon="5.21913">
        <ele>215</ele>
        <time>2022-03-29T22:31:22Z</time>
      </trkpt>
      <trkpt lat="50.5058" lon="5.21951">
        <ele>213</ele>
        <time>2022-03-29T22:31:29Z</time>
      </trkpt>
      <trkpt lat="50.50721" lon="5.22191">
        <ele>210</ele>
        <time>2022-03-29T22:32:06Z</time>
      </trkpt>
      <trkpt lat="50.50742" lon="5.22224">
        <ele>211</ele>
        <time>2022-03-29T22:32:11Z</time>
      </trkpt>
      <trkpt lat="50.50782" lon="5.22276">
        <ele>211</ele>
        <time>2022-03-29T22:32:20Z</time>
      </trkpt>
      <trkpt lat="50.50792" lon="5.22277">
        <ele>212</ele>
        <time>2022-03-29T22:32:22Z</time>
      </trkpt>
      <trkpt lat="50.50798" lon="5.22275">
        <ele>212</ele>
        <time>2022-03-29T22:32:23Z</time>
      </trkpt>
      <trkpt lat="50.50874" lon="5.22212">
        <ele>214</ele>
        <time>2022-03-29T22:32:38Z</time>
      </trkpt>
      <trkpt lat="50.50924" lon="5.2217">
        <ele>211</ele>
        <time>2022-03-29T22:32:49Z</time>
      </trkpt>
      <trkpt lat="50.51049" lon="5.22074">
        <ele>196</ele>
        <time>2022-03-29T22:33:13Z</time>
      </trkpt>
      <trkpt lat="50.51026" lon="5.22041">
        <ele>197</ele>
        <time>2022-03-29T22:33:19Z</time>
      </trkpt>
      <trkpt lat="50.51026" lon="5.22031">
        <ele>196</ele>
        <time>2022-03-29T22:33:20Z</time>
      </trkpt>
      <trkpt lat="50.51032" lon="5.22022">
        <ele>195</ele>
        <time>2022-03-29T22:33:21Z</time>
      </trkpt>
      <trkpt lat="50.51041" lon="5.22029">
        <ele>195</ele>
        <time>2022-03-29T22:33:23Z</time>
      </trkpt>
      <trkpt lat="50.51048" lon="5.22032">
        <ele>194</ele>
        <time>2022-03-29T22:33:25Z</time>
      </trkpt>
      <trkpt lat="50.51065" lon="5.22033">
        <ele>193</ele>
        <time>2022-03-29T22:33:28Z</time>
      </trkpt>
      <trkpt lat="50.51079" lon="5.22027">
        <ele>191</ele>
        <time>2022-03-29T22:33:30Z</time>
      </trkpt>
      <trkpt lat="50.51342" lon="5.21868">
        <ele>177</ele>
        <time>2022-03-29T22:34:20Z</time>
      </trkpt>
      <trkpt lat="50.51349" lon="5.21859">
        <ele>176</ele>
        <time>2022-03-29T22:34:22Z</time>
      </trkpt>
      <trkpt lat="50.5135" lon="5.21849">
        <ele>176</ele>
        <time>2022-03-29T22:34:23Z</time>
      </trkpt>
      <trkpt lat="50.51342" lon="5.21746">
        <ele>171</ele>
        <time>2022-03-29T22:34:35Z</time>
      </trkpt>
      <trkpt lat="50.51343" lon="5.21712">
        <ele>171</ele>
        <time>2022-03-29T22:34:39Z</time>
      </trkpt>
      <trkpt lat="50.51347" lon="5.21702">
        <ele>171</ele>
        <time>2022-03-29T22:34:40Z</time>
      </trkpt>
      <trkpt lat="50.51361" lon="5.21691">
        <ele>170</ele>
        <time>2022-03-29T22:34:43Z</time>
      </trkpt>
      <trkpt lat="50.51421" lon="5.2168">
        <ele>166</ele>
        <time>2022-03-29T22:34:53Z</time>
      </trkpt>
      <trkpt lat="50.51458" lon="5.2168">
        <ele>163</ele>
        <time>2022-03-29T22:35:00Z</time>
      </trkpt>
      <trkpt lat="50.51495" lon="5.21671">
        <ele>159</ele>
        <time>2022-03-29T22:35:07Z</time>
      </trkpt>
      <trkpt lat="50.51665" lon="5.21573">
        <ele>152</ele>
        <time>2022-03-29T22:35:39Z</time>
      </trkpt>
      <trkpt lat="50.5172" lon="5.21552">
        <ele>154</ele>
        <time>2022-03-29T22:35:49Z</time>
      </trkpt>
      <trkpt lat="50.51752" lon="5.21543">
        <ele>154</ele>
        <time>2022-03-29T22:35:55Z</time>
      </trkpt>
      <trkpt lat="50.51777" lon="5.21532">
        <ele>153</ele>
        <time>2022-03-29T22:35:59Z</time>
      </trkpt>
      <trkpt lat="50.51823" lon="5.21505">
        <ele>146</ele>
        <time>2022-03-29T22:36:08Z</time>
      </trkpt>
      <trkpt lat="50.51924" lon="5.21419">
        <ele>130</ele>
        <time>2022-03-29T22:36:29Z</time>
      </trkpt>
      <trkpt lat="50.51992" lon="5.21391">
        <ele>125</ele>
        <time>2022-03-29T22:36:41Z</time>
      </trkpt>
      <trkpt lat="50.52006" lon="5.21383">
        <ele>122</ele>
        <time>2022-03-29T22:36:44Z</time>
      </trkpt>
      <trkpt lat="50.52022" lon="5.21372">
        <ele>119</ele>
        <time>2022-03-29T22:36:47Z</time>
      </trkpt>
      <trkpt lat="50.52044" lon="5.21351">
        <ele>115</ele>
        <time>2022-03-29T22:36:51Z</time>
      </trkpt>
      <trkpt lat="50.52048" lon="5.21352">
        <ele>114</ele>
        <time>2022-03-29T22:36:52Z</time>
      </trkpt>
      <trkpt lat="50.52057" lon="5.21359">
        <ele>115</ele>
        <time>2022-03-29T22:36:54Z</time>
      </trkpt>
      <trkpt lat="50.52094" lon="5.21407">
        <ele>114</ele>
        <time>2022-03-29T22:37:02Z</time>
      </trkpt>
      <trkpt lat="50.52124" lon="5.21461">
        <ele>110</ele>
        <time>2022-03-29T22:37:11Z</time>
      </trkpt>
      <trkpt lat="50.52142" lon="5.21501">
        <ele>107</ele>
        <time>2022-03-29T22:37:16Z</time>
      </trkpt>
      <trkpt lat="50.52158" lon="5.2154">
        <ele>101</ele>
        <time>2022-03-29T22:37:21Z</time>
      </trkpt>
      <trkpt lat="50.52166" lon="5.21554">
        <ele>99</ele>
        <time>2022-03-29T22:37:24Z</time>
      </trkpt>
      <trkpt lat="50.52177" lon="5.21566">
        <ele>97</ele>
        <time>2022-03-29T22:37:26Z</time>
      </trkpt>
      <trkpt lat="50.52249" lon="5.21633">
        <ele>89</ele>
        <time>2022-03-29T22:37:41Z</time>
      </trkpt>
      <trkpt lat="50.52259" lon="5.21645">
        <ele>88</ele>
        <time>2022-03-29T22:37:43Z</time>
      </trkpt>
      <trkpt lat="50.5227" lon="5.21664">
        <ele>86</ele>
        <time>2022-03-29T22:37:46Z</time>
      </trkpt>
      <trkpt lat="50.523" lon="5.21793">
        <ele>78</ele>
        <time>2022-03-29T22:38:01Z</time>
      </trkpt>
      <trkpt lat="50.52313" lon="5.21835">
        <ele>77</ele>
        <time>2022-03-29T22:38:07Z</time>
      </trkpt>
      <trkpt lat="50.52316" lon="5.21852">
        <ele>77</ele>
        <time>2022-03-29T22:38:09Z</time>
      </trkpt>
      <trkpt lat="50.52314" lon="5.21856">
        <ele>77</ele>
        <time>2022-03-29T22:38:09Z</time>
      </trkpt>
      <trkpt lat="50.52313" lon="5.21868">
        <ele>77</ele>
        <time>2022-03-29T22:38:11Z</time>
      </trkpt>
      <trkpt lat="50.52316" lon="5.21877">
        <ele>77</ele>
        <time>2022-03-29T22:38:12Z</time>
      </trkpt>
      <trkpt lat="50.52325" lon="5.21883">
        <ele>76</ele>
        <time>2022-03-29T22:38:14Z</time>
      </trkpt>
      <trkpt lat="50.52331" lon="5.21881">
        <ele>76</ele>
        <time>2022-03-29T22:38:15Z</time>
      </trkpt>
      <trkpt lat="50.52336" lon="5.21874">
        <ele>76</ele>
        <time>2022-03-29T22:38:16Z</time>
      </trkpt>
      <trkpt lat="50.52338" lon="5.21868">
        <ele>76</ele>
        <time>2022-03-29T22:38:17Z</time>
      </trkpt>
      <trkpt lat="50.5235" lon="5.21855">
        <ele>76</ele>
        <time>2022-03-29T22:38:19Z</time>
      </trkpt>
      <trkpt lat="50.5237" lon="5.21843">
        <ele>75</ele>
        <time>2022-03-29T22:38:23Z</time>
      </trkpt>
      <trkpt lat="50.5238" lon="5.21835">
        <ele>75</ele>
        <time>2022-03-29T22:38:25Z</time>
      </trkpt>
      <trkpt lat="50.5239" lon="5.21824">
        <ele>75</ele>
        <time>2022-03-29T22:38:27Z</time>
      </trkpt>
      <trkpt lat="50.5241" lon="5.21789">
        <ele>76</ele>
        <time>2022-03-29T22:38:33Z</time>
      </trkpt>
      <trkpt lat="50.52421" lon="5.2178">
        <ele>76</ele>
        <time>2022-03-29T22:38:35Z</time>
      </trkpt>
      <trkpt lat="50.52427" lon="5.21781">
        <ele>76</ele>
        <time>2022-03-29T22:38:36Z</time>
      </trkpt>
      <trkpt lat="50.52434" lon="5.21778">
        <ele>76</ele>
        <time>2022-03-29T22:38:37Z</time>
      </trkpt>
      <trkpt lat="50.52439" lon="5.21772">
        <ele>77</ele>
        <time>2022-03-29T22:38:38Z</time>
      </trkpt>
      <trkpt lat="50.52441" lon="5.21762">
        <ele>77</ele>
        <time>2022-03-29T22:38:39Z</time>
      </trkpt>
      <trkpt lat="50.52441" lon="5.21753">
        <ele>77</ele>
        <time>2022-03-29T22:38:40Z</time>
      </trkpt>
      <trkpt lat="50.52438" lon="5.21745">
        <ele>78</ele>
        <time>2022-03-29T22:38:41Z</time>
      </trkpt>
      <trkpt lat="50.52439" lon="5.21727">
        <ele>79</ele>
        <time>2022-03-29T22:38:44Z</time>
      </trkpt>
      <trkpt lat="50.52442" lon="5.21709">
        <ele>80</ele>
        <time>2022-03-29T22:38:46Z</time>
      </trkpt>
      <trkpt lat="50.52449" lon="5.21687">
        <ele>81</ele>
        <time>2022-03-29T22:38:48Z</time>
      </trkpt>
      <trkpt lat="50.52455" lon="5.21671">
        <ele>82</ele>
        <time>2022-03-29T22:38:51Z</time>
      </trkpt>
      <trkpt lat="50.52542" lon="5.21539">
        <ele>84</ele>
        <time>2022-03-29T22:39:12Z</time>
      </trkpt>
      <trkpt lat="50.5257" lon="5.21508">
        <ele>82</ele>
        <time>2022-03-29T22:39:18Z</time>
      </trkpt>
      <trkpt lat="50.52591" lon="5.21489">
        <ele>82</ele>
        <time>2022-03-29T22:39:22Z</time>
      </trkpt>
      <trkpt lat="50.5264" lon="5.21456">
        <ele>81</ele>
        <time>2022-03-29T22:39:32Z</time>
      </trkpt>
      <trkpt lat="50.52676" lon="5.21439">
        <ele>79</ele>
        <time>2022-03-29T22:39:39Z</time>
      </trkpt>
      <trkpt lat="50.5284" lon="5.21367">
        <ele>79</ele>
        <time>2022-03-29T22:40:09Z</time>
      </trkpt>
      <trkpt lat="50.52853" lon="5.21381">
        <ele>77</ele>
        <time>2022-03-29T22:40:12Z</time>
      </trkpt>
      <trkpt lat="50.52861" lon="5.21396">
        <ele>76</ele>
        <time>2022-03-29T22:40:14Z</time>
      </trkpt>
      <trkpt lat="50.52868" lon="5.21441">
        <ele>75</ele>
        <time>2022-03-29T22:40:19Z</time>
      </trkpt>
      <trkpt lat="50.52837" lon="5.2169">
        <ele>71</ele>
        <time>2022-03-29T22:40:48Z</time>
      </trkpt>
      <trkpt lat="50.52829" lon="5.21739">
        <ele>70</ele>
        <time>2022-03-29T22:40:54Z</time>
      </trkpt>
      <trkpt lat="50.5282" lon="5.21779">
        <ele>70</ele>
        <time>2022-03-29T22:40:58Z</time>
      </trkpt>
      <trkpt lat="50.52809" lon="5.21817">
        <ele>70</ele>
        <time>2022-03-29T22:41:03Z</time>
      </trkpt>
      <trkpt lat="50.52781" lon="5.21897">
        <ele>70</ele>
        <time>2022-03-29T22:41:13Z</time>
      </trkpt>
      <trkpt lat="50.5272" lon="5.22082">
        <ele>69</ele>
        <time>2022-03-29T22:41:37Z</time>
      </trkpt>
      <trkpt lat="50.52693" lon="5.22153">
        <ele>70</ele>
        <time>2022-03-29T22:41:46Z</time>
      </trkpt>
      <trkpt lat="50.52666" lon="5.22208">
        <ele>70</ele>
        <time>2022-03-29T22:41:54Z</time>
      </trkpt>
      <trkpt lat="50.52599" lon="5.22331">
        <ele>71</ele>
        <time>2022-03-29T22:42:13Z</time>
      </trkpt>
      <trkpt lat="50.52576" lon="5.22377">
        <ele>72</ele>
        <time>2022-03-29T22:42:19Z</time>
      </trkpt>
      <trkpt lat="50.52547" lon="5.22425">
        <ele>72</ele>
        <time>2022-03-29T22:42:27Z</time>
      </trkpt>
      <trkpt lat="50.52487" lon="5.22507">
        <ele>69</ele>
        <time>2022-03-29T22:42:41Z</time>
      </trkpt>
      <trkpt lat="50.5245" lon="5.22554">
        <ele>72</ele>
        <time>2022-03-29T22:42:49Z</time>
      </trkpt>
      <trkpt lat="50.52422" lon="5.22578">
        <ele>73</ele>
        <time>2022-03-29T22:42:55Z</time>
      </trkpt>
      <trkpt lat="50.52385" lon="5.22602">
        <ele>74</ele>
        <time>2022-03-29T22:43:02Z</time>
      </trkpt>
      <trkpt lat="50.52346" lon="5.22611">
        <ele>74</ele>
        <time>2022-03-29T22:43:09Z</time>
      </trkpt>
      <trkpt lat="50.52305" lon="5.22612">
        <ele>73</ele>
        <time>2022-03-29T22:43:16Z</time>
      </trkpt>
      <trkpt lat="50.52259" lon="5.22602">
        <ele>71</ele>
        <time>2022-03-29T22:43:25Z</time>
      </trkpt>
      <trkpt lat="50.52118" lon="5.22554">
        <ele>73</ele>
        <time>2022-03-29T22:43:50Z</time>
      </trkpt>
      <trkpt lat="50.51986" lon="5.22547">
        <ele>71</ele>
        <time>2022-03-29T22:44:14Z</time>
      </trkpt>
      <trkpt lat="50.51924" lon="5.22552">
        <ele>69</ele>
        <time>2022-03-29T22:44:25Z</time>
      </trkpt>
      <trkpt lat="50.51916" lon="5.2257">
        <ele>68</ele>
        <time>2022-03-29T22:44:27Z</time>
      </trkpt>
      <trkpt lat="50.51913" lon="5.22594">
        <ele>68</ele>
        <time>2022-03-29T22:44:30Z</time>
      </trkpt>
      <trkpt lat="50.5192" lon="5.22673">
        <ele>72</ele>
        <time>2022-03-29T22:44:39Z</time>
      </trkpt>
      <trkpt lat="50.51904" lon="5.2277">
        <ele>76</ele>
        <time>2022-03-29T22:44:50Z</time>
      </trkpt>
      <trkpt lat="50.51901" lon="5.22842">
        <ele>76</ele>
        <time>2022-03-29T22:44:59Z</time>
      </trkpt>
      <trkpt lat="50.51908" lon="5.22959">
        <ele>76</ele>
        <time>2022-03-29T22:45:12Z</time>
      </trkpt>
      <trkpt lat="50.51943" lon="5.23117">
        <ele>77</ele>
        <time>2022-03-29T22:45:31Z</time>
      </trkpt>
      <trkpt lat="50.51968" lon="5.232">
        <ele>78</ele>
        <time>2022-03-29T22:45:41Z</time>
      </trkpt>
      <trkpt lat="50.51973" lon="5.23212">
        <ele>78</ele>
        <time>2022-03-29T22:45:43Z</time>
      </trkpt>
      <trkpt lat="50.51982" lon="5.23226">
        <ele>78</ele>
        <time>2022-03-29T22:45:45Z</time>
      </trkpt>
      <trkpt lat="50.51994" lon="5.23239">
        <ele>78</ele>
        <time>2022-03-29T22:45:48Z</time>
      </trkpt>
      <trkpt lat="50.52079" lon="5.23346">
        <ele>81</ele>
        <time>2022-03-29T22:46:07Z</time>
      </trkpt>
      <trkpt lat="50.5214" lon="5.23416">
        <ele>80</ele>
        <time>2022-03-29T22:46:20Z</time>
      </trkpt>
      <trkpt lat="50.52143" lon="5.23422">
        <ele>80</ele>
        <time>2022-03-29T22:46:21Z</time>
      </trkpt>
      <trkpt lat="50.52148" lon="5.23439">
        <ele>80</ele>
        <time>2022-03-29T22:46:23Z</time>
      </trkpt>
      <trkpt lat="50.52151" lon="5.23469">
        <ele>79</ele>
        <time>2022-03-29T22:46:27Z</time>
      </trkpt>
      <trkpt lat="50.52154" lon="5.2348">
        <ele>79</ele>
        <time>2022-03-29T22:46:28Z</time>
      </trkpt>
      <trkpt lat="50.52178" lon="5.23508">
        <ele>79</ele>
        <time>2022-03-29T22:46:34Z</time>
      </trkpt>
      <trkpt lat="50.52211" lon="5.2354">
        <ele>78</ele>
        <time>2022-03-29T22:46:40Z</time>
      </trkpt>
      <trkpt lat="50.52253" lon="5.23566">
        <ele>76</ele>
        <time>2022-03-29T22:46:49Z</time>
      </trkpt>
      <trkpt lat="50.52285" lon="5.23591">
        <ele>73</ele>
        <time>2022-03-29T22:46:55Z</time>
      </trkpt>
      <trkpt lat="50.52324" lon="5.23633">
        <ele>72</ele>
        <time>2022-03-29T22:47:03Z</time>
      </trkpt>
      <trkpt lat="50.52341" lon="5.23647">
        <ele>72</ele>
        <time>2022-03-29T22:47:07Z</time>
      </trkpt>
      <trkpt lat="50.52346" lon="5.23652">
        <ele>72</ele>
        <time>2022-03-29T22:47:08Z</time>
      </trkpt>
      <trkpt lat="50.52344" lon="5.23659">
        <ele>72</ele>
        <time>2022-03-29T22:47:09Z</time>
      </trkpt>
      <trkpt lat="50.52347" lon="5.23671">
        <ele>72</ele>
        <time>2022-03-29T22:47:10Z</time>
      </trkpt>
      <trkpt lat="50.52352" lon="5.23677">
        <ele>72</ele>
        <time>2022-03-29T22:47:11Z</time>
      </trkpt>
      <trkpt lat="50.52355" lon="5.23678">
        <ele>72</ele>
        <time>2022-03-29T22:47:12Z</time>
      </trkpt>
      <trkpt lat="50.52361" lon="5.23676">
        <ele>72</ele>
        <time>2022-03-29T22:47:13Z</time>
      </trkpt>
      <trkpt lat="50.52365" lon="5.23668">
        <ele>72</ele>
        <time>2022-03-29T22:47:14Z</time>
      </trkpt>
      <trkpt lat="50.5239" lon="5.23691">
        <ele>73</ele>
        <time>2022-03-29T22:47:19Z</time>
      </trkpt>
      <trkpt lat="50.5245" lon="5.23735">
        <ele>73</ele>
        <time>2022-03-29T22:47:31Z</time>
      </trkpt>
      <trkpt lat="50.52562" lon="5.23813">
        <ele>72</ele>
        <time>2022-03-29T22:47:53Z</time>
      </trkpt>
      <trkpt lat="50.52681" lon="5.23899">
        <ele>71</ele>
        <time>2022-03-29T22:48:16Z</time>
      </trkpt>
      <trkpt lat="50.52726" lon="5.23914">
        <ele>71</ele>
        <time>2022-03-29T22:48:24Z</time>
      </trkpt>
      <trkpt lat="50.52947" lon="5.24">
        <ele>71</ele>
        <time>2022-03-29T22:49:05Z</time>
      </trkpt>
      <trkpt lat="50.53033" lon="5.2403">
        <ele>77</ele>
        <time>2022-03-29T22:49:20Z</time>
      </trkpt>
      <trkpt lat="50.53043" lon="5.24035">
        <ele>78</ele>
        <time>2022-03-29T22:49:22Z</time>
      </trkpt>
      <trkpt lat="50.53054" lon="5.24049">
        <ele>78</ele>
        <time>2022-03-29T22:49:25Z</time>
      </trkpt>
      <trkpt lat="50.53101" lon="5.24116">
        <ele>81</ele>
        <time>2022-03-29T22:49:36Z</time>
      </trkpt>
      <trkpt lat="50.53126" lon="5.24149">
        <ele>83</ele>
        <time>2022-03-29T22:49:42Z</time>
      </trkpt>
      <trkpt lat="50.53147" lon="5.24178">
        <ele>83</ele>
        <time>2022-03-29T22:49:47Z</time>
      </trkpt>
      <trkpt lat="50.53154" lon="5.24192">
        <ele>82</ele>
        <time>2022-03-29T22:49:49Z</time>
      </trkpt>
      <trkpt lat="50.53155" lon="5.24211">
        <ele>79</ele>
        <time>2022-03-29T22:49:51Z</time>
      </trkpt>
      <trkpt lat="50.53151" lon="5.24229">
        <ele>75</ele>
        <time>2022-03-29T22:49:53Z</time>
      </trkpt>
      <trkpt lat="50.53147" lon="5.24229">
        <ele>75</ele>
        <time>2022-03-29T22:49:54Z</time>
      </trkpt>
      <trkpt lat="50.53143" lon="5.24231">
        <ele>74</ele>
        <time>2022-03-29T22:49:55Z</time>
      </trkpt>
      <trkpt lat="50.5314" lon="5.24236">
        <ele>73</ele>
        <time>2022-03-29T22:49:55Z</time>
      </trkpt>
      <trkpt lat="50.53139" lon="5.24242">
        <ele>72</ele>
        <time>2022-03-29T22:49:56Z</time>
      </trkpt>
      <trkpt lat="50.5314" lon="5.2425">
        <ele>71</ele>
        <time>2022-03-29T22:49:57Z</time>
      </trkpt>
      <trkpt lat="50.53142" lon="5.24256">
        <ele>71</ele>
        <time>2022-03-29T22:49:58Z</time>
      </trkpt>
      <trkpt lat="50.53147" lon="5.24259">
        <ele>71</ele>
        <time>2022-03-29T22:49:59Z</time>
      </trkpt>
      <trkpt lat="50.53151" lon="5.24259">
        <ele>72</ele>
        <time>2022-03-29T22:49:59Z</time>
      </trkpt>
      <trkpt lat="50.53155" lon="5.24256">
        <ele>72</ele>
        <time>2022-03-29T22:50:00Z</time>
      </trkpt>
      <trkpt lat="50.53161" lon="5.24269">
        <ele>73</ele>
        <time>2022-03-29T22:50:02Z</time>
      </trkpt>
      <trkpt lat="50.53169" lon="5.24282">
        <ele>74</ele>
        <time>2022-03-29T22:50:04Z</time>
      </trkpt>
      <trkpt lat="50.53201" lon="5.2432">
        <ele>76</ele>
        <time>2022-03-29T22:50:11Z</time>
      </trkpt>
      <trkpt lat="50.53218" lon="5.24343">
        <ele>71.5</ele>
      </trkpt>
      <trkpt lat="50.53255" lon="5.24394">
        <ele>76</ele>
        <time>2022-03-29T22:50:24Z</time>
      </trkpt>
      <trkpt lat="50.53301" lon="5.24469">
        <ele>79</ele>
        <time>2022-03-29T22:50:36Z</time>
      </trkpt>
      <trkpt lat="50.53342" lon="5.24551">
        <ele>78</ele>
        <time>2022-03-29T22:50:48Z</time>
      </trkpt>
      <trkpt lat="50.53389" lon="5.24663">
        <ele>87</ele>
        <time>2022-03-29T22:51:03Z</time>
      </trkpt>
      <trkpt lat="50.53427" lon="5.24769">
        <ele>83</ele>
        <time>2022-03-29T22:51:16Z</time>
      </trkpt>
      <trkpt lat="50.53472" lon="5.24912">
        <ele>77</ele>
        <time>2022-03-29T22:51:35Z</time>
      </trkpt>
      <trkpt lat="50.53659" lon="5.25569">
        <ele>71</ele>
        <time>2022-03-29T22:52:56Z</time>
      </trkpt>
      <trkpt lat="50.53675" lon="5.25636">
        <ele>72</ele>
        <time>2022-03-29T22:53:04Z</time>
      </trkpt>
      <trkpt lat="50.53764" lon="5.26088">
        <ele>74</ele>
        <time>2022-03-29T22:53:58Z</time>
      </trkpt>
      <trkpt lat="50.53775" lon="5.26176">
        <ele>76</ele>
        <time>2022-03-29T22:54:08Z</time>
      </trkpt>
      <trkpt lat="50.53776" lon="5.26287">
        <ele>79</ele>
        <time>2022-03-29T22:54:20Z</time>
      </trkpt>
      <trkpt lat="50.53767" lon="5.26359">
        <ele>81</ele>
        <time>2022-03-29T22:54:29Z</time>
      </trkpt>
      <trkpt lat="50.53753" lon="5.26444">
        <ele>79</ele>
        <time>2022-03-29T22:54:38Z</time>
      </trkpt>
      <trkpt lat="50.53747" lon="5.26528">
        <ele>77</ele>
        <time>2022-03-29T22:54:48Z</time>
      </trkpt>
      <trkpt lat="50.5375" lon="5.26639">
        <ele>72</ele>
        <time>2022-03-29T22:55:01Z</time>
      </trkpt>
      <trkpt lat="50.53755" lon="5.26689">
        <ele>73</ele>
        <time>2022-03-29T22:55:06Z</time>
      </trkpt>
      <trkpt lat="50.53753" lon="5.267">
        <ele>72</ele>
        <time>2022-03-29T22:55:08Z</time>
      </trkpt>
      <trkpt lat="50.53753" lon="5.26755">
        <ele>71</ele>
        <time>2022-03-29T22:55:14Z</time>
      </trkpt>
      <trkpt lat="50.53762" lon="5.26888">
        <ele>68</ele>
        <time>2022-03-29T22:55:29Z</time>
      </trkpt>
      <trkpt lat="50.53763" lon="5.2701">
        <ele>70</ele>
        <time>2022-03-29T22:55:43Z</time>
      </trkpt>
      <trkpt lat="50.53761" lon="5.27512">
        <ele>72</ele>
        <time>2022-03-29T22:56:40Z</time>
      </trkpt>
      <trkpt lat="50.53749" lon="5.27729">
        <ele>72</ele>
        <time>2022-03-29T22:57:04Z</time>
      </trkpt>
      <trkpt lat="50.53719" lon="5.28107">
        <ele>72</ele>
        <time>2022-03-29T22:57:47Z</time>
      </trkpt>
      <trkpt lat="50.53705" lon="5.28217">
        <ele>71</ele>
        <time>2022-03-29T22:58:00Z</time>
      </trkpt>
      <trkpt lat="50.53688" lon="5.28314">
        <ele>70</ele>
        <time>2022-03-29T22:58:11Z</time>
      </trkpt>
      <trkpt lat="50.53682" lon="5.28349">
        <ele>70</ele>
        <time>2022-03-29T22:58:15Z</time>
      </trkpt>
      <trkpt lat="50.53654" lon="5.28504">
        <ele>67</ele>
        <time>2022-03-29T22:58:34Z</time>
      </trkpt>
      <trkpt lat="50.5364" lon="5.28576">
        <ele>66</ele>
        <time>2022-03-29T22:58:42Z</time>
      </trkpt>
      <trkpt lat="50.53735" lon="5.28571">
        <ele>69</ele>
        <time>2022-03-29T22:58:59Z</time>
      </trkpt>
      <trkpt lat="50.53745" lon="5.286">
        <ele>69</ele>
        <time>2022-03-29T22:59:03Z</time>
      </trkpt>
      <trkpt lat="50.53768" lon="5.28708">
        <ele>70</ele>
        <time>2022-03-29T22:59:16Z</time>
      </trkpt>
      <trkpt lat="50.53788" lon="5.28815">
        <ele>69</ele>
        <time>2022-03-29T22:59:28Z</time>
      </trkpt>
      <trkpt lat="50.5379" lon="5.28831">
        <ele>69</ele>
        <time>2022-03-29T22:59:30Z</time>
      </trkpt>
      <trkpt lat="50.5379" lon="5.28843">
        <ele>69</ele>
        <time>2022-03-29T22:59:31Z</time>
      </trkpt>
      <trkpt lat="50.53787" lon="5.2886">
        <ele>69</ele>
        <time>2022-03-29T22:59:33Z</time>
      </trkpt>
      <trkpt lat="50.53752" lon="5.28947">
        <ele>68</ele>
        <time>2022-03-29T22:59:45Z</time>
      </trkpt>
      <trkpt lat="50.53747" lon="5.28967">
        <ele>68</ele>
        <time>2022-03-29T22:59:48Z</time>
      </trkpt>
      <trkpt lat="50.53744" lon="5.28989">
        <ele>68</ele>
        <time>2022-03-29T22:59:50Z</time>
      </trkpt>
      <trkpt lat="50.53744" lon="5.2901">
        <ele>68</ele>
        <time>2022-03-29T22:59:52Z</time>
      </trkpt>
      <trkpt lat="50.53773" lon="5.29287">
        <ele>70</ele>
        <time>2022-03-29T23:00:24Z</time>
      </trkpt>
      <trkpt lat="50.53779" lon="5.29331">
        <ele>69</ele>
        <time>2022-03-29T23:00:29Z</time>
      </trkpt>
      <trkpt lat="50.53788" lon="5.29378">
        <ele>70</ele>
        <time>2022-03-29T23:00:35Z</time>
      </trkpt>
      <trkpt lat="50.538" lon="5.29418">
        <ele>70</ele>
        <time>2022-03-29T23:00:40Z</time>
      </trkpt>
      <trkpt lat="50.53819" lon="5.29472">
        <ele>70</ele>
        <time>2022-03-29T23:00:47Z</time>
      </trkpt>
      <trkpt lat="50.5391" lon="5.29805">
        <ele>70</ele>
        <time>2022-03-29T23:01:28Z</time>
      </trkpt>
      <trkpt lat="50.53962" lon="5.29942">
        <ele>68</ele>
        <time>2022-03-29T23:01:46Z</time>
      </trkpt>
      <trkpt lat="50.5398" lon="5.29994">
        <ele>68</ele>
        <time>2022-03-29T23:01:53Z</time>
      </trkpt>
      <trkpt lat="50.5403" lon="5.30111">
        <ele>68</ele>
        <time>2022-03-29T23:02:09Z</time>
      </trkpt>
      <trkpt lat="50.5403" lon="5.30126">
        <ele>69</ele>
        <time>2022-03-29T23:02:10Z</time>
      </trkpt>
      <trkpt lat="50.54041" lon="5.30185">
        <ele>69</ele>
        <time>2022-03-29T23:02:17Z</time>
      </trkpt>
      <trkpt lat="50.5405" lon="5.30235">
        <ele>69</ele>
        <time>2022-03-29T23:02:23Z</time>
      </trkpt>
      <trkpt lat="50.54065" lon="5.30375">
        <ele>68</ele>
        <time>2022-03-29T23:02:39Z</time>
      </trkpt>
      <trkpt lat="50.54083" lon="5.30515">
        <ele>68</ele>
        <time>2022-03-29T23:02:55Z</time>
      </trkpt>
      <trkpt lat="50.54095" lon="5.30598">
        <ele>67</ele>
        <time>2022-03-29T23:03:05Z</time>
      </trkpt>
      <trkpt lat="50.54118" lon="5.30733">
        <ele>67</ele>
        <time>2022-03-29T23:03:21Z</time>
      </trkpt>
      <trkpt lat="50.54139" lon="5.30842">
        <ele>67</ele>
        <time>2022-03-29T23:03:34Z</time>
      </trkpt>
      <trkpt lat="50.54179" lon="5.31019">
        <ele>68</ele>
        <time>2022-03-29T23:03:55Z</time>
      </trkpt>
      <trkpt lat="50.54195" lon="5.31084">
        <ele>68</ele>
        <time>2022-03-29T23:04:03Z</time>
      </trkpt>
      <trkpt lat="50.54219" lon="5.31172">
        <ele>68</ele>
        <time>2022-03-29T23:04:14Z</time>
      </trkpt>
      <trkpt lat="50.54272" lon="5.31348">
        <ele>68</ele>
        <time>2022-03-29T23:04:36Z</time>
      </trkpt>
      <trkpt lat="50.54279" lon="5.31365">
        <ele>68</ele>
        <time>2022-03-29T23:04:38Z</time>
      </trkpt>
      <trkpt lat="50.54344" lon="5.31578">
        <ele>68</ele>
        <time>2022-03-29T23:05:05Z</time>
      </trkpt>
      <trkpt lat="50.54356" lon="5.3161">
        <ele>68</ele>
        <time>2022-03-29T23:05:09Z</time>
      </trkpt>
      <trkpt lat="50.54413" lon="5.31749">
        <ele>69</ele>
        <time>2022-03-29T23:05:27Z</time>
      </trkpt>
      <trkpt lat="50.54437" lon="5.31801">
        <ele>69</ele>
        <time>2022-03-29T23:05:35Z</time>
      </trkpt>
      <trkpt lat="50.5451" lon="5.31952">
        <ele>68</ele>
        <time>2022-03-29T23:05:56Z</time>
      </trkpt>
      <trkpt lat="50.54552" lon="5.32023">
        <ele>68</ele>
        <time>2022-03-29T23:06:07Z</time>
      </trkpt>
      <trkpt lat="50.54556" lon="5.32039">
        <ele>68</ele>
        <time>2022-03-29T23:06:09Z</time>
      </trkpt>
      <trkpt lat="50.54557" lon="5.32044">
        <ele>68</ele>
        <time>2022-03-29T23:06:10Z</time>
      </trkpt>
      <trkpt lat="50.54591" lon="5.32178">
        <ele>68</ele>
        <time>2022-03-29T23:06:26Z</time>
      </trkpt>
      <trkpt lat="50.54607" lon="5.32165">
        <ele>68</ele>
        <time>2022-03-29T23:06:29Z</time>
      </trkpt>
      <trkpt lat="50.54602" lon="5.32263">
        <ele>70</ele>
        <time>2022-03-29T23:06:40Z</time>
      </trkpt>
      <trkpt lat="50.54638" lon="5.32428">
        <ele>68</ele>
        <time>2022-03-29T23:07:00Z</time>
      </trkpt>
      <trkpt lat="50.54664" lon="5.32514">
        <ele>68</ele>
        <time>2022-03-29T23:07:11Z</time>
      </trkpt>
      <trkpt lat="50.54672" lon="5.32532">
        <ele>68</ele>
        <time>2022-03-29T23:07:13Z</time>
      </trkpt>
      <trkpt lat="50.54682" lon="5.32537">
        <ele>68</ele>
        <time>2022-03-29T23:07:15Z</time>
      </trkpt>
      <trkpt lat="50.547" lon="5.32562">
        <ele>68</ele>
        <time>2022-03-29T23:07:19Z</time>
      </trkpt>
      <trkpt lat="50.54751" lon="5.32613">
        <ele>68</ele>
        <time>2022-03-29T23:07:30Z</time>
      </trkpt>
      <trkpt lat="50.54893" lon="5.32743">
        <ele>68</ele>
        <time>2022-03-29T23:07:59Z</time>
      </trkpt>
      <trkpt lat="50.55042" lon="5.32902">
        <ele>67</ele>
        <time>2022-03-29T23:08:31Z</time>
      </trkpt>
      <trkpt lat="50.55179" lon="5.33018">
        <ele>67</ele>
        <time>2022-03-29T23:08:59Z</time>
      </trkpt>
      <trkpt lat="50.55284" lon="5.33128">
        <ele>68</ele>
        <time>2022-03-29T23:09:22Z</time>
      </trkpt>
      <trkpt lat="50.55331" lon="5.33038">
        <ele>69</ele>
        <time>2022-03-29T23:09:35Z</time>
      </trkpt>
      <trkpt lat="50.55348" lon="5.33008">
        <ele>71</ele>
        <time>2022-03-29T23:09:39Z</time>
      </trkpt>
      <trkpt lat="50.55384" lon="5.32948">
        <ele>81</ele>
        <time>2022-03-29T23:09:49Z</time>
      </trkpt>
      <trkpt lat="50.5552" lon="5.33193">
        <ele>80</ele>
        <time>2022-03-29T23:10:25Z</time>
      </trkpt>
      <trkpt lat="50.5554" lon="5.33221">
        <ele>82</ele>
        <time>2022-03-29T23:10:30Z</time>
      </trkpt>
      <trkpt lat="50.5557" lon="5.33254">
        <ele>80</ele>
        <time>2022-03-29T23:10:37Z</time>
      </trkpt>
      <trkpt lat="50.55611" lon="5.33303">
        <ele>85</ele>
        <time>2022-03-29T23:10:46Z</time>
      </trkpt>
      <trkpt lat="50.55628" lon="5.33332">
        <ele>86</ele>
        <time>2022-03-29T23:10:50Z</time>
      </trkpt>
      <trkpt lat="50.55757" lon="5.33598">
        <ele>71</ele>
        <time>2022-03-29T23:11:28Z</time>
      </trkpt>
      <trkpt lat="50.55905" lon="5.33907">
        <ele>72</ele>
        <time>2022-03-29T23:12:12Z</time>
      </trkpt>
      <trkpt lat="50.5592" lon="5.33934">
        <ele>71</ele>
        <time>2022-03-29T23:12:16Z</time>
      </trkpt>
      <trkpt lat="50.5593" lon="5.33946">
        <ele>73</ele>
        <time>2022-03-29T23:12:18Z</time>
      </trkpt>
      <trkpt lat="50.55974" lon="5.33983">
        <ele>81</ele>
        <time>2022-03-29T23:12:27Z</time>
      </trkpt>
      <trkpt lat="50.55988" lon="5.34001">
        <ele>82</ele>
        <time>2022-03-29T23:12:30Z</time>
      </trkpt>
      <trkpt lat="50.56" lon="5.34022">
        <ele>83</ele>
        <time>2022-03-29T23:12:33Z</time>
      </trkpt>
      <trkpt lat="50.56176" lon="5.34516">
        <ele>77</ele>
        <time>2022-03-29T23:13:37Z</time>
      </trkpt>
      <trkpt lat="50.56247" lon="5.34701">
        <ele>76</ele>
        <time>2022-03-29T23:14:02Z</time>
      </trkpt>
      <trkpt lat="50.56359" lon="5.35018">
        <ele>73</ele>
        <time>2022-03-29T23:14:43Z</time>
      </trkpt>
      <trkpt lat="50.56534" lon="5.35624">
        <ele>73</ele>
        <time>2022-03-29T23:15:58Z</time>
      </trkpt>
      <trkpt lat="50.56559" lon="5.35703">
        <ele>77</ele>
        <time>2022-03-29T23:16:08Z</time>
      </trkpt>
      <trkpt lat="50.56681" lon="5.36135">
        <ele>75</ele>
        <time>2022-03-29T23:17:02Z</time>
      </trkpt>
      <trkpt lat="50.56757" lon="5.36534">
        <ele>75</ele>
        <time>2022-03-29T23:17:49Z</time>
      </trkpt>
      <trkpt lat="50.56804" lon="5.36705">
        <ele>79</ele>
        <time>2022-03-29T23:18:10Z</time>
      </trkpt>
      <trkpt lat="50.56848" lon="5.36875">
        <ele>81</ele>
        <time>2022-03-29T23:18:30Z</time>
      </trkpt>
      <trkpt lat="50.56909" lon="5.37138">
        <ele>76</ele>
        <time>2022-03-29T23:19:02Z</time>
      </trkpt>
      <trkpt lat="50.57119" lon="5.37758">
        <ele>80</ele>
        <time>2022-03-29T23:20:21Z</time>
      </trkpt>
      <trkpt lat="50.57145" lon="5.37821">
        <ele>77</ele>
        <time>2022-03-29T23:20:30Z</time>
      </trkpt>
      <trkpt lat="50.57217" lon="5.37967">
        <ele>76</ele>
        <time>2022-03-29T23:20:51Z</time>
      </trkpt>
      <trkpt lat="50.57239" lon="5.38015">
        <ele>75</ele>
        <time>2022-03-29T23:20:58Z</time>
      </trkpt>
      <trkpt lat="50.57287" lon="5.38146">
        <ele>82</ele>
        <time>2022-03-29T23:21:15Z</time>
      </trkpt>
      <trkpt lat="50.57315" lon="5.38212">
        <ele>83</ele>
        <time>2022-03-29T23:21:24Z</time>
      </trkpt>
      <trkpt lat="50.57373" lon="5.38324">
        <ele>83</ele>
        <time>2022-03-29T23:21:40Z</time>
      </trkpt>
      <trkpt lat="50.57433" lon="5.38429">
        <ele>83</ele>
        <time>2022-03-29T23:21:56Z</time>
      </trkpt>
      <trkpt lat="50.57562" lon="5.38641">
        <ele>84</ele>
        <time>2022-03-29T23:22:29Z</time>
      </trkpt>
      <trkpt lat="50.57594" lon="5.387">
        <ele>83</ele>
        <time>2022-03-29T23:22:38Z</time>
      </trkpt>
      <trkpt lat="50.57674" lon="5.3886">
        <ele>79</ele>
        <time>2022-03-29T23:23:01Z</time>
      </trkpt>
      <trkpt lat="50.57852" lon="5.39162">
        <ele>83</ele>
        <time>2022-03-29T23:23:47Z</time>
      </trkpt>
      <trkpt lat="50.57861" lon="5.39183">
        <ele>84</ele>
        <time>2022-03-29T23:23:50Z</time>
      </trkpt>
      <trkpt lat="50.57865" lon="5.39198">
        <ele>84</ele>
        <time>2022-03-29T23:23:52Z</time>
      </trkpt>
      <trkpt lat="50.5787" lon="5.39239">
        <ele>80</ele>
        <time>2022-03-29T23:23:57Z</time>
      </trkpt>
      <trkpt lat="50.57869" lon="5.39307">
        <ele>75</ele>
        <time>2022-03-29T23:24:04Z</time>
      </trkpt>
      <trkpt lat="50.57869" lon="5.39338">
        <ele>73</ele>
        <time>2022-03-29T23:24:08Z</time>
      </trkpt>
      <trkpt lat="50.57877" lon="5.39375">
        <ele>72</ele>
        <time>2022-03-29T23:24:12Z</time>
      </trkpt>
      <trkpt lat="50.57939" lon="5.39521">
        <ele>71</ele>
        <time>2022-03-29T23:24:32Z</time>
      </trkpt>
      <trkpt lat="50.57948" lon="5.39547">
        <ele>71</ele>
        <time>2022-03-29T23:24:36Z</time>
      </trkpt>
      <trkpt lat="50.57951" lon="5.39572">
        <ele>70</ele>
        <time>2022-03-29T23:24:38Z</time>
      </trkpt>
      <trkpt lat="50.57953" lon="5.39601">
        <ele>70</ele>
        <time>2022-03-29T23:24:42Z</time>
      </trkpt>
      <trkpt lat="50.5795" lon="5.39629">
        <ele>69</ele>
        <time>2022-03-29T23:24:45Z</time>
      </trkpt>
      <trkpt lat="50.57944" lon="5.39655">
        <ele>68</ele>
        <time>2022-03-29T23:24:48Z</time>
      </trkpt>
      <trkpt lat="50.57936" lon="5.39675">
        <ele>67</ele>
        <time>2022-03-29T23:24:51Z</time>
      </trkpt>
      <trkpt lat="50.57928" lon="5.39691">
        <ele>67</ele>
        <time>2022-03-29T23:24:53Z</time>
      </trkpt>
      <trkpt lat="50.57888" lon="5.3975">
        <ele>66</ele>
        <time>2022-03-29T23:25:03Z</time>
      </trkpt>
      <trkpt lat="50.57881" lon="5.39743">
        <ele>66</ele>
        <time>2022-03-29T23:25:04Z</time>
      </trkpt>
      <trkpt lat="50.57873" lon="5.39745">
        <ele>65</ele>
        <time>2022-03-29T23:25:06Z</time>
      </trkpt>
      <trkpt lat="50.57868" lon="5.39752">
        <ele>65</ele>
        <time>2022-03-29T23:25:07Z</time>
      </trkpt>
      <trkpt lat="50.57866" lon="5.39762">
        <ele>66</ele>
        <time>2022-03-29T23:25:08Z</time>
      </trkpt>
      <trkpt lat="50.57867" lon="5.39772">
        <ele>66</ele>
        <time>2022-03-29T23:25:09Z</time>
      </trkpt>
      <trkpt lat="50.57872" lon="5.3978">
        <ele>66</ele>
        <time>2022-03-29T23:25:11Z</time>
      </trkpt>
      <trkpt lat="50.57879" lon="5.39782">
        <ele>66</ele>
        <time>2022-03-29T23:25:12Z</time>
      </trkpt>
      <trkpt lat="50.57885" lon="5.39779">
        <ele>66</ele>
        <time>2022-03-29T23:25:13Z</time>
      </trkpt>
      <trkpt lat="50.57925" lon="5.3991">
        <ele>66</ele>
        <time>2022-03-29T23:25:29Z</time>
      </trkpt>
      <trkpt lat="50.58037" lon="5.40231">
        <ele>66</ele>
        <time>2022-03-29T23:26:11Z</time>
      </trkpt>
      <trkpt lat="50.5814" lon="5.405">
        <ele>68</ele>
        <time>2022-03-29T23:26:46Z</time>
      </trkpt>
      <trkpt lat="50.58174" lon="5.40582">
        <ele>65</ele>
        <time>2022-03-29T23:26:57Z</time>
      </trkpt>
      <trkpt lat="50.5827" lon="5.40851">
        <ele>67</ele>
        <time>2022-03-29T23:27:32Z</time>
      </trkpt>
      <trkpt lat="50.58332" lon="5.41002">
        <ele>67</ele>
        <time>2022-03-29T23:27:52Z</time>
      </trkpt>
      <trkpt lat="50.5841" lon="5.41166">
        <ele>71</ele>
        <time>2022-03-29T23:28:16Z</time>
      </trkpt>
      <trkpt lat="50.58492" lon="5.41312">
        <ele>69</ele>
        <time>2022-03-29T23:28:38Z</time>
      </trkpt>
      <trkpt lat="50.58573" lon="5.41444">
        <ele>68</ele>
        <time>2022-03-29T23:28:58Z</time>
      </trkpt>
      <trkpt lat="50.58601" lon="5.41496">
        <ele>68</ele>
        <time>2022-03-29T23:29:06Z</time>
      </trkpt>
      <trkpt lat="50.5861" lon="5.41537">
        <ele>68</ele>
        <time>2022-03-29T23:29:11Z</time>
      </trkpt>
      <trkpt lat="50.58611" lon="5.41577">
        <ele>68</ele>
        <time>2022-03-29T23:29:15Z</time>
      </trkpt>
      <trkpt lat="50.58705" lon="5.4154">
        <ele>70</ele>
        <time>2022-03-29T23:29:33Z</time>
      </trkpt>
      <trkpt lat="50.58722" lon="5.41527">
        <ele>71</ele>
        <time>2022-03-29T23:29:36Z</time>
      </trkpt>
      <trkpt lat="50.58802" lon="5.41418">
        <ele>68</ele>
        <time>2022-03-29T23:29:55Z</time>
      </trkpt>
      <trkpt lat="50.58822" lon="5.41394">
        <ele>68</ele>
        <time>2022-03-29T23:29:59Z</time>
      </trkpt>
      <trkpt lat="50.58873" lon="5.41349">
        <ele>71</ele>
        <time>2022-03-29T23:30:10Z</time>
      </trkpt>
      <trkpt lat="50.58882" lon="5.41335">
        <ele>71</ele>
        <time>2022-03-29T23:30:12Z</time>
      </trkpt>
      <trkpt lat="50.58901" lon="5.41291">
        <ele>73</ele>
        <time>2022-03-29T23:30:18Z</time>
      </trkpt>
      <trkpt lat="50.58961" lon="5.41133">
        <ele>77</ele>
        <time>2022-03-29T23:30:39Z</time>
      </trkpt>
      <trkpt lat="50.58978" lon="5.41103">
        <ele>76</ele>
        <time>2022-03-29T23:30:43Z</time>
      </trkpt>
      <trkpt lat="50.58988" lon="5.41093">
        <ele>76</ele>
        <time>2022-03-29T23:30:45Z</time>
      </trkpt>
      <trkpt lat="50.59001" lon="5.41086">
        <ele>76</ele>
        <time>2022-03-29T23:30:48Z</time>
      </trkpt>
      <trkpt lat="50.59015" lon="5.41083">
        <ele>77</ele>
        <time>2022-03-29T23:30:50Z</time>
      </trkpt>
      <trkpt lat="50.59028" lon="5.41085">
        <ele>78</ele>
        <time>2022-03-29T23:30:53Z</time>
      </trkpt>
      <trkpt lat="50.59035" lon="5.41085">
        <ele>78</ele>
        <time>2022-03-29T23:30:54Z</time>
      </trkpt>
      <trkpt lat="50.59096" lon="5.41111">
        <ele>83</ele>
        <time>2022-03-29T23:31:05Z</time>
      </trkpt>
      <trkpt lat="50.59183" lon="5.41143">
        <ele>85</ele>
        <time>2022-03-29T23:31:21Z</time>
      </trkpt>
      <trkpt lat="50.59208" lon="5.41149">
        <ele>86</ele>
        <time>2022-03-29T23:31:26Z</time>
      </trkpt>
      <trkpt lat="50.59222" lon="5.41149">
        <ele>87</ele>
        <time>2022-03-29T23:31:28Z</time>
      </trkpt>
      <trkpt lat="50.59282" lon="5.41122">
        <ele>88</ele>
        <time>2022-03-29T23:31:39Z</time>
      </trkpt>
      <trkpt lat="50.59489" lon="5.41082">
        <ele>81</ele>
        <time>2022-03-29T23:32:16Z</time>
      </trkpt>
      <trkpt lat="50.59517" lon="5.41083">
        <ele>81</ele>
        <time>2022-03-29T23:32:21Z</time>
      </trkpt>
      <trkpt lat="50.59657" lon="5.41112">
        <ele>85</ele>
        <time>2022-03-29T23:32:46Z</time>
      </trkpt>
      <trkpt lat="50.59782" lon="5.41108">
        <ele>87</ele>
        <time>2022-03-29T23:33:09Z</time>
      </trkpt>
      <trkpt lat="50.59798" lon="5.411">
        <ele>87</ele>
        <time>2022-03-29T23:33:12Z</time>
      </trkpt>
      <trkpt lat="50.5982" lon="5.41081">
        <ele>87</ele>
        <time>2022-03-29T23:33:16Z</time>
      </trkpt>
      <trkpt lat="50.59848" lon="5.41044">
        <ele>88</ele>
        <time>2022-03-29T23:33:23Z</time>
      </trkpt>
      <trkpt lat="50.59867" lon="5.4101">
        <ele>88</ele>
        <time>2022-03-29T23:33:28Z</time>
      </trkpt>
      <trkpt lat="50.59936" lon="5.40774">
        <ele>89</ele>
        <time>2022-03-29T23:33:57Z</time>
      </trkpt>
      <trkpt lat="50.59995" lon="5.40576">
        <ele>88</ele>
        <time>2022-03-29T23:34:22Z</time>
      </trkpt>
      <trkpt lat="50.60003" lon="5.40555">
        <ele>88</ele>
        <time>2022-03-29T23:34:25Z</time>
      </trkpt>
      <trkpt lat="50.60017" lon="5.40534">
        <ele>89</ele>
        <time>2022-03-29T23:34:28Z</time>
      </trkpt>
      <trkpt lat="50.6025" lon="5.40397">
        <ele>96</ele>
        <time>2022-03-29T23:35:12Z</time>
      </trkpt>
      <trkpt lat="50.6033" lon="5.4036">
        <ele>98</ele>
        <time>2022-03-29T23:35:27Z</time>
      </trkpt>
      <trkpt lat="50.60406" lon="5.40318">
        <ele>96</ele>
        <time>2022-03-29T23:35:41Z</time>
      </trkpt>
      <trkpt lat="50.60474" lon="5.40273">
        <ele>95</ele>
        <time>2022-03-29T23:35:55Z</time>
      </trkpt>
      <trkpt lat="50.60611" lon="5.40116">
        <ele>99</ele>
        <time>2022-03-29T23:36:25Z</time>
      </trkpt>
      <trkpt lat="50.60627" lon="5.40089">
        <ele>99</ele>
        <time>2022-03-29T23:36:29Z</time>
      </trkpt>
      <trkpt lat="50.60644" lon="5.40055">
        <ele>100</ele>
        <time>2022-03-29T23:36:34Z</time>
      </trkpt>
      <trkpt lat="50.60694" lon="5.39925">
        <ele>102</ele>
        <time>2022-03-29T23:36:51Z</time>
      </trkpt>
      <trkpt lat="50.60718" lon="5.39853">
        <ele>104</ele>
        <time>2022-03-29T23:37:00Z</time>
      </trkpt>
      <trkpt lat="50.60758" lon="5.39738">
        <ele>108</ele>
        <time>2022-03-29T23:37:15Z</time>
      </trkpt>
      <trkpt lat="50.60851" lon="5.39436">
        <ele>115</ele>
        <time>2022-03-29T23:37:53Z</time>
      </trkpt>
      <trkpt lat="50.60867" lon="5.3939">
        <ele>115</ele>
        <time>2022-03-29T23:37:59Z</time>
      </trkpt>
      <trkpt lat="50.60888" lon="5.39352">
        <ele>113</ele>
        <time>2022-03-29T23:38:04Z</time>
      </trkpt>
      <trkpt lat="50.60931" lon="5.39292">
        <ele>109</ele>
        <time>2022-03-29T23:38:15Z</time>
      </trkpt>
      <trkpt lat="50.60958" lon="5.3926">
        <ele>110</ele>
        <time>2022-03-29T23:38:21Z</time>
      </trkpt>
      <trkpt lat="50.60989" lon="5.39235">
        <ele>109</ele>
        <time>2022-03-29T23:38:27Z</time>
      </trkpt>
      <trkpt lat="50.61019" lon="5.39221">
        <ele>110</ele>
        <time>2022-03-29T23:38:32Z</time>
      </trkpt>
      <trkpt lat="50.61139" lon="5.39202">
        <ele>111</ele>
        <time>2022-03-29T23:38:54Z</time>
      </trkpt>
      <trkpt lat="50.61173" lon="5.39194">
        <ele>111</ele>
        <time>2022-03-29T23:39:00Z</time>
      </trkpt>
      <trkpt lat="50.61197" lon="5.39185">
        <ele>111</ele>
        <time>2022-03-29T23:39:04Z</time>
      </trkpt>
      <trkpt lat="50.61232" lon="5.39162">
        <ele>110</ele>
        <time>2022-03-29T23:39:11Z</time>
      </trkpt>
      <trkpt lat="50.6127" lon="5.3912">
        <ele>112</ele>
        <time>2022-03-29T23:39:19Z</time>
      </trkpt>
      <trkpt lat="50.61278" lon="5.3911">
        <ele>112</ele>
        <time>2022-03-29T23:39:21Z</time>
      </trkpt>
      <trkpt lat="50.61359" lon="5.39008">
        <ele>115</ele>
        <time>2022-03-29T23:39:40Z</time>
      </trkpt>
      <trkpt lat="50.61401" lon="5.38964">
        <ele>118</ele>
        <time>2022-03-29T23:39:49Z</time>
      </trkpt>
      <trkpt lat="50.61431" lon="5.3894">
        <ele>118</ele>
        <time>2022-03-29T23:39:55Z</time>
      </trkpt>
      <trkpt lat="50.61451" lon="5.38931">
        <ele>119</ele>
        <time>2022-03-29T23:39:58Z</time>
      </trkpt>
      <trkpt lat="50.6147" lon="5.38927">
        <ele>119</ele>
        <time>2022-03-29T23:40:02Z</time>
      </trkpt>
      <trkpt lat="50.61488" lon="5.3893">
        <ele>121</ele>
        <time>2022-03-29T23:40:05Z</time>
      </trkpt>
      <trkpt lat="50.615" lon="5.38937">
        <ele>123</ele>
        <time>2022-03-29T23:40:07Z</time>
      </trkpt>
      <trkpt lat="50.61562" lon="5.38992">
        <ele>124</ele>
        <time>2022-03-29T23:40:20Z</time>
      </trkpt>
      <trkpt lat="50.61584" lon="5.39009">
        <ele>124</ele>
        <time>2022-03-29T23:40:24Z</time>
      </trkpt>
      <trkpt lat="50.61619" lon="5.39029">
        <ele>126</ele>
        <time>2022-03-29T23:40:31Z</time>
      </trkpt>
      <trkpt lat="50.61676" lon="5.39072">
        <ele>128</ele>
        <time>2022-03-29T23:40:42Z</time>
      </trkpt>
      <trkpt lat="50.61707" lon="5.391">
        <ele>128</ele>
        <time>2022-03-29T23:40:48Z</time>
      </trkpt>
      <trkpt lat="50.61737" lon="5.39137">
        <ele>129</ele>
        <time>2022-03-29T23:40:55Z</time>
      </trkpt>
      <trkpt lat="50.61901" lon="5.39372">
        <ele>135</ele>
        <time>2022-03-29T23:41:35Z</time>
      </trkpt>
      <trkpt lat="50.61915" lon="5.39389">
        <ele>135</ele>
        <time>2022-03-29T23:41:38Z</time>
      </trkpt>
      <trkpt lat="50.62008" lon="5.39474">
        <ele>134</ele>
        <time>2022-03-29T23:41:57Z</time>
      </trkpt>
      <trkpt lat="50.62058" lon="5.39527">
        <ele>137</ele>
        <time>2022-03-29T23:42:08Z</time>
      </trkpt>
      <trkpt lat="50.62118" lon="5.39579">
        <ele>139</ele>
        <time>2022-03-29T23:42:20Z</time>
      </trkpt>
      <trkpt lat="50.62152" lon="5.39605">
        <ele>137</ele>
        <time>2022-03-29T23:42:27Z</time>
      </trkpt>
      <trkpt lat="50.62166" lon="5.39613">
        <ele>136</ele>
        <time>2022-03-29T23:42:29Z</time>
      </trkpt>
      <trkpt lat="50.62488" lon="5.39604">
        <ele>142</ele>
        <time>2022-03-29T23:43:27Z</time>
      </trkpt>
      <trkpt lat="50.62503" lon="5.39648">
        <ele>146</ele>
        <time>2022-03-29T23:43:32Z</time>
      </trkpt>
      <trkpt lat="50.62517" lon="5.39723">
        <ele>149</ele>
        <time>2022-03-29T23:43:41Z</time>
        <extensions>
          <visugpx:TrkExtension xmlns:visugpx="https://www.visugpx.com/editgpx/">
            <visugpx:node>7</visugpx:node>
            </visugpx:TrkExtension>
        </extensions>
      </trkpt>
      <trkpt lat="50.62517" lon="5.39724">
        <ele>147.2</ele>
      </trkpt>
      <trkpt lat="50.62515" lon="5.39759">
        <ele>148.8</ele>
        <extensions>
          <visugpx:TrkExtension xmlns:visugpx="https://www.visugpx.com/editgpx/">
            <visugpx:node>8</visugpx:node>
            </visugpx:TrkExtension>
        </extensions>
      </trkpt>
      <trkpt lat="50.62492" lon="5.39864">
        <ele>156.1</ele>
      </trkpt>
      <trkpt lat="50.62523" lon="5.40155">
        <ele>160</ele>
      </trkpt>
      <trkpt lat="50.62584" lon="5.40466">
        <ele>162</ele>
      </trkpt>
      <trkpt lat="50.62506" lon="5.40918">
        <ele>170</ele>
      </trkpt>
      <trkpt lat="50.623" lon="5.4119">
        <ele>177.2</ele>
      </trkpt>
      <trkpt lat="50.62212" lon="5.41091">
        <ele>178.4</ele>
      </trkpt>
      <trkpt lat="50.62083" lon="5.41126">
        <ele>181</ele>
      </trkpt>
      <trkpt lat="50.61916" lon="5.41239">
        <ele>183</ele>
      </trkpt>
      <trkpt lat="50.62017" lon="5.41547">
        <ele>186</ele>
      </trkpt>
      <trkpt lat="50.61917" lon="5.41695">
        <ele>187</ele>
      </trkpt>
      <trkpt lat="50.6189" lon="5.41877">
        <ele>188</ele>
      </trkpt>
      <trkpt lat="50.61908" lon="5.42275">
        <ele>190</ele>
      </trkpt>
      <trkpt lat="50.6181" lon="5.42513">
        <ele>192.3</ele>
      </trkpt>
      <trkpt lat="50.61812" lon="5.42597">
        <ele>190.2</ele>
      </trkpt>
      <trkpt lat="50.61812" lon="5.42718">
        <ele>185.9</ele>
      </trkpt>
      <trkpt lat="50.61773" lon="5.42827">
        <ele>188.3</ele>
      </trkpt>
      <trkpt lat="50.61771" lon="5.42889">
        <ele>190.2</ele>
      </trkpt>
      <trkpt lat="50.61941" lon="5.43108">
        <ele>191.8</ele>
      </trkpt>
      <trkpt lat="50.62014" lon="5.43167">
        <ele>193</ele>
      </trkpt>
      <trkpt lat="50.62076" lon="5.43225">
        <ele>192.7</ele>
      </trkpt>
      <trkpt lat="50.62132" lon="5.43292">
        <ele>194</ele>
      </trkpt>
      <trkpt lat="50.62151" lon="5.43314">
        <ele>194</ele>
      </trkpt>
      <trkpt lat="50.62183" lon="5.43403">
        <ele>191.4</ele>
      </trkpt>
      <trkpt lat="50.62208" lon="5.43478">
        <ele>191.2</ele>
      </trkpt>
      <trkpt lat="50.62204" lon="5.4349">
        <ele>190.3</ele>
      </trkpt>
      <trkpt lat="50.62207" lon="5.43502">
        <ele>189.8</ele>
      </trkpt>
      <trkpt lat="50.62214" lon="5.43512">
        <ele>188</ele>
        <time>2022-03-29T23:52:31Z</time>
      </trkpt>
      <trkpt lat="50.62223" lon="5.43512">
        <ele>189</ele>
        <time>2022-03-29T23:52:32Z</time>
      </trkpt>
      <trkpt lat="50.62248" lon="5.43568">
        <ele>188</ele>
        <time>2022-03-29T23:52:41Z</time>
      </trkpt>
      <trkpt lat="50.62259" lon="5.43593">
        <ele>188</ele>
        <time>2022-03-29T23:52:44Z</time>
      </trkpt>
      <trkpt lat="50.62272" lon="5.43624">
        <ele>186</ele>
        <time>2022-03-29T23:52:55Z</time>
      </trkpt>
      <trkpt lat="50.62329" lon="5.4378">
        <ele>183</ele>
        <time>2022-03-29T23:53:15Z</time>
      </trkpt>
      <trkpt lat="50.62371" lon="5.43982">
        <ele>186</ele>
        <time>2022-03-29T23:53:39Z</time>
      </trkpt>
      <trkpt lat="50.62367" lon="5.44011">
        <ele>186</ele>
        <time>2022-03-29T23:53:42Z</time>
      </trkpt>
      <trkpt lat="50.6231" lon="5.44117">
        <ele>185</ele>
        <time>2022-03-29T23:53:58Z</time>
      </trkpt>
      <trkpt lat="50.62303" lon="5.44148">
        <ele>185</ele>
        <time>2022-03-29T23:54:02Z</time>
      </trkpt>
      <trkpt lat="50.62302" lon="5.44188">
        <ele>186</ele>
        <time>2022-03-29T23:54:06Z</time>
      </trkpt>
      <trkpt lat="50.62324" lon="5.44274">
        <ele>187</ele>
        <time>2022-03-29T23:54:17Z</time>
      </trkpt>
      <trkpt lat="50.62335" lon="5.44334">
        <ele>186</ele>
        <time>2022-03-29T23:54:24Z</time>
      </trkpt>
      <trkpt lat="50.62346" lon="5.44414">
        <ele>185</ele>
        <time>2022-03-29T23:54:33Z</time>
      </trkpt>
      <trkpt lat="50.62349" lon="5.4445">
        <ele>185</ele>
        <time>2022-03-29T23:54:37Z</time>
      </trkpt>
      <trkpt lat="50.62352" lon="5.44522">
        <ele>187</ele>
        <time>2022-03-29T23:54:45Z</time>
      </trkpt>
      <trkpt lat="50.6235" lon="5.44606">
        <ele>189</ele>
        <time>2022-03-29T23:54:55Z</time>
      </trkpt>
      <trkpt lat="50.62336" lon="5.44763">
        <ele>191</ele>
        <time>2022-03-29T23:55:13Z</time>
        <extensions>
          <visugpx:TrkExtension xmlns:visugpx="https://www.visugpx.com/editgpx/">
            <visugpx:node>26</visugpx:node>
            </visugpx:TrkExtension>
        </extensions>
      </trkpt>
    </trkseg>
  </trk>
</gpx>